Date StartTime U_cm/s V_cm/s W_cm/s Ustd_cm/s Vstd_cm/s Wstd_cm/s Uvar_(cm/s)^2 Vvar_(cm/s)^2 Wvar_(cm/s)^2 KE_(m/s)^2 TurbulentKE_(m/s)^2 HorizWindSpeed_cm/s FrictionSpeec_cm/s DragCoef SpeedOfSound_m/s SonicTemperature_C Pressure_mb 
04/19/2014  00:00:00     -245.081      -94.501        2.082      135.582      100.252       66.380    18382.453    10050.556     4406.260        5.091        1.642      262.670       71.238        0.074      341.013       15.429      858.678
04/19/2014  00:01:00     -205.498     -121.024       -3.078      107.317      135.614       72.835    11517.031    18391.280     5304.898        4.604        1.761      238.487       58.210        0.060      341.026       15.449      858.695
04/19/2014  00:02:00     -262.273      -96.296        1.244      145.325      118.100       72.760    21119.367    13947.673     5293.960        5.920        2.018      279.392       80.187        0.082      341.029       15.456      858.704
04/19/2014  00:03:00     -246.658     -117.574       12.614      177.254      113.814       84.947    31418.946    12953.658     7215.957        6.320        2.579      273.247      103.618        0.144      341.021       15.442      858.712
04/19/2014  00:04:00     -276.475     -112.793       -4.700      124.730      106.966       59.901    15557.593    11441.705     3588.129        5.988        1.529      298.598       69.581        0.054      341.024       15.447      858.716
04/19/2014  00:05:00     -236.828      -78.759        3.927      115.992      115.051       45.573    13454.253    13236.793     2076.868        4.553        1.438      249.581       51.233        0.042      341.024       15.446      858.721
04/19/2014  00:06:00     -249.312      -93.179       -3.755      122.122      106.869       46.419    14913.843    11420.911     2154.691        4.967        1.424      266.155       56.174        0.045      340.994       15.395      858.726
04/19/2014  00:07:00     -280.205     -154.131      -13.164      171.862      102.488       67.718    29536.579    10503.693     4585.745        7.353        2.231      319.799       82.709        0.067      341.010       15.423      858.730
04/19/2014  00:08:00     -249.955     -139.443       -9.398       92.675       87.910       45.496     8588.662     7728.174     2069.900        5.019        0.919      286.220       42.433        0.022      340.982       15.374      858.735
04/19/2014  00:09:00     -253.721     -148.348       -5.583      136.342      119.884       62.496    18589.046    14372.065     3905.755        6.163        1.843      293.907       68.955        0.055      340.926       15.282      858.733
04/19/2014  00:10:00     -188.338      -83.577       10.404       88.098       84.961       42.720     7761.280     7218.366     1824.957        2.968        0.840      206.049       37.218        0.033      340.922       15.274      858.728
04/19/2014  00:11:00     -170.474     -103.752       -2.465      107.452       73.053       37.331    11546.017     5336.723     1393.569        2.905        0.914      199.564       47.033        0.056      340.922       15.274      858.732
04/19/2014  00:12:00     -223.101     -128.672       -7.685      150.620      116.173       62.074    22686.404    13496.108     3853.127        5.320        2.002      257.547       79.159        0.094      340.898       15.232      858.743
04/19/2014  00:13:00     -220.113     -115.102        3.151      110.960       84.105       46.383    12312.127     7073.613     2151.375        4.162        1.077      248.391       42.997        0.030      340.896       15.229      858.744
04/19/2014  00:14:00     -190.553     -130.534        7.747      116.890       90.859       48.488    13663.190     8255.379     2351.104        3.883        1.213      230.976       45.278        0.038      340.855       15.161      858.755
04/19/2014  00:15:00     -196.397     -154.748       -0.773       94.615       66.692       40.665     8951.928     4447.774     1653.638        3.878        0.753      250.038       44.073        0.031      340.843       15.139      858.756
04/19/2014  00:16:00     -161.158     -126.012       -6.153       66.334       64.928       41.999     4400.219     4215.613     1763.926        2.613        0.519      204.575       40.299        0.039      340.814       15.093      858.765
04/19/2014  00:17:00      -60.945     -105.873        1.833       64.143       57.521       34.519     4114.383     3308.620     1191.554        1.177        0.431      122.161       32.408        0.070      340.818       15.102      858.766
04/19/2014  00:18:00     -173.042     -111.440        2.042       81.817       66.645       37.540     6694.000     4441.526     1409.223        2.745        0.627      205.822       38.422        0.035      340.792       15.055      858.775
04/19/2014  00:19:00     -136.069     -115.450        1.279       65.410       65.284       42.563     4278.517     4262.053     1811.625        2.110        0.518      178.447       34.839        0.038      340.778       15.031      858.788
04/19/2014  00:20:00     -154.427     -155.601       -1.047       55.292      104.397       38.045     3057.223    10898.654     1447.403        3.173        0.770      219.225       32.064        0.021      340.792       15.054      858.794
04/19/2014  00:21:00     -217.489     -166.733       -6.588       98.992       85.603       42.265     9799.403     7327.860     1786.301        4.703        0.946      274.046       41.101        0.022      340.802       15.071      858.799
04/19/2014  00:22:00     -137.866      -75.881       -0.077       65.730       57.489       33.947     4320.433     3304.946     1152.425        1.677        0.439      157.368       29.783        0.036      340.789       15.053      858.798
04/19/2014  00:23:00     -124.950     -137.471       -7.641       82.427       71.674       43.596     6794.257     5137.146     1900.608        2.420        0.692      185.770       35.308        0.036      340.778       15.031      858.796
04/19/2014  00:24:00      -41.246      -57.169       21.461       46.543       43.627       26.988     2166.249     1903.317      728.335        0.511        0.240       70.495       22.914        0.106      340.774       15.025      858.798
04/19/2014  00:25:00      -86.066      -92.885        3.218       69.886       54.983       37.411     4884.066     3023.079     1399.560        1.267        0.465      126.630       38.628        0.093      340.751       14.990      858.802
04/19/2014  00:26:00      -64.930     -125.418        2.467       39.258       59.827       24.676     1541.160     3579.273      608.917        1.284        0.286      141.229       27.081        0.037      340.746       14.977      858.804
04/19/2014  00:27:00      -88.728     -139.437      -10.005       44.896       42.303       24.923     2015.642     1789.520      621.167        1.592        0.221      165.274       20.180        0.015      340.731       14.953      858.831
04/19/2014  00:28:00      -86.957     -101.759       -2.939       50.999       43.568       28.887     2600.905     1898.213      834.445        1.163        0.267      133.852       26.690        0.040      340.691       14.887      858.843
04/19/2014  00:29:00      -74.611      -56.051        5.733       53.346       45.200       27.238     2845.790     2043.044      741.906        0.718        0.282       93.320       24.470        0.069      340.643       14.806      858.863
04/19/2014  00:30:00      -28.613      -94.943       -1.125       40.235       35.745       20.028     1618.841     1277.704      401.112        0.657        0.165       99.161       20.967        0.045      340.735       14.963      858.882
04/19/2014  00:31:00      -45.704      -47.298       -9.048       39.783       33.693       20.137     1582.661     1135.185      405.513        0.376        0.156       65.772       14.698        0.050      340.707       14.912      858.890
04/19/2014  00:32:00       33.397       34.723       -5.214       22.432       25.013       11.540      503.195      625.649      133.178        0.180        0.063       48.177        7.800        0.026      340.602       14.734      858.889
04/19/2014  00:33:00       37.128       25.415      -12.242       28.128       33.209       13.358      791.174     1102.847      178.439        0.212        0.104       44.993       11.345        0.064      340.528       14.611      858.896
04/19/2014  00:34:00       17.621       33.994       -5.624       17.905       23.428       11.800      320.595      548.850      139.235        0.125        0.050       38.290        6.253        0.027      340.580       14.700      858.910
04/19/2014  00:35:00       42.233       34.367       12.459       38.508       34.702       31.818     1482.877     1204.238     1012.371        0.341        0.185       54.449       15.206        0.078      340.490       14.546      858.918
04/19/2014  00:36:00       47.655       57.195       -0.019       52.605       39.086       33.054     2767.273     1527.697     1092.558        0.546        0.269       74.446       26.787        0.129      340.419       14.426      858.906
04/19/2014  00:37:00       58.150       35.726       -7.724       30.457       29.113       23.079      927.616      847.571      532.631        0.351        0.115       68.248       17.903        0.069      340.440       14.461      858.895
04/19/2014  00:38:00       35.872      -33.386       -3.373       41.448       51.860       22.627     1717.902     2689.432      511.961        0.367        0.246       49.004       18.656        0.145      340.430       14.444      858.864
04/19/2014  00:39:00       14.994      -64.606       -3.582       42.031       34.772       22.333     1766.643     1209.082      498.747        0.394        0.174       66.324       17.202        0.067      340.584       14.706      858.833
04/19/2014  00:40:00      -49.464      -81.356        2.089       30.802       29.111       21.227      948.783      847.445      450.565        0.566        0.112       95.213       15.015        0.025      340.688       14.880      858.811
04/19/2014  00:41:00      -26.086        2.881       -7.838       26.427       34.211       28.775      698.372     1170.380      827.975        0.172        0.135       26.245       16.686        0.404      340.617       14.761      858.796
04/19/2014  00:42:00      -39.327      -17.988       -4.954       23.427       16.211       15.118      548.811      262.786      228.551        0.147        0.052       43.245       11.394        0.069      340.662       14.836      858.784
04/19/2014  00:43:00      -22.536      -14.673       -1.903       14.489       11.804        8.347      209.933      139.324       69.674        0.057        0.021       26.892        6.917        0.066      340.643       14.803      858.778
04/19/2014  00:44:00       -9.500      -36.856       -0.014       32.690       17.735       20.095     1068.633      314.530      403.819        0.162        0.089       38.060       12.929        0.115      340.547       14.643      858.771
04/19/2014  00:45:00        0.853      -50.990       -0.711       27.308       26.540       22.112      745.728      704.386      488.948        0.227        0.097       50.997        7.993        0.025      340.396       14.388      858.769
04/19/2014  00:46:00      -17.303      -48.034      -24.439       37.388       26.941       19.258     1397.849      725.796      370.870        0.285        0.125       51.055       11.964        0.055      340.498       14.561      858.773
04/19/2014  00:47:00      -41.056      -44.347       -8.228       33.590       31.956       22.022     1128.298     1021.180      484.987        0.318        0.132       60.434       16.355        0.073      340.507       14.574      858.774
04/19/2014  00:48:00       -7.956      -26.150       -2.936       25.148       15.392       17.290      632.426      236.917      298.937        0.096        0.058       27.334       16.471        0.363      340.526       14.609      858.781
04/19/2014  00:49:00      -43.131      -12.084        8.608       36.150       24.630       18.078     1306.788      606.615      326.812        0.216        0.112       44.792       14.868        0.110      340.503       14.567      858.790
04/19/2014  00:50:00      -94.064      -12.023      -11.120       19.563       18.031       15.263      382.722      325.112      232.946        0.503        0.047       94.829        6.492        0.005      340.544       14.637      858.801
04/19/2014  00:51:00      -78.822       -7.244       -5.045       36.168       31.284       20.847     1308.152      978.657      434.598        0.451        0.136       79.154       17.061        0.046      340.606       14.742      858.809
04/19/2014  00:52:00      -82.792      -37.461      -12.341       22.894       34.740       13.709      524.152     1206.878      187.932        0.516        0.096       90.873       10.431        0.013      340.465       14.503      858.821
04/19/2014  00:53:00      -96.858      -42.012       -4.130       28.330       15.398       12.693      802.564      237.092      161.117        0.618        0.060      105.577        5.751        0.003      340.482       14.532      858.826
04/19/2014  00:54:00      -84.222      -42.080        3.266       28.807       25.439       15.154      829.842      647.162      229.651        0.529        0.085       94.149       15.454        0.027      340.457       14.489      858.831
04/19/2014  00:55:00      -44.665      -25.200       -0.220       23.686       23.528       18.093      561.039      553.571      327.345        0.204        0.072       51.284       15.288        0.089      340.429       14.443      858.829
04/19/2014  00:56:00      -27.577      -42.593        6.497       22.683       31.069       16.406      514.496      965.265      269.141        0.218        0.087       50.741       16.170        0.102      340.469       14.510      858.827
04/19/2014  00:57:00      -43.229      -43.034       -5.757       20.071       14.135       11.053      402.862      199.788      122.178        0.224        0.036       60.997        0.823        0.000      340.580       14.698      858.817
04/19/2014  00:58:00      -40.643      -12.812        1.783       17.102       20.187       12.887      292.462      407.535      166.085        0.134        0.043       42.615       10.661        0.063      340.525       14.606      858.806
04/19/2014  00:59:00      -30.622      -31.357        9.225       28.472       18.512       17.443      810.678      342.687      304.250        0.173        0.073       43.829       19.855        0.205      340.533       14.618      858.799
04/19/2014  01:00:00      -79.110      -24.249       -6.316       19.980       17.960       11.829      399.183      322.561      139.930        0.387        0.043       82.743       10.308        0.016      340.471       14.515      858.797
04/19/2014  01:01:00      -83.345      -25.345      -10.535       17.639       15.312       10.996      311.143      234.444      120.909        0.418        0.033       87.113        9.924        0.013      340.460       14.496      858.795
04/19/2014  01:02:00      -98.967      -33.551      -13.864       14.145       30.379       14.269      200.083      922.912      203.618        0.622        0.066      104.499        9.202        0.008      340.425       14.438      858.792
04/19/2014  01:03:00      -83.816      -45.159      -18.095       25.627       30.907       19.007      656.760      955.232      361.267        0.568        0.099       95.207        8.378        0.008      340.384       14.372      858.795
04/19/2014  01:04:00      -82.833      -47.856       -4.360       28.461       15.115       14.867      810.003      228.465      221.037        0.521        0.063       95.663        8.457        0.008      340.375       14.353      858.802
04/19/2014  01:05:00     -125.397      -48.403      -10.159       16.079       15.611       11.626      258.541      243.689      135.175        0.940        0.032      134.414        7.151        0.003      340.252       14.144      858.805
04/19/2014  01:06:00      -52.093      -46.453       -6.297       72.030       27.382       20.765     5188.369      749.769      431.167        0.564        0.318       69.797       22.533        0.104      340.244       14.131      858.798
04/19/2014  01:07:00      -62.290      -74.190       -8.304       34.401       25.805       22.587     1183.459      665.891      510.187        0.591        0.118       96.872       12.203        0.016      340.324       14.266      858.797
04/19/2014  01:08:00      -73.926      -53.473       -9.099       31.283       25.082       14.380      978.641      629.114      206.773        0.511        0.091       91.238        5.684        0.004      340.361       14.329      858.787
04/19/2014  01:09:00      -75.085      -31.876        2.271       39.012       26.302       16.025     1521.905      691.813      256.789        0.456        0.124       81.571       14.907        0.033      340.287       14.204      858.770
04/19/2014  01:10:00      -86.976      -25.331       -7.850       27.994       19.994       14.323      783.646      399.778      205.140        0.483        0.069       90.590       10.619        0.014      340.274       14.179      858.765
04/19/2014  01:11:00      -94.865      -34.103       -2.513       50.496       38.304       24.034     2549.869     1467.189      577.645        0.738        0.230      100.809       25.617        0.065      340.186       14.034      858.753
04/19/2014  01:12:00      -62.726      -34.377       -1.243       20.266       26.696       15.268      410.705      712.690      233.122        0.324        0.068       71.528       13.369        0.035      340.149       13.971      858.738
04/19/2014  01:13:00      -73.641      -25.121       -1.009       30.364       20.412       11.874      921.995      416.668      140.992        0.377        0.074       77.808       11.021        0.020      340.197       14.051      858.724
04/19/2014  01:14:00      -60.913      -24.746       -3.581       41.050       29.237       20.938     1685.112      854.776      438.410        0.366        0.149       65.748       22.580        0.118      340.166       13.998      858.711
04/19/2014  01:15:00      -97.116       -8.296       -6.362       26.476       28.477       17.461      700.993      810.939      304.896        0.568        0.091       97.469       15.948        0.027      340.231       14.109      858.706
04/19/2014  01:16:00      -38.411       -4.982        4.300       32.211       36.319       17.650     1037.569     1319.091      311.530        0.209        0.133       38.733       14.753        0.145      340.228       14.104      858.702
04/19/2014  01:17:00      -70.466       -1.585       -5.659       32.101       19.903       17.284     1030.445      396.140      298.749        0.336        0.086       70.483       18.215        0.067      340.495       14.555      858.695
04/19/2014  01:18:00      -35.423      -11.711        2.487       27.725       17.298       17.378      768.695      299.218      302.011        0.138        0.068       37.308       11.381        0.093      340.233       14.112      858.688
04/19/2014  01:19:00      -34.137       -7.080        4.311       25.586       26.210       15.111      654.625      686.946      228.328        0.140        0.078       34.863       15.553        0.199      340.302       14.229      858.681
04/19/2014  01:20:00      -61.981      -11.919       -2.919       34.837       32.433       16.258     1213.606     1051.906      264.310        0.326        0.126       63.117       15.600        0.061      340.283       14.196      858.678
04/19/2014  01:21:00     -108.617       -0.236      -12.067       57.835       29.343       26.177     3344.891      860.990      685.245        0.842        0.245      108.617       33.050        0.093      340.269       14.173      858.677
04/19/2014  01:22:00     -130.039        3.321       -7.585       43.022       35.800       26.385     1850.887     1281.640      696.149        1.040        0.191      130.082       21.921        0.028      340.199       14.055      858.686
04/19/2014  01:23:00     -144.256       -0.022      -13.138       27.993       29.039       21.266      783.618      843.290      452.249        1.153        0.104      144.256       14.564        0.010      340.172       14.009      858.684
04/19/2014  01:24:00     -149.623      -20.104      -18.510       24.116       21.811       15.356      581.562      475.738      235.796        1.221        0.065      150.968       13.036        0.007      339.961       13.654      858.679
04/19/2014  01:25:00     -109.208      -25.739       -6.614       22.064       28.408       19.428      486.798      807.003      377.445        0.715        0.084      112.200       13.067        0.014      340.011       13.738      858.679
04/19/2014  01:26:00     -115.600       -2.900      -16.884       33.488       29.173       18.282     1121.425      851.078      334.217        0.798        0.115      115.637       12.089        0.011      340.144       13.960      858.674
04/19/2014  01:27:00     -106.416       -0.388      -10.942       26.536       32.243       16.441      704.168     1039.604      270.304        0.673        0.101      106.417       12.872        0.015      340.109       13.902      858.668
04/19/2014  01:28:00      -99.012       15.302       -5.742       34.786       28.832       18.932     1210.066      831.308      358.417        0.623        0.120      100.188       17.942        0.032      340.210       14.075      858.656
04/19/2014  01:29:00     -108.637       25.898       -8.699       23.757       24.348       14.716      564.398      592.834      216.551        0.696        0.069      111.681       10.790        0.009      340.111       13.906      858.649
04/19/2014  01:30:00      -91.442        5.587       -9.261       27.580       28.027       17.220      760.679      785.533      296.536        0.516        0.092       91.612       15.050        0.027      340.137       13.950      858.646
04/19/2014  01:31:00     -117.154        0.924      -18.504       32.393       41.451       20.315     1049.306     1718.221      412.707        0.862        0.159      117.157       20.411        0.030      339.971       13.670      858.648
04/19/2014  01:32:00     -141.322        3.527      -17.246       42.555       39.011       21.975     1810.924     1521.866      482.916        1.205        0.191      141.366       22.601        0.026      340.073       13.842      858.650
04/19/2014  01:33:00      -99.038        4.094       -9.254       31.712       23.995       18.808     1005.657      575.739      353.728        0.592        0.097       99.123       17.724        0.032      340.062       13.823      858.647
04/19/2014  01:34:00      -79.073      -17.679      -12.667       26.318       23.755       15.704      692.620      564.298      246.622        0.411        0.075       81.025       13.007        0.026      339.960       13.650      858.637
04/19/2014  01:35:00      -67.344      -30.877       -4.409       26.445       27.289       15.926      699.361      744.687      253.628        0.360        0.085       74.086        7.913        0.011      339.946       13.628      858.619
04/19/2014  01:36:00      -66.016      -18.531       -2.081       26.301       24.943       16.368      691.749      622.150      267.901        0.314        0.079       68.567       12.980        0.036      339.880       13.517      858.607
04/19/2014  01:37:00      -55.072      -20.814       -3.053       23.326       17.292       11.066      544.099      299.030      122.446        0.222        0.048       58.874        6.831        0.013      339.999       13.718      858.590
04/19/2014  01:38:00        0.782      -18.347       -3.691       10.931       12.126       10.603      119.497      147.050      112.424        0.036        0.019       18.363        7.910        0.186      340.054       13.810      858.573
04/19/2014  01:39:00       -0.398      -11.393        2.001        6.555       10.273        9.942       42.973      105.531       98.838        0.019        0.012       11.400        7.834        0.472      340.076       13.849      858.571
04/19/2014  01:40:00      -24.723      -21.645        1.288       23.772       13.443        7.626      565.132      180.711       58.152        0.094        0.040       32.860       10.584        0.104      339.958       13.649      858.583
04/19/2014  01:41:00      -76.000      -41.528      -10.484       12.862        9.117        6.408      165.420       83.114       41.062        0.395        0.014       86.606        4.833        0.003      339.716       13.242      858.606
04/19/2014  01:42:00     -106.090      -46.506      -11.040       14.709       17.158        9.836      216.345      294.384       96.756        0.707        0.030      115.835        4.149        0.001      339.750       13.298      858.637
04/19/2014  01:43:00      -96.305      -37.574       -9.794       20.119       18.875       16.015      404.764      356.248      256.465        0.590        0.051      103.375       12.607        0.015      339.699       13.212      858.662
04/19/2014  01:44:00      -93.379      -31.551       -4.516       18.770       20.499       11.063      352.295      420.212      122.395        0.531        0.045       98.565       10.713        0.012      339.715       13.239      858.671
04/19/2014  01:45:00      -72.107      -10.960       -4.877       33.001       26.471       15.160     1089.057      700.729      229.817        0.368        0.101       72.935       11.107        0.023      339.779       13.346      858.674
04/19/2014  01:46:00      -77.274      -23.774       -9.100       28.195       30.805       20.208      794.964      948.928      408.353        0.439        0.108       80.849       12.328        0.023      339.888       13.531      858.673
04/19/2014  01:47:00     -134.689      -58.230       -4.247       46.282       31.440       21.402     2142.036      988.460      458.024        1.257        0.179      146.737       14.166        0.009      339.719       13.245      858.680
04/19/2014  01:48:00     -143.593      -49.175      -13.664       51.672       44.908       22.677     2670.037     2016.736      514.250        1.421        0.260      151.780       23.932        0.025      339.698       13.209      858.689
04/19/2014  01:49:00      -64.163      -41.253      -10.968       24.918       21.965       14.972      620.928      482.462      224.155        0.363        0.066       76.280        6.475        0.007      339.856       13.476      858.682
04/19/2014  01:50:00      -63.499      -32.310      -15.533       23.604       17.106       14.481      557.144      292.607      209.695        0.319        0.053       71.247        8.996        0.016      340.095       13.881      858.672
04/19/2014  01:51:00     -104.139      -37.870       -5.000       19.668       22.532       15.297      386.822      507.686      233.984        0.672        0.056      110.811       10.027        0.008      339.861       13.484      858.674
04/19/2014  01:52:00      -91.265      -19.162       -2.004       31.130       21.983       19.412      969.054      483.238      376.841        0.526        0.091       93.255       16.240        0.030      339.713       13.234      858.676
04/19/2014  01:53:00      -47.801      -20.456        5.136       35.505       26.294       19.370     1260.636      691.369      375.200        0.253        0.116       51.994       20.864        0.161      339.626       13.089      858.679
04/19/2014  01:54:00       -5.860       -8.603       -7.332       20.368       16.380       11.016      414.853      268.290      121.347        0.048        0.040       10.410        6.486        0.388      339.726       13.256      858.693
04/19/2014  01:55:00      -43.708      -22.408       -0.441       26.682       14.476       10.286      711.936      209.565      105.794        0.172        0.051       49.117        8.468        0.030      339.826       13.425      858.699
04/19/2014  01:56:00      -31.287      -13.706       -2.530       20.165       11.315        8.993      406.611      128.021       80.866        0.089        0.031       34.157        3.995        0.014      339.736       13.275      858.709
04/19/2014  01:57:00       -2.639       -5.442        1.453        4.928       12.410        4.964       24.288      154.003       24.637        0.012        0.010        6.048        2.372        0.154      339.748       13.294      858.705
04/19/2014  01:58:00       -8.607       25.123        3.578       16.165       20.083       10.865      261.308      403.340      118.040        0.075        0.039       26.557        6.637        0.062      339.837       13.442      858.698
04/19/2014  01:59:00      -25.039       26.956       -2.319       13.650       18.475       10.225      186.333      341.342      104.544        0.100        0.032       36.791        8.452        0.053      339.853       13.471      858.693
04/19/2014  02:00:00       -7.738       20.979        5.264       16.068       14.421       11.878      258.178      207.970      141.093        0.057        0.030       22.360       12.465        0.311      339.970       13.669      858.676
04/19/2014  02:01:00      -17.651       37.937       -2.976       15.751       18.796       12.672      248.081      353.276      160.569        0.126        0.038       41.842       11.048        0.070      340.091       13.871      858.672
04/19/2014  02:02:00        4.668        3.738       14.577       12.644        6.470        9.127      159.860       41.858       83.296        0.027        0.014        5.980        3.184        0.283      339.994       13.710      858.654
04/19/2014  02:03:00        1.631        3.852        5.494       12.493        8.646        9.852      156.065       74.759       97.056        0.019        0.016        4.183        9.216        4.855      339.991       13.703      858.643
04/19/2014  02:04:00      -38.846      -36.555        7.011       19.374       15.860       10.407      375.356      251.555      108.309        0.181        0.037       53.341       11.227        0.044      340.035       13.777      858.630
04/19/2014  02:05:00      -38.165      -32.303       -8.192       15.973       15.568        9.859      255.134      242.358       97.192        0.158        0.030       50.000        7.323        0.021      339.946       13.628      858.623
04/19/2014  02:06:00      -57.073      -27.719       -7.247       17.179       10.041        8.734      295.109      100.819       76.284        0.228        0.024       63.449        5.150        0.007      339.833       13.439      858.619
04/19/2014  02:07:00      -51.579      -30.029       -2.968       12.317        6.325        5.393      151.709       40.003       29.088        0.190        0.011       59.683        4.242        0.005      339.927       13.596      858.594
04/19/2014  02:08:00      -54.344      -22.329       -1.236       15.482        8.251        6.753      239.678       68.075       45.600        0.190        0.018       58.752        6.775        0.013      339.729       13.263      858.575
04/19/2014  02:09:00      -99.982      -26.468       -9.041       16.740       19.148       15.493      280.212      366.653      240.018        0.583        0.044      103.426       13.219        0.016      339.538       12.940      858.551
04/19/2014  02:10:00      -79.851      -11.035       -5.937       23.711       17.370       15.321      562.216      301.707      234.721        0.382        0.055       80.610       13.654        0.029      339.553       12.965      858.525
04/19/2014  02:11:00      -88.886       -5.383       -4.341       35.308       23.195       23.413     1246.670      538.008      548.164        0.514        0.117       89.049       23.631        0.070      339.653       13.134      858.501
04/19/2014  02:12:00      -50.379      -26.019        2.866       43.133       26.513       20.834     1860.495      702.939      434.067        0.311        0.150       56.701       28.042        0.245      339.681       13.182      858.483
04/19/2014  02:13:00     -106.415      -31.334       -4.201       36.093       22.640       16.393     1302.680      512.589      268.719        0.720        0.104      110.932       12.103        0.012      339.877       13.511      858.473
04/19/2014  02:14:00      -96.527      -27.401        3.306       44.338       31.684       22.215     1965.867     1003.900      493.504        0.677        0.173      100.341       22.372        0.050      339.664       13.153      858.471
04/19/2014  02:15:00      -63.006      -12.914       -4.351       36.587       23.883       16.724     1338.618      570.420      279.689        0.317        0.109       64.316       15.921        0.061      339.687       13.192      858.460
04/19/2014  02:16:00     -123.708      -48.055       -5.715       26.434       20.978       15.261      698.756      440.094      232.892        0.951        0.069      132.714       11.435        0.007      339.572       12.997      858.466
04/19/2014  02:17:00      -75.184      -15.917       -0.448       30.125       25.054       21.897      907.517      627.702      479.482        0.396        0.101       76.850       18.478        0.058      339.604       13.052      858.468
04/19/2014  02:18:00      -89.347      -47.230        1.894       37.187       20.509       20.588     1382.885      420.625      423.876        0.622        0.111      101.062       20.706        0.042      339.579       13.009      858.456
04/19/2014  02:19:00     -126.075      -55.792      -10.973       21.859       22.040       14.749      477.833      485.751      217.547        1.015        0.059      137.868        6.188        0.002      339.639       13.112      858.453
04/19/2014  02:20:00      -73.706      -54.676       -3.844       29.749       32.673       16.815      884.975     1067.533      282.752        0.534        0.112       91.772       10.760        0.014      339.668       13.159      858.447
04/19/2014  02:21:00      -93.838      -35.470        5.954       42.268       31.535       19.621     1786.608      994.446      384.965        0.663        0.158      100.318       17.682        0.031      339.639       13.110      858.440
04/19/2014  02:22:00      -87.194      -60.556       -3.052       51.191       40.137       19.601     2620.544     1610.966      384.212        0.795        0.231      106.160       19.351        0.033      339.596       13.037      858.439
04/19/2014  02:23:00     -100.386      -49.903        3.401       74.082       34.862       31.495     5488.139     1215.383      991.939        1.014        0.385      112.106       40.380        0.130      339.576       13.003      858.436
04/19/2014  02:24:00      -92.677      -68.168        7.619       49.533       35.196       28.384     2453.488     1238.726      805.671        0.890        0.225      115.047       27.711        0.058      339.608       13.057      858.434
04/19/2014  02:25:00      -70.188      -60.702        0.877       43.330       33.228       25.458     1877.461     1104.103      648.103        0.612        0.181       92.796       26.398        0.081      339.621       13.080      858.431
04/19/2014  02:26:00      -64.220      -54.636        6.869       50.183       33.163       26.892     2518.366     1099.763      723.193        0.575        0.217       84.317       26.151        0.096      339.596       13.040      858.436
04/19/2014  02:27:00      -92.408      -58.343        3.527       46.764       38.143       28.234     2186.835     1454.910      797.185        0.820        0.222      109.285       26.593        0.059      339.548       12.956      858.441
04/19/2014  02:28:00     -106.273      -72.291        4.945       50.335       38.590       31.660     2533.589     1489.197     1002.369        1.078        0.251      128.530       29.645        0.053      339.519       12.907      858.435
04/19/2014  02:29:00     -177.028      -74.361       -7.860       51.500       43.309       26.537     2652.235     1875.686      704.207        2.108        0.262      192.012       27.682        0.021      339.498       12.870      858.426
04/19/2014  02:30:00     -158.109      -52.792        4.262       74.329       51.975       34.150     5524.826     2701.357     1166.226        1.860        0.470      166.690       32.884        0.039      339.457       12.802      858.417
04/19/2014  02:31:00     -265.979      -62.653      -11.262       60.897       49.175       29.653     3708.480     2418.210      879.314        4.090        0.350      273.258       28.949        0.011      339.406       12.712      858.412
04/19/2014  02:32:00     -196.706      -56.003      -25.890       32.890       43.433       23.460     1081.771     1886.417      550.377        2.301        0.176      204.523       17.263        0.007      339.367       12.651      858.396
04/19/2014  02:33:00     -168.121      -25.606      -17.327       49.912       53.122       33.054     2491.163     2821.991     1092.553        1.781        0.320      170.060       29.201        0.029      339.559       12.975      858.393
04/19/2014  02:34:00     -182.269      -42.753      -20.098       62.173       44.103       34.702     3865.535     1945.111     1204.203        2.123        0.351      187.216       25.361        0.018      339.373       12.660      858.387
04/19/2014  02:35:00     -204.091      -53.375      -22.899       51.721       47.965       29.494     2675.097     2300.617      869.919        2.543        0.292      210.955       24.006        0.013      339.316       12.564      858.383
04/19/2014  02:36:00     -158.478      -46.130      -11.067       49.122       41.117       29.297     2412.929     1690.593      858.311        1.616        0.248      165.056       22.976        0.019      339.294       12.527      858.371
04/19/2014  02:37:00     -176.236      -99.265      -13.252       49.139       39.304       29.080     2414.638     1544.780      845.623        2.295        0.240      202.269       11.633        0.003      339.309       12.552      858.363
04/19/2014  02:38:00     -149.654      -37.551       -4.237       73.392       48.909       32.364     5386.341     2392.100     1047.435        1.632        0.441      154.293       33.570        0.047      339.351       12.624      858.362
04/19/2014  02:39:00     -129.221      -65.777        8.722       70.820       54.817       30.045     5015.531     3004.955      902.687        1.501        0.446      144.999       34.226        0.056      339.414       12.729      858.367
04/19/2014  02:40:00     -177.299      -63.070       -4.041       66.824       56.027       31.789     4465.432     3139.080     1010.540        2.202        0.431      188.183       31.228        0.028      339.417       12.733      858.369
04/19/2014  02:41:00     -141.135      -23.266       -1.410       63.156       48.310       29.701     3988.737     2333.814      882.153        1.383        0.360      143.040       29.824        0.043      339.451       12.793      858.368
04/19/2014  02:42:00     -164.351       -0.083      -14.132       63.069       36.325       25.306     3977.751     1319.477      640.410        1.657        0.297      164.351       29.960        0.033      339.428       12.752      858.366
04/19/2014  02:43:00     -231.541      -19.144      -14.253       38.195       34.561       31.755     1458.841     1194.495     1008.362        2.892        0.183      232.331       26.273        0.013      339.335       12.594      858.367
04/19/2014  02:44:00     -137.246      -63.157       -0.000       54.516       41.408       33.008     2972.038     1714.628     1089.561        1.430        0.289      151.080       33.621        0.050      339.320       12.573      858.365
04/19/2014  02:45:00     -154.211      -39.506       -3.380       41.102       37.930       22.806     1689.358     1438.683      520.119        1.450        0.182      159.191       20.627        0.017      339.357       12.634      858.363
04/19/2014  02:46:00     -132.872      -50.299       -1.778       84.112       40.050       33.083     7074.836     1603.969     1094.481        1.498        0.489      142.074       38.630        0.074      339.492       12.860      858.355
04/19/2014  02:47:00      -82.682      -28.853        1.661       42.362       32.560       18.862     1794.543     1060.163      355.790        0.544        0.161       87.572       22.498        0.066      339.521       12.911      858.345
04/19/2014  02:48:00     -118.230      -62.526        0.054       56.798       42.109       25.859     3226.053     1773.188      668.672        1.178        0.283      133.745       23.992        0.032      339.568       12.989      858.358
04/19/2014  02:49:00     -132.990      -71.539       -3.233       54.293       39.895       25.218     2947.723     1591.601      635.947        1.399        0.259      151.011       22.465        0.022      339.580       13.009      858.368
04/19/2014  02:50:00     -100.350      -48.034       -3.948       70.917       52.090       25.740     5029.202     2713.323      662.565        1.040        0.420      111.254       28.730        0.067      339.581       13.011      858.382
04/19/2014  02:51:00     -121.722      -40.405        0.562       64.059       38.948       30.401     4103.519     1516.963      924.215        1.150        0.327      128.253       29.754        0.054      339.570       12.995      858.395
04/19/2014  02:52:00     -170.357      -82.343       -9.247       49.898       58.158       25.219     2489.844     3382.370      635.993        2.120        0.325      189.214       17.998        0.009      339.612       13.063      858.400
04/19/2014  02:53:00     -120.241      -36.599       -7.600       42.388       39.515       25.668     1796.753     1561.411      658.832        0.994        0.201      125.688       23.948        0.036      339.600       13.046      858.418
04/19/2014  02:54:00     -137.090      -46.461      -10.955       49.414       35.522       24.421     2441.753     1261.824      596.406        1.269        0.215      144.749       26.730        0.034      339.589       13.025      858.442
04/19/2014  02:55:00      -91.112      -14.580       -8.764       41.956       27.827       23.137     1760.278      774.327      535.323        0.583        0.153       92.271       19.839        0.046      339.609       13.059      858.450
04/19/2014  02:56:00     -100.349      -66.992      -10.575       48.546       29.839       19.146     2356.707      890.343      366.554        0.914        0.181      120.656       17.775        0.022      339.495       12.867      858.467
04/19/2014  02:57:00     -128.666      -15.494        2.226       46.072       45.705       27.236     2122.623     2088.982      741.821        1.088        0.248      129.595       18.158        0.020      339.267       12.483      858.480
04/19/2014  02:58:00     -112.585      -28.819       -5.061       32.285       30.544       22.365     1042.290      932.944      500.204        0.800        0.124      116.214       18.880        0.026      339.222       12.408      858.491
04/19/2014  02:59:00     -114.731      -10.582      -21.657       21.550       17.405       15.166      464.409      302.943      230.015        0.737        0.050      115.218        8.754        0.006      339.140       12.270      858.504
04/19/2014  03:00:00      -78.433      -44.695        1.629       50.238       39.152       31.524     2523.874     1532.876      993.746        0.660        0.253       90.274       31.347        0.121      339.178       12.334      858.509
04/19/2014  03:01:00      -66.451      -48.570        7.049       36.744       27.555       17.992     1350.131      759.262      323.695        0.463        0.122       82.309       10.090        0.015      339.281       12.506      858.517
04/19/2014  03:02:00       -2.684      -31.763       19.043       32.222       35.156       22.535     1038.264     1235.916      507.814        0.208        0.139       31.876       19.983        0.393      339.365       12.649      858.524
04/19/2014  03:03:00      -30.278      -57.436       -1.065       38.880       39.698       20.022     1511.673     1575.942      400.899        0.385        0.174       64.928       21.355        0.108      339.298       12.534      858.542
04/19/2014  03:04:00      -65.746      -31.003       -4.627       18.472       12.106       13.420      341.200      146.557      180.103        0.299        0.033       72.690       10.094        0.019      339.282       12.509      858.544
04/19/2014  03:05:00      -59.645      -14.775       -2.960       24.421       26.853        8.770      596.402      721.058       76.911        0.259        0.070       61.448        9.786        0.025      339.316       12.564      858.543
04/19/2014  03:06:00      -79.076      -33.202       -3.964       15.397       24.795       11.159      237.055      614.814      124.531        0.417        0.049       85.764        5.918        0.005      339.338       12.602      858.555
04/19/2014  03:07:00      -38.781      -39.723        0.709       37.372       19.755       13.266     1396.672      390.249      175.997        0.252        0.098       55.515       12.699        0.052      339.288       12.517      858.565
04/19/2014  03:08:00      -78.826      -43.244       -7.328       21.557       21.715       11.535      464.704      471.525      133.051        0.460        0.053       89.909        5.059        0.003      339.223       12.410      858.578
04/19/2014  03:09:00     -103.721      -31.693       -6.706       27.186       21.339       16.731      739.091      455.372      279.919        0.664        0.074      108.455       15.542        0.021      339.228       12.418      858.577
04/19/2014  03:10:00      -77.746      -19.147       -7.519       28.216       23.392       14.113      796.162      547.171      199.173        0.400        0.077       80.069       11.686        0.021      339.143       12.273      858.580
04/19/2014  03:11:00      -64.562      -47.683       -0.502       33.770       22.950       18.167     1140.386      526.701      330.058        0.422        0.100       80.262       19.473        0.059      339.165       12.311      858.583
04/19/2014  03:12:00      -46.261      -15.886       -4.879       16.641       20.217        9.898      276.927      408.742       97.967        0.160        0.039       48.912        8.644        0.031      339.191       12.354      858.591
04/19/2014  03:13:00      -34.902       11.429        7.293       22.004       23.561       15.119      484.185      555.101      228.591        0.133        0.063       36.725       12.564        0.117      339.243       12.442      858.600
04/19/2014  03:14:00      -15.617       -2.697        8.838       11.944       25.072       14.756      142.650      628.619      217.727        0.066        0.049       15.848       13.873        0.766      339.249       12.454      858.618
04/19/2014  03:15:00       -8.084      -16.601        6.141       24.148       12.702       12.188      583.130      161.348      148.552        0.064        0.045       18.465        6.826        0.137      339.194       12.359      858.629
04/19/2014  03:16:00       15.945      -12.197       27.470       16.241       17.373       19.023      263.773      301.825      361.865        0.104        0.046       20.075       10.432        0.270      339.151       12.287      858.639
04/19/2014  03:17:00       -2.849      -22.284        4.233       11.049       11.624       11.117      122.084      135.127      123.588        0.045        0.019       22.465        8.171        0.132      339.234       12.427      858.648
04/19/2014  03:18:00      -42.319      -27.723        2.422       23.770       12.740       12.140      565.011      162.320      147.368        0.172        0.044       50.591       13.390        0.070      339.164       12.310      858.660
04/19/2014  03:19:00      -31.964      -34.892        7.231       35.442       22.435       19.134     1256.154      503.343      366.093        0.221        0.106       47.320       19.759        0.174      339.241       12.441      858.671
04/19/2014  03:20:00      -40.723      -85.051       -2.998       44.776       47.226       22.881     2004.912     2230.317      523.543        0.683        0.238       94.298       19.385        0.042      339.135       12.261      858.683
04/19/2014  03:21:00      -14.047      -56.245       -1.235       26.964       29.829       19.517      727.038      889.774      380.898        0.268        0.100       57.972        7.984        0.019      339.174       12.326      858.681
04/19/2014  03:22:00      -71.083      -63.391       -1.673       33.163       21.122       18.472     1099.793      446.130      341.228        0.548        0.094       95.243       12.788        0.018      339.116       12.228      858.694
04/19/2014  03:23:00      -95.239      -36.501       -3.931       16.849       20.510       15.670      283.883      420.662      245.554        0.568        0.048      101.994        8.902        0.008      339.120       12.235      858.700
04/19/2014  03:24:00      -43.834      -35.079       -1.153       51.488       28.152       16.754     2650.986      792.544      280.695        0.344        0.186       56.142       12.770        0.052      339.109       12.215      858.709
04/19/2014  03:25:00      -81.330      -35.159       -7.572       27.874       19.900       12.640      776.967      396.002      159.760        0.462        0.067       88.605        5.451        0.004      339.034       12.090      858.715
04/19/2014  03:26:00     -103.918      -42.817       -7.077       24.662       21.376       13.862      608.225      456.953      192.165        0.697        0.063      112.394        6.864        0.004      339.027       12.080      858.712
04/19/2014  03:27:00     -132.538      -45.120      -13.623       33.521       23.145       18.008     1123.684      535.694      324.304        1.089        0.099      140.008       13.984        0.010      339.060       12.136      858.716
04/19/2014  03:28:00     -113.010      -68.255       -3.528       43.142       30.047       18.498     1861.252      902.834      342.177        1.027        0.155      132.023       11.404        0.007      339.002       12.038      858.719
04/19/2014  03:29:00     -121.263      -43.590       -5.223       30.378       34.043       21.070      922.848     1158.939      443.936        0.958        0.126      128.860       14.140        0.012      338.950       11.951      858.727
04/19/2014  03:30:00     -111.163       -9.912        0.003       68.014       39.195       27.765     4625.864     1536.237      770.878        0.969        0.347      111.604       31.239        0.078      339.119       12.233      858.737
04/19/2014  03:31:00     -114.398       20.941      -11.016       62.777       36.963       24.266     3940.914     1366.251      588.831        0.977        0.295      116.299       22.058        0.036      339.151       12.287      858.754
04/19/2014  03:32:00     -102.955       -8.025      -11.577       31.117       45.762       17.938      968.286     2094.141      321.781        0.709        0.169      103.267        8.157        0.006      339.014       12.058      858.770
04/19/2014  03:33:00      -94.493      -33.298      -18.119       57.788       33.900       23.504     3339.423     1149.213      552.443        0.770        0.252      100.188       11.792        0.014      338.879       11.830      858.770
04/19/2014  03:34:00     -108.504       -2.243      -10.429       39.421       42.055       25.727     1554.013     1768.659      661.867        0.793        0.199      108.527       18.237        0.028      339.171       12.323      858.770
04/19/2014  03:35:00     -154.208      -38.136      -11.916       67.006       61.276       37.938     4489.853     3754.781     1439.309        1.753        0.484      158.854       32.180        0.041      339.158       12.300      858.761
04/19/2014  03:36:00     -111.408       -5.599       -6.464       59.868       66.646       27.939     3584.171     4441.691      780.596        1.064        0.440      111.549       35.901        0.104      339.241       12.439      858.760
04/19/2014  03:37:00      -74.065        9.735      -10.861       38.342       37.572       25.602     1470.080     1411.671      655.466        0.462        0.177       74.702       25.589        0.117      339.391       12.692      858.753
04/19/2014  03:38:00      -75.546      -29.076       -5.341       39.581       28.493       19.573     1566.630      811.876      383.086        0.467        0.138       80.948       22.405        0.077      339.214       12.393      858.746
04/19/2014  03:39:00     -118.574      -42.226        0.069       54.645       59.909       30.007     2986.126     3589.033      900.393        1.166        0.374      125.868       34.652        0.076      339.229       12.418      858.738
04/19/2014  03:40:00     -169.655      -42.680      -24.148       69.930       48.079       23.802     4890.229     2311.635      566.553        1.948        0.388      174.941       23.426        0.018      339.283       12.507      858.743
04/19/2014  03:41:00     -188.739      -38.090      -25.474       74.906       46.130       30.063     5610.961     2128.006      903.756        2.318        0.432      192.545       31.521        0.027      339.317       12.565      858.761
04/19/2014  03:42:00     -143.304      -43.120        0.057       41.170       53.985       26.187     1694.958     2914.372      685.753        1.384        0.265      149.651       23.014        0.024      339.249       12.452      858.759
04/19/2014  03:43:00     -177.763      -35.803      -11.551       56.273       59.862       28.161     3166.676     3583.487      793.014        2.028        0.377      181.333       26.619        0.022      339.345       12.613      858.761
04/19/2014  03:44:00     -168.522      -58.894      -12.442       37.198       52.704       24.526     1383.676     2777.660      601.524        1.839        0.238      178.517       17.481        0.010      339.370       12.655      858.763
04/19/2014  03:45:00     -152.294      -43.593       -1.628       45.185       33.866       25.052     2041.643     1146.900      627.615        1.446        0.191      158.411       20.169        0.016      339.341       12.607      858.766
04/19/2014  03:46:00     -128.807      -28.135       -2.903       69.603       46.175       33.854     4844.590     2132.115     1146.087        1.276        0.406      131.844       35.556        0.073      339.353       12.627      858.755
04/19/2014  03:47:00     -142.044      -12.104       -5.159       63.611       53.212       33.117     4046.386     2831.505     1096.727        1.416        0.399      142.559       29.059        0.042      339.377       12.668      858.751
04/19/2014  03:48:00     -133.875      -27.242      -10.858       39.799       37.037       27.275     1583.951     1371.713      743.938        1.124        0.185      136.619       12.670        0.009      339.501       12.878      858.743
04/19/2014  03:49:00     -132.356      -65.326      -11.558       50.443       25.625       24.726     2544.503      656.648      611.394        1.287        0.191      147.599       21.271        0.021      339.470       12.825      858.750
04/19/2014  03:50:00     -138.730      -43.190       -7.186       55.976       58.089       29.612     3133.280     3374.297      876.884        1.427        0.369      145.297       25.919        0.032      339.391       12.691      858.762
04/19/2014  03:51:00     -183.373      -54.206       -5.428       56.611       45.711       25.494     3204.823     2089.493      649.927        2.127        0.297      191.217       22.383        0.014      339.454       12.796      858.753
04/19/2014  03:52:00     -169.744      -43.181       -1.076       72.770       66.488       31.522     5295.427     4420.611      993.613        2.069        0.535      175.150       34.034        0.038      339.428       12.752      858.743
04/19/2014  03:53:00     -154.795      -55.809       -2.669       36.002       37.844       20.893     1296.178     1432.184      436.520        1.512        0.158      164.549       18.134        0.012      339.411       12.725      858.728
04/19/2014  03:54:00     -150.985      -29.132       -7.150       46.294       35.005       20.162     2143.164     1225.370      406.524        1.373        0.189      153.770       16.013        0.011      339.388       12.686      858.720
04/19/2014  03:55:00      -95.523      -65.453        3.889       40.716       41.564       26.445     1657.827     1727.551      699.350        0.875        0.204      115.797       19.169        0.027      339.374       12.664      858.704
04/19/2014  03:56:00     -126.747      -92.775       -8.056       43.386       37.838       26.891     1882.320     1431.700      723.150        1.439        0.202      157.073       18.237        0.013      339.332       12.592      858.685
04/19/2014  03:57:00     -145.994      -74.264      -10.098       60.836       46.383       31.514     3701.048     2151.382      993.118        1.689        0.342      163.797       30.404        0.034      339.376       12.666      858.676
04/19/2014  03:58:00     -142.509      -32.677        2.138       60.653       45.424       29.900     3678.771     2063.377      893.995        1.401        0.332      146.208       31.561        0.047      339.315       12.562      858.669
04/19/2014  03:59:00     -120.083      -17.124       -1.241       59.329       30.865       25.739     3519.914      952.638      662.476        0.992        0.257      121.298       29.469        0.059      339.313       12.560      858.655
04/19/2014  04:00:00     -162.914      -36.675       -9.924       27.966       41.313       23.804      782.080     1706.784      566.608        1.552        0.153      166.991       16.755        0.010      339.298       12.535      858.652
04/19/2014  04:01:00     -167.604      -45.695       -4.063       56.418       44.752       29.034     3182.946     2002.743      842.969        1.811        0.301      173.721       31.638        0.033      339.226       12.413      858.643
04/19/2014  04:02:00     -126.927      -36.972       -4.122       42.133       48.045       29.458     1775.168     2308.316      867.803        1.122        0.248      132.202       19.701        0.022      339.212       12.390      858.640
04/19/2014  04:03:00     -152.669      -44.522       -8.519       47.398       50.561       28.164     2246.538     2556.463      793.207        1.548        0.280      159.029       27.687        0.030      339.284       12.512      858.634
04/19/2014  04:04:00      -85.139      -58.595       -0.500       50.675       45.598       29.477     2567.930     2079.166      868.887        0.810        0.276      103.354       28.733        0.077      339.343       12.611      858.625
04/19/2014  04:05:00      -54.532      -17.992       10.170       72.601       32.197       28.381     5270.939     1036.663      805.486        0.526        0.356       57.423       36.689        0.408      339.279       12.503      858.619
04/19/2014  04:06:00      -35.199      -42.753        1.920       53.596       30.267       24.775     2872.584      916.074      613.786        0.374        0.220       55.378       16.694        0.091      339.343       12.610      858.614
04/19/2014  04:07:00      -60.523      -75.095       -3.491       43.278       29.038       19.788     1872.945      843.199      391.583        0.621        0.155       96.449       16.010        0.028      339.277       12.500      858.618
04/19/2014  04:08:00      -35.818      -40.713       -7.532       16.973       16.891       11.434      288.078      285.315      130.735        0.185        0.035       54.226        5.926        0.012      339.249       12.452      858.617
04/19/2014  04:09:00       -9.156      -20.505        4.335       22.472       26.555       11.567      504.970      705.188      133.792        0.093        0.067       22.456       10.405        0.215      339.258       12.468      858.620
04/19/2014  04:10:00      -28.934      -63.243        4.686       38.707       33.905       32.767     1498.244     1149.544     1073.678        0.429        0.186       69.548       21.721        0.098      339.121       12.238      858.633
04/19/2014  04:11:00      -51.129      -73.719       -3.352       44.264       53.959       20.106     1959.294     2911.558      404.269        0.667        0.264       89.714       16.175        0.033      339.033       12.091      858.647
04/19/2014  04:12:00      -20.454      -52.294       -0.743       29.646       48.328       18.938      878.886     2335.568      358.659        0.336        0.179       56.152       26.137        0.217      338.994       12.023      858.657
04/19/2014  04:13:00      -59.922      -45.847        5.727       29.054       20.809       18.770      844.147      433.032      352.304        0.368        0.081       75.449       17.976        0.057      338.975       11.993      858.668
04/19/2014  04:14:00      -64.158      -45.202        0.945       48.098       17.647       16.718     2313.413      311.406      279.497        0.453        0.145       78.483        9.235        0.014      338.942       11.937      858.680
04/19/2014  04:15:00      -56.330      -40.996       -3.820       21.468       22.089       16.619      460.858      487.913      276.204        0.305        0.061       69.669       12.570        0.033      338.927       11.911      858.707
04/19/2014  04:16:00      -82.617      -66.118       -8.688       36.840       41.062       22.860     1357.194     1686.073      522.562        0.742        0.178      105.817       18.680        0.031      338.889       11.847      858.736
04/19/2014  04:17:00      -77.122      -84.124       -7.947       42.248       33.535       24.055     1784.927     1124.575      578.640        0.829        0.174      114.125       19.390        0.029      338.832       11.752      858.743
04/19/2014  04:18:00      -84.554      -73.079       -4.677       46.310       25.658       19.281     2144.651      658.344      371.740        0.784        0.159      111.758       14.600        0.017      338.825       11.740      858.753
04/19/2014  04:19:00      -51.976      -45.693        7.507       48.445       29.859       22.324     2346.925      891.539      498.366        0.429        0.187       69.205       24.371        0.124      338.742       11.601      858.761
04/19/2014  04:20:00     -121.209      -55.517      -10.164       36.038       23.916       19.784     1298.728      571.962      391.414        1.007        0.113      133.318       16.456        0.015      338.752       11.617      858.777
04/19/2014  04:21:00      -63.933      -37.929        0.421       40.336       22.639       21.873     1626.986      512.506      478.410        0.407        0.131       74.337       16.823        0.051      338.709       11.545      858.793
04/19/2014  04:22:00      -56.299      -79.653       -6.942       20.888       20.267       13.190      436.324      410.769      173.988        0.529        0.051       97.540        5.318        0.003      338.728       11.577      858.792
04/19/2014  04:23:00      -14.738      -16.990        9.882       16.719       28.019       16.720      279.537      785.065      279.544        0.097        0.067       22.492       12.981        0.333      338.788       11.678      858.791
04/19/2014  04:24:00      -40.672      -12.855       -1.493       28.908       18.535       15.428      835.686      343.540      238.021        0.162        0.071       42.655       13.665        0.103      338.793       11.686      858.799
04/19/2014  04:25:00      -30.724      -51.706        2.789       31.328       22.036       22.500      981.419      485.578      506.255        0.280        0.099       60.145       17.094        0.081      338.829       11.745      858.817
04/19/2014  04:26:00      -82.300      -96.267        0.339       54.112       33.923       26.673     2928.096     1150.738      711.427        1.041        0.240      126.651       21.277        0.028      338.750       11.614      858.826
04/19/2014  04:27:00      -33.439      -96.620        1.898       43.519       44.952       21.926     1893.896     2020.649      480.729        0.743        0.220      102.242       17.399        0.029      338.743       11.604      858.826
04/19/2014  04:28:00      -53.532      -62.359        1.832       44.498       23.326       22.887     1980.114      544.116      523.798        0.490        0.152       82.185       22.579        0.075      338.722       11.568      858.842
04/19/2014  04:29:00      -92.315      -88.652       -5.382       27.543       33.072       20.055      758.633     1093.785      402.214        0.933        0.113      127.990       14.976        0.014      338.717       11.559      858.860
04/19/2014  04:30:00      -81.275      -68.595       -8.021       41.919       22.251       19.625     1757.237      495.091      385.129        0.701        0.132      106.353       15.896        0.022      338.704       11.536      858.863
04/19/2014  04:31:00     -100.754      -41.951       -8.034       25.840       22.440       16.527      667.706      503.565      273.154        0.671        0.072      109.139       15.608        0.020      338.635       11.419      858.872
04/19/2014  04:32:00      -68.211       -2.290       -5.333       16.565       17.350       13.588      274.391      301.016      184.628        0.272        0.038       68.249        8.879        0.017      338.506       11.203      858.884
04/19/2014  04:33:00      -71.240      -11.991       -7.698       16.138       11.663       10.471      260.449      136.026      109.647        0.289        0.025       72.242        8.981        0.015      338.492       11.179      858.883
04/19/2014  04:34:00      -68.308      -12.991       -5.142       20.852       19.823       12.477      434.794      392.937      155.681        0.292        0.049       69.532       10.400        0.022      338.458       11.123      858.880
04/19/2014  04:35:00      -44.434       -1.557       -1.921       25.545       13.582       13.539      652.563      184.478      183.316        0.150        0.051       44.461       13.836        0.097      338.456       11.120      858.872
04/19/2014  04:36:00      -24.230      -24.124       -0.838       33.681       15.985       11.459     1134.389      255.506      131.313        0.135        0.076       34.191       12.469        0.133      338.621       11.396      858.870
04/19/2014  04:37:00      -24.200       -7.176        7.885       17.968        8.263       10.239      322.849       68.283      104.837        0.060        0.025       25.242       11.662        0.213      338.556       11.288      858.868
04/19/2014  04:38:00      -36.235       -5.694       -7.943       12.796        9.860        7.168      163.741       97.221       51.385        0.086        0.016       36.680        5.391        0.022      338.485       11.168      858.863
04/19/2014  04:39:00      -10.725       -1.620        9.093       16.876        8.899        8.081      284.814       79.189       65.295        0.031        0.021       10.847        9.912        0.835      338.440       11.092      858.877
04/19/2014  04:40:00      -49.167      -18.700       -1.193       30.551       11.855        7.980      933.393      140.544       63.688        0.195        0.057       52.603        9.934        0.036      338.431       11.078      858.886
04/19/2014  04:41:00      -45.715        4.606       -0.569       30.168       19.967       11.899      910.088      398.682      141.588        0.178        0.073       45.947       13.981        0.093      338.391       11.009      858.886
04/19/2014  04:42:00      -62.635       -8.509       -1.464       22.654       23.374       12.544      513.183      546.329      157.363        0.261        0.061       63.210       14.597        0.053      338.438       11.090      858.869
04/19/2014  04:43:00      -71.348      -58.496       -8.866       41.093       21.166       11.525     1688.631      448.007      132.827        0.543        0.113       92.262       11.392        0.015      338.657       11.459      858.863
04/19/2014  04:44:00      -71.724      -90.230        1.016       45.260       56.918       23.053     2048.507     3239.693      531.443        0.955        0.291      115.264       26.573        0.053      338.613       11.382      858.872
04/19/2014  04:45:00      -76.982      -99.022        3.809       44.215       50.187       24.102     1954.933     2518.723      580.914        1.040        0.253      125.425       31.332        0.062      338.575       11.319      858.861
04/19/2014  04:46:00     -117.416     -116.904       -5.758       57.497       41.818       26.353     3305.875     1748.720      694.460        1.662        0.287      165.689       24.434        0.022      338.571       11.311      858.840
04/19/2014  04:47:00      -78.110     -143.175       -1.238       50.323       52.690       22.788     2532.357     2776.216      519.314        1.621        0.291      163.096       25.051        0.024      338.581       11.330      858.842
04/19/2014  04:48:00      -88.261     -117.619        3.440       57.851       66.535       34.015     3346.721     4426.861     1157.025        1.528        0.447      147.051       35.489        0.058      338.554       11.282      858.833
04/19/2014  04:49:00      -98.473      -63.844        2.167       67.561       57.608       32.948     4564.441     3318.734     1085.589        1.137        0.448      117.358       29.253        0.062      338.532       11.248      858.825
04/19/2014  04:50:00      -45.083      -97.587       -5.427       72.298       53.315       33.920     5226.967     2842.459     1150.595        1.040        0.461      107.498       28.321        0.069      338.661       11.464      858.814
04/19/2014  04:51:00     -102.271     -108.210        3.641       72.073       75.890       34.065     5194.522     5759.321     1160.446        1.715        0.606      148.892       42.308        0.081      338.635       11.419      858.819
04/19/2014  04:52:00     -139.685     -105.616        1.586       74.435       58.549       34.622     5540.573     3428.022     1198.683        2.042        0.508      175.119       30.468        0.030      338.626       11.403      858.826
04/19/2014  04:53:00     -107.760     -106.092        4.758       79.175       93.555       46.289     6268.625     8752.446     2142.711        2.002        0.858      151.221       50.274        0.111      338.760       11.629      858.810
04/19/2014  04:54:00     -160.329     -167.393        0.758       80.975       80.617       50.513     6556.901     6499.128     2551.550        3.466        0.780      231.789       48.382        0.044      338.917       11.891      858.781
04/19/2014  04:55:00     -232.241     -105.690       -9.131      103.323       73.940       51.685    10675.726     5467.105     2671.322        4.200        0.941      255.159       47.469        0.035      338.911       11.881      858.780
04/19/2014  04:56:00     -173.548     -142.287        0.525       96.075      106.274       43.565     9230.478    11294.265     1897.929        3.639        1.121      224.421       50.484        0.051      338.863       11.799      858.777
04/19/2014  04:57:00     -124.021     -122.281       -4.628       75.452       57.933       41.781     5692.966     3356.196     1745.653        2.057        0.540      174.166       42.230        0.059      338.837       11.758      858.757
04/19/2014  04:58:00     -171.322      -91.865       -9.908       80.676       67.238       38.482     6508.582     4520.928     1480.837        2.520        0.626      194.397       47.055        0.059      338.836       11.755      858.765
04/19/2014  04:59:00     -162.434     -110.833       -9.143       81.790       57.896       40.635     6689.620     3351.976     1651.241        2.522        0.585      196.644       33.675        0.029      338.792       11.683      858.764
04/19/2014  05:00:00      -98.228     -106.434       -1.911       55.630       68.504       32.316     3094.751     4692.828     1044.315        1.490        0.442      144.834       23.544        0.026      338.798       11.695      858.767
04/19/2014  05:01:00     -138.901     -116.237       -5.869       65.476       62.855       39.319     4287.072     3950.810     1546.011        2.131        0.489      181.120       38.973        0.046      338.709       11.543      858.777
04/19/2014  05:02:00     -128.282     -112.122      -10.829       46.239       48.362       27.128     2138.044     2338.916      735.930        1.718        0.261      170.375       18.676        0.012      338.709       11.544      858.780
04/19/2014  05:03:00     -132.643      -82.513       -5.067       67.003       44.436       31.575     4489.358     1974.526      996.998        1.594        0.373      156.213       30.498        0.038      338.673       11.483      858.782
04/19/2014  05:04:00      -65.078      -64.017       -4.450       39.947       33.157       22.116     1595.762     1099.398      489.110        0.577        0.159       91.288       19.186        0.044      338.679       11.494      858.791
04/19/2014  05:05:00      -56.787       -8.248       -0.111       22.529       28.054       14.942      507.557      787.014      223.274        0.241        0.076       57.383       11.174        0.038      338.578       11.324      858.786
04/19/2014  05:06:00     -102.448       11.770      -13.238       36.396       33.724       16.995     1324.679     1137.294      288.846        0.678        0.138      103.122       19.817        0.037      338.493       11.183      858.779
04/19/2014  05:07:00     -127.906       49.966      -20.287       34.891       32.235       18.088     1217.390     1039.087      327.180        1.093        0.129      137.319       14.560        0.011      338.417       11.054      858.781
04/19/2014  05:08:00      -70.168       62.994      -14.686       31.910       36.906       22.738     1018.234     1362.063      517.030        0.600        0.145       94.296       24.779        0.069      338.348       10.939      858.762
04/19/2014  05:09:00      -51.792      -50.058        4.039       33.786       27.915       17.171     1141.527      779.252      294.842        0.371        0.111       72.029       16.048        0.050      338.440       11.092      858.752
04/19/2014  05:10:00      -12.744      -63.951        2.427       42.141       30.860       22.298     1775.833      952.312      497.187        0.374        0.161       65.208       22.743        0.122      338.459       11.125      858.749
04/19/2014  05:11:00      -10.656      -67.474       11.910       35.085       26.822       25.190     1230.969      719.419      634.540        0.370        0.129       68.310       17.549        0.066      338.534       11.250      858.738
04/19/2014  05:12:00      -47.104      -88.541       -0.048       20.697       28.299       15.564      428.378      800.855      242.239        0.576        0.074      100.291       10.847        0.012      338.630       11.411      858.738
04/19/2014  05:13:00      -63.709      -21.653       -3.493       23.501       29.952       12.856      552.306      897.148      165.279        0.308        0.081       67.288        6.904        0.011      338.622       11.399      858.747
04/19/2014  05:14:00      -27.391        3.817        3.454       21.705       22.431       22.610      471.092      503.134      511.213        0.113        0.074       27.655       11.517        0.173      338.550       11.279      858.747
04/19/2014  05:15:00       -0.199      -63.173        2.082       37.067       28.789       22.651     1373.986      828.826      513.086        0.336        0.136       63.173       10.062        0.025      338.594       11.352      858.754
04/19/2014  05:16:00      -68.517      -10.355      -12.131       22.164       18.819       11.905      491.221      354.150      141.720        0.297        0.049       69.295        7.199        0.011      338.618       11.388      858.762
04/19/2014  05:17:00      -34.915      -24.274       -8.168       18.120       24.948       14.955      328.347      622.404      223.658        0.152        0.059       42.524       13.389        0.099      338.608       11.375      858.765
04/19/2014  05:18:00      -28.711        0.016       -1.382       15.447       18.426       17.602      238.625      339.501      309.839        0.086        0.044       28.711       13.049        0.207      338.586       11.337      858.771
04/19/2014  05:19:00      -17.953      -36.539       -3.765       21.666       23.284       12.560      469.426      542.148      157.763        0.142        0.058       40.711        9.797        0.058      338.626       11.405      858.779
04/19/2014  05:20:00      -29.863      -14.311       11.839       27.921       19.386       13.524      779.580      375.809      182.906        0.129        0.067       33.115       12.964        0.153      338.627       11.406      858.795
04/19/2014  05:21:00      -17.362      -47.881       11.279       39.941       33.728       31.873     1595.267     1137.563     1015.907        0.323        0.187       50.932       17.392        0.117      338.621       11.395      858.809
04/19/2014  05:22:00      -71.880      -60.777        3.568       50.065       41.762       27.263     2506.469     1744.092      743.267        0.693        0.250       94.131       22.246        0.056      338.635       11.421      858.821
04/19/2014  05:23:00      -66.187      -52.359        1.680       59.958       35.564       27.557     3594.982     1264.805      759.375        0.637        0.281       84.393       17.765        0.044      338.587       11.340      858.824
04/19/2014  05:24:00     -102.830      -48.924       -3.438       41.469       40.711       22.850     1719.647     1657.358      522.135        0.844        0.195      113.875        9.144        0.006      338.616       11.387      858.835
04/19/2014  05:25:00      -44.348       -8.810      -11.628       29.146       21.050       24.036      849.478      443.096      577.719        0.202        0.094       45.215        5.362        0.014      338.515       11.218      858.835
04/19/2014  05:26:00      -52.642      -37.226       -7.188       31.669       32.249       29.945     1002.895     1039.979      896.686        0.357        0.147       64.475        7.331        0.013      338.681       11.496      858.813
04/19/2014  05:27:00      -33.358      -53.462        8.544       56.180       33.605       26.398     3156.235     1129.294      696.861        0.451        0.249       63.016       16.095        0.065      338.623       11.399      858.818
04/19/2014  05:28:00      -94.393      -99.455       -9.321       79.853       55.304       29.152     6376.540     3058.574      849.853        1.458        0.514      137.118       21.704        0.025      338.490       11.176      858.841
04/19/2014  05:29:00       10.985      -25.263       13.315       26.111       52.413       19.142      681.761     2747.152      366.434        0.236        0.190       27.548       16.490        0.358      338.534       11.251      858.806
04/19/2014  05:30:00      -69.054       -6.466       -4.250       49.549       33.559       17.944     2455.146     1126.174      321.992        0.437        0.195       69.356       13.776        0.039      338.576       11.320      858.801
04/19/2014  05:31:00      -72.050     -111.598       -7.330       62.408       48.918       24.429     3894.775     2392.943      596.791        1.229        0.344      132.836       17.921        0.018      338.498       11.189      858.848
04/19/2014  05:32:00      -42.940       -7.689        6.997       26.495       19.679       23.267      701.990      387.259      541.363        0.179        0.082       43.623       13.831        0.101      338.407       11.037      858.835
04/19/2014  05:33:00      -11.102       -9.378        2.898       42.902       31.451       18.964     1840.565      989.185      359.617        0.170        0.159       14.533       19.553        1.810      338.397       11.020      858.813
04/19/2014  05:34:00      -59.094      -22.228       -8.024       42.843       36.381       20.443     1835.513     1323.554      417.909        0.381        0.179       63.136       20.103        0.101      338.421       11.061      858.829
04/19/2014  05:35:00      -36.088      -26.945       -0.396       54.485       40.277       28.235     2968.561     1622.272      797.227        0.371        0.269       45.038       22.454        0.249      338.380       10.992      858.838
04/19/2014  05:36:00      -44.057       13.086       -4.548       33.506       17.952       15.045     1122.640      322.276      226.347        0.190        0.084       45.959        5.476        0.014      338.400       11.024      858.828
04/19/2014  05:37:00      -30.782       27.026       18.375       26.945       18.330       16.276      726.020      335.972      264.909        0.167        0.066       40.963       13.245        0.105      338.423       11.064      858.815
04/19/2014  05:38:00      -29.182      -13.162        1.716       23.825       17.406       10.721      567.615      302.976      114.930        0.101        0.049       32.013       12.131        0.144      338.390       11.009      858.809
04/19/2014  05:39:00       13.515      -30.718       -5.770       25.677       35.829       20.978      659.333     1283.734      440.057        0.177        0.119       33.559       21.301        0.403      338.467       11.137      858.817
04/19/2014  05:40:00      -48.874       27.105       -6.559       27.194       27.370       20.058      739.494      749.119      402.315        0.253        0.095       55.887       17.033        0.093      338.394       11.016      858.852
04/19/2014  05:41:00       75.519       62.734       -2.716       52.067       30.215       22.450     2710.956      912.948      503.995        0.689        0.206       98.177       28.144        0.082      338.279       10.822      858.847
04/19/2014  05:42:00       65.168       36.659       29.439       57.727       35.437       35.412     3332.419     1255.770     1253.994        0.615        0.292       74.772       25.193        0.114      338.222       10.725      858.832
04/19/2014  05:43:00       72.175       48.319       34.077       27.050       18.343       24.626      731.701      336.481      606.421        0.519        0.084       86.856       12.071        0.019      338.223       10.729      858.845
04/19/2014  05:44:00      -65.262       20.480      -11.385       55.212       19.264       16.433     3048.368      371.107      270.050        0.425        0.184       68.400       17.647        0.067      338.234       10.748      858.886
04/19/2014  05:45:00      -56.196       25.300       -5.849       36.221       18.507       17.202     1311.988      342.503      295.921        0.289        0.098       61.629       17.796        0.083      338.148       10.603      858.914
04/19/2014  05:46:00       98.909       66.941       15.733       50.120       33.857       21.474     2512.039     1146.278      461.150        0.931        0.206      119.433       22.195        0.035      338.264       10.796      858.871
04/19/2014  05:47:00       23.432       48.749       48.292       52.242       34.310       26.392     2729.184     1177.153      696.539        0.493        0.230       54.088       15.109        0.078      338.219       10.722      858.858
04/19/2014  05:48:00      -20.525       -6.619       -5.186       35.912       35.217       24.430     1289.704     1240.231      596.815        0.181        0.156       21.565       19.198        0.793      338.281       10.825      858.905
04/19/2014  05:49:00      -33.169      -21.018       -4.136       24.644       20.092        8.967      607.338      403.685       80.400        0.133        0.055       39.267        7.972        0.041      338.373       10.980      858.928
04/19/2014  05:50:00       56.058       45.730        0.595       52.231       23.587       15.405     2728.084      556.326      237.321        0.438        0.176       72.345       19.292        0.071      338.262       10.795      858.929
04/19/2014  05:51:00      131.522      100.984       41.368       67.926       44.739       50.675     4613.997     2001.561     2567.922        1.919        0.459      165.818       37.433        0.051      338.245       10.763      858.903
04/19/2014  05:52:00       -2.971       39.460       62.155       13.780       34.712       26.950      189.879     1204.890      726.312        0.377        0.106       39.572       20.795        0.276      338.249       10.773      858.953
04/19/2014  05:53:00        9.684       23.456       35.391       27.431       25.728       18.597      752.483      661.951      345.842        0.183        0.088       25.376       12.621        0.247      338.244       10.763      858.981
04/19/2014  05:54:00       35.960       -4.872       25.079       33.228       56.809       34.938     1104.121     3227.221     1220.695        0.375        0.278       36.289       32.160        0.785      338.259       10.789      858.992
04/19/2014  05:55:00       79.810     -103.219       -5.453       62.136       72.661       43.179     3860.824     5279.568     1864.389        1.403        0.550      130.475       30.145        0.053      338.196       10.681      858.988
04/19/2014  05:56:00      115.576     -145.439      -21.475       51.927       55.732       38.578     2696.453     3106.044     1488.248        2.113        0.365      185.770       31.184        0.028      338.329       10.905      859.017
04/19/2014  05:57:00       88.462     -150.260      -33.041       46.504       37.825       26.909     2162.629     1430.748      724.115        1.791        0.216      174.366       27.504        0.025      338.219       10.718      859.071
04/19/2014  05:58:00       65.577      -94.892        6.430       35.651       47.398       27.511     1271.016     2246.583      756.841        0.881        0.214      115.347       27.492        0.057      338.172       10.644      859.109
04/19/2014  05:59:00       26.798      -53.216        3.079       46.982       56.653       35.657     2207.279     3209.609     1271.398        0.512        0.334       59.582       28.049        0.222      338.004       10.361      859.101
04/19/2014  06:00:00       -9.790      -29.511       -2.880       27.376       35.592       27.024      749.437     1266.808      730.312        0.186        0.137       31.092       16.326        0.276      337.981       10.322      859.135
04/19/2014  06:01:00      -20.354       20.487       -0.688       16.243       42.217       16.072      263.833     1782.296      258.312        0.157        0.115       28.879       17.943        0.386      338.037       10.418      859.176
04/19/2014  06:02:00       93.682       75.997       23.014       39.799       25.124       29.433     1583.956      631.232      866.329        0.908        0.154      120.631       21.444        0.032      338.091       10.507      859.162
04/19/2014  06:03:00      123.573       68.986        3.793       46.480       39.974       30.094     2160.414     1597.898      905.678        1.235        0.233      141.525       15.942        0.013      338.066       10.465      859.156
04/19/2014  06:04:00       89.360       51.038       14.868       36.711       28.940       19.836     1347.726      837.543      393.470        0.669        0.129      102.908       12.565        0.015      337.969       10.303      859.187
04/19/2014  06:05:00        8.092      -25.381        2.813       15.940       25.243       16.545      254.068      637.188      273.752        0.094        0.058       26.640       16.777        0.397      337.956       10.280      859.212
04/19/2014  06:06:00       18.189      -20.009        5.354       29.388       43.423       30.875      863.663     1885.570      953.296        0.223        0.185       27.041       33.029        1.492      338.103       10.528      859.219
04/19/2014  06:07:00        0.514       31.988       67.245       26.776       44.783       31.257      716.966     2005.495      977.017        0.462        0.185       31.992       26.981        0.711      337.971       10.305      859.192
04/19/2014  06:08:00        2.098       55.854       85.356       34.342       49.160       31.341     1179.377     2416.754      982.262        0.749        0.229       55.893       21.299        0.145      337.985       10.331      859.167
04/19/2014  06:09:00       13.607     -113.563        1.899       32.023       47.888       34.094     1025.443     2293.218     1162.367        0.878        0.224      114.375       30.304        0.070      338.117       10.551      859.219
04/19/2014  06:10:00       32.548      -30.554       11.338       27.253       60.705       20.913      742.716     3685.099      437.364        0.349        0.243       44.642       18.610        0.174      338.112       10.543      859.249
04/19/2014  06:11:00       11.193       44.564       39.677       41.389       31.846       33.999     1713.057     1014.189     1155.962        0.378        0.194       45.948       17.767        0.150      337.936       10.248      859.205
04/19/2014  06:12:00      -34.168        5.451       26.786       50.921       53.701       27.122     2592.940     2883.750      735.630        0.406        0.311       34.600       28.703        0.688      337.978       10.318      859.225
04/19/2014  06:13:00     -102.823       10.081      -15.556       42.664       34.948       25.268     1820.252     1221.366      638.485        0.730        0.184      103.316       22.063        0.046      337.882       10.155      859.282
04/19/2014  06:14:00       31.872       80.139        5.950       80.622       36.441       29.085     6499.859     1327.954      845.932        0.807        0.434       86.244       36.803        0.182      338.033       10.409      859.260
04/19/2014  06:15:00      158.481      103.076       24.260       58.235       36.921       35.806     3391.305     1363.183     1282.096        2.118        0.302      189.053       16.283        0.007      338.108       10.533      859.205
04/19/2014  06:16:00       50.290       54.056       48.500       37.537       34.986       28.580     1409.045     1223.996      816.834        0.563        0.172       73.832       19.513        0.070      338.002       10.358      859.234
04/19/2014  06:17:00        3.928      -10.820        6.268       16.498       22.699       24.797      272.191      515.261      614.915        0.079        0.070       11.511       20.467        3.162      338.071       10.473      859.263
04/19/2014  06:18:00        3.703      -34.062      -11.447       22.703       30.149       16.052      515.438      908.958      257.653        0.149        0.084       34.263       12.285        0.129      338.100       10.522      859.280
04/19/2014  06:19:00       43.395        9.415       19.082       35.060       39.812       22.217     1229.229     1585.001      493.574        0.282        0.165       44.405       23.015        0.269      338.136       10.582      859.285
04/19/2014  06:20:00       44.477       26.403        8.923       26.422       22.177       20.687      698.109      491.822      427.933        0.219        0.081       51.723       11.722        0.051      338.122       10.559      859.290
04/19/2014  06:21:00        1.008       14.226       16.572       20.848       21.146       17.879      434.658      447.153      319.645        0.084        0.060       14.262        9.459        0.440      338.075       10.480      859.283
04/19/2014  06:22:00       61.673       43.781       27.273       63.298       30.055       30.215     4006.692      903.328      912.950        0.614        0.291       75.633       32.935        0.190      338.088       10.503      859.258
04/19/2014  06:23:00      131.262       69.075       16.015       27.017       24.883       23.307      729.901      619.155      543.221        1.207        0.095      148.327       14.807        0.010      338.000       10.353      859.260
04/19/2014  06:24:00      128.535       60.816        7.123       39.202       32.374       23.608     1536.832     1048.100      557.358        1.171        0.157      142.196       14.873        0.011      337.952       10.274      859.304
04/19/2014  06:25:00       37.477       36.126       26.614       39.640       28.844       26.806     1571.350      831.954      718.568        0.327        0.156       52.054       18.072        0.121      337.925       10.226      859.342
04/19/2014  06:26:00       22.333       13.880       33.766       23.063       39.076       20.319      531.913     1526.895      412.864        0.215        0.124       26.295       21.781        0.686      337.871       10.137      859.368
04/19/2014  06:27:00       18.121       17.405       35.446       30.876       37.381       20.164      953.297     1397.341      406.572        0.232        0.138       25.126       17.890        0.507      337.842       10.090      859.385
04/19/2014  06:28:00       11.639      -30.008       17.089       25.617       43.453       23.531      656.233     1888.185      553.699        0.221        0.155       32.186       25.243        0.615      337.835       10.077      859.405
04/19/2014  06:29:00       57.562       48.340       14.032       24.984       22.869       20.373      624.192      522.985      415.077        0.370        0.078       75.168        7.864        0.011      337.822       10.056      859.392
04/19/2014  06:30:00       81.631       55.234        3.406       22.154       24.345       14.955      490.787      592.687      223.650        0.552        0.065       98.562       11.650        0.014      337.731        9.905      859.368
04/19/2014  06:31:00       64.756       45.958       17.415       23.387       19.593       21.248      546.951      383.869      451.493        0.400        0.069       79.407       15.251        0.037      337.675        9.810      859.370
04/19/2014  06:32:00       45.513       28.045        9.333       21.768       16.323       13.673      473.828      266.441      186.939        0.194        0.046       53.460        5.679        0.011      337.644        9.758      859.404
04/19/2014  06:33:00       58.798       37.625       15.453       29.887       17.702       17.371      893.258      313.376      301.752        0.331        0.075       69.805       12.237        0.031      337.678        9.815      859.415
04/19/2014  06:34:00       57.203       49.358       15.690       17.631       18.467       16.576      310.845      341.026      274.747        0.344        0.046       75.554       13.101        0.030      337.690        9.834      859.414
04/19/2014  06:35:00       59.734       47.605        9.775       25.054       17.651       15.162      627.704      311.542      229.881        0.355        0.058       76.383       11.740        0.024      337.692        9.838      859.406
04/19/2014  06:36:00       77.006       52.744        8.179       21.024       14.135       13.307      442.015      199.809      177.085        0.480        0.041       93.337        9.276        0.010      337.727        9.897      859.396
04/19/2014  06:37:00       13.892        5.300        6.381       17.645       14.519       12.375      311.336      210.803      153.136        0.047        0.034       14.869        7.850        0.279      337.687        9.830      859.400
04/19/2014  06:38:00       -5.782       33.889       -6.920       12.973       23.479        9.569      168.292      551.241       91.574        0.102        0.041       34.379       10.963        0.102      337.757        9.947      859.411
04/19/2014  06:39:00        8.739       40.940       -5.081       11.213       13.870        7.412      125.728      192.363       54.940        0.108        0.019       41.862        5.955        0.020      337.826       10.063      859.402
04/19/2014  06:40:00      -22.114        7.117        0.368       11.141        9.575        9.582      124.112       91.689       91.809        0.042        0.015       23.231        4.403        0.036      337.786        9.997      859.409
04/19/2014  06:41:00        4.054        9.733        7.923       26.320       12.710       11.584      692.734      161.543      134.183        0.058        0.049       10.544       14.059        1.778      337.798       10.015      859.411
04/19/2014  06:42:00       69.025       43.911        8.670       18.177       19.246       13.742      330.387      370.403      188.856        0.383        0.044       81.809        7.862        0.009      337.831       10.071      859.387
04/19/2014  06:43:00       43.427       33.322       17.160       33.961       14.111       13.885     1153.361      199.131      192.787        0.242        0.077       54.738       14.954        0.075      337.774        9.977      859.368
04/19/2014  06:44:00      -32.070        4.584       -1.767        8.776       13.378        9.040       77.018      178.980       81.714        0.070        0.017       32.396        4.982        0.024      337.769        9.967      859.371
04/19/2014  06:45:00      -35.266       16.772       -7.593       10.148        8.330        8.005      102.990       69.389       64.073        0.091        0.012       39.051        4.874        0.016      337.828       10.064      859.358
04/19/2014  06:46:00      -33.812        3.707       -1.469       30.442       10.972       13.789      926.690      120.378      190.124        0.120        0.062       34.014       15.057        0.196      337.783        9.992      859.346
04/19/2014  06:47:00      -15.969       38.707       -1.516       22.825       19.770       15.349      520.986      390.866      235.585        0.145        0.057       41.871       16.510        0.155      337.879       10.151      859.331
04/19/2014  06:48:00       22.880       44.436        1.876       18.501       17.802       11.470      342.275      316.903      131.557        0.165        0.040       49.981       12.339        0.061      338.007       10.367      859.342
04/19/2014  06:49:00      -11.302       56.988       -3.581       12.123       21.041       10.199      146.974      442.706      104.013        0.204        0.035       58.098       10.121        0.030      338.077       10.483      859.390
04/19/2014  06:50:00       -3.841       16.951       -4.891       15.110       14.387        7.233      228.321      206.988       52.313        0.041        0.024       17.381        6.959        0.160      338.006       10.365      859.460
04/19/2014  06:51:00       -1.225      -31.805       -1.763       18.559       19.357       18.416      344.423      374.681      339.164        0.104        0.053       31.829        6.749        0.045      337.998       10.351      859.509
04/19/2014  06:52:00       20.460       16.598       14.081       19.829       16.717       10.954      393.189      279.459      119.992        0.084        0.040       26.346        7.829        0.088      337.895       10.178      859.532
04/19/2014  06:53:00       55.406       35.010       -1.405       10.003       13.380       11.474      100.064      179.024      131.662        0.235        0.021       65.540        7.103        0.012      337.891       10.172      859.553
04/19/2014  06:54:00       50.965       32.994        0.586        9.997       10.325        8.211       99.945      106.604       67.425        0.198        0.014       60.712        7.147        0.014      337.917       10.214      859.567
04/19/2014  06:55:00       58.993       37.066        3.283       10.162       11.721        8.964      103.257      137.372       80.361        0.259        0.016       69.671        4.608        0.004      337.933       10.242      859.570
04/19/2014  06:56:00       63.641       58.394       -0.704       21.434       22.789       15.655      459.399      519.324      245.069        0.434        0.061       86.371       11.126        0.017      337.820       10.051      859.557
04/19/2014  06:57:00       63.299       46.726        1.466       41.990       32.724       18.109     1763.136     1070.870      327.935        0.468        0.158       78.677       21.028        0.071      337.770        9.968      859.556
04/19/2014  06:58:00       68.085       44.419       13.718       35.147       24.965       19.800     1235.324      623.274      392.021        0.452        0.113       81.294       10.040        0.015      337.799       10.017      859.579
04/19/2014  06:59:00       96.099       46.678       22.340       16.173       14.518       13.499      261.563      210.773      182.215        0.628        0.033      106.836        7.234        0.005      337.833       10.074      859.606
04/19/2014  07:00:00       77.051       58.087       19.598       22.279       16.657       15.521      496.332      277.445      240.895        0.535        0.051       96.493       12.856        0.018      337.830       10.069      859.634
04/19/2014  07:01:00       60.442       55.143       41.774       22.249       24.843       22.197      495.016      617.196      492.711        0.502        0.080       81.817       13.039        0.025      337.818       10.049      859.652
04/19/2014  07:02:00       67.607       70.980       50.218       32.219       22.196       20.429     1038.059      492.658      417.347        0.704        0.097       98.024       13.625        0.019      337.888       10.167      859.666
04/19/2014  07:03:00       20.631       27.957       36.265       36.245       26.625       20.413     1313.692      708.904      416.675        0.248        0.122       34.746       21.729        0.391      337.893       10.173      859.695
04/19/2014  07:04:00       36.711      -62.546        2.927       45.096       38.071       28.520     2033.693     1449.414      813.404        0.478        0.215       72.524       20.281        0.078      337.949       10.269      859.720
04/19/2014  07:05:00       37.516      -57.096        3.080       25.060       31.514       18.281      628.022      993.102      334.213        0.332        0.098       68.319       10.405        0.023      338.067       10.467      859.732
04/19/2014  07:06:00       19.147      -29.752       10.850       23.912       39.341       19.838      571.800     1547.716      393.550        0.194        0.126       35.381        7.070        0.040      337.997       10.348      859.727
04/19/2014  07:07:00        7.768      -22.708       10.881       19.628       28.187       17.087      385.249      794.497      291.956        0.108        0.074       24.000       12.778        0.283      338.028       10.401      859.719
04/19/2014  07:08:00       24.027      -44.852        7.516       18.756       36.913       20.603      351.803     1362.553      424.475        0.239        0.107       50.883       20.647        0.165      338.152       10.609      859.716
04/19/2014  07:09:00       -9.273      -25.974        2.114       31.867       14.254       11.809     1015.537      203.184      139.455        0.106        0.068       27.580        7.027        0.065      338.167       10.635      859.718
04/19/2014  07:10:00      -47.441       -3.644        6.270       31.839       17.754       13.807     1013.717      315.210      190.629        0.191        0.076       47.581        8.534        0.032      337.992       10.342      859.733
04/19/2014  07:11:00      -73.138       -9.592       -3.424       26.360       22.827       14.655      694.823      521.058      214.769        0.344        0.072       73.764       12.068        0.027      337.889       10.168      859.734
04/19/2014  07:12:00      -60.996      -36.504       -5.277       19.763       18.466       13.122      390.588      341.003      172.191        0.299        0.045       71.085       10.856        0.023      337.967       10.299      859.731
04/19/2014  07:13:00      -21.059      -41.639       14.508       35.238       27.745       16.568     1241.702      769.778      274.483        0.234        0.114       46.661       19.998        0.184      338.136       10.582      859.743
04/19/2014  07:14:00      -11.351      -33.783        7.560       16.167       13.263       11.378      261.384      175.913      129.456        0.095        0.028       35.639       10.366        0.085      338.162       10.626      859.764
04/19/2014  07:15:00       -4.368       -7.276        4.944       17.127       19.583       12.892      293.349      383.501      166.207        0.047        0.042        8.487       11.850        1.949      338.226       10.733      859.778
04/19/2014  07:16:00      -40.461       -4.715       -3.611       29.848       21.822       13.476      890.923      476.206      181.605        0.161        0.077       40.735        6.065        0.022      338.206       10.701      859.804
04/19/2014  07:17:00      -74.761      -49.818       -2.263       38.804       30.843       19.911     1505.773      951.281      396.467        0.546        0.143       89.838       20.608        0.053      338.235       10.749      859.833
04/19/2014  07:18:00      -65.787      -39.224       -4.591       35.499       25.678       16.181     1260.199      659.362      261.827        0.403        0.109       76.593       14.389        0.035      338.246       10.766      859.868
04/19/2014  07:19:00      -66.103      -18.477       -1.004       30.437       19.471       13.001      926.385      379.107      169.020        0.309        0.074       68.637        6.782        0.010      338.236       10.752      859.904
04/19/2014  07:20:00      -75.017      -30.720       -2.862       14.160       17.672       11.602      200.513      312.311      134.617        0.361        0.032       81.063        7.265        0.008      338.244       10.762      859.921
04/19/2014  07:21:00      -62.743        2.058       -8.700       22.042       24.235       10.075      485.833      587.336      101.514        0.260        0.059       62.777       10.937        0.030      338.127       10.568      859.929
04/19/2014  07:22:00      -25.373       47.371       -0.288       28.016       28.265       17.393      784.907      798.937      302.506        0.239        0.094       53.739       17.789        0.110      338.298       10.855      859.927
04/19/2014  07:23:00        7.318       66.661        0.464       17.861       38.559       23.985      319.002     1486.811      575.293        0.344        0.119       67.062       25.168        0.141      338.374       10.982      859.930
04/19/2014  07:24:00       35.408       75.065      -17.263       19.727       23.371       17.308      389.143      546.192      299.565        0.421        0.062       82.997        9.658        0.014      338.283       10.830      859.950
04/19/2014  07:25:00       17.637       66.597       -7.421       18.792       25.362       15.086      353.123      643.238      227.600        0.301        0.061       68.892        7.839        0.013      338.366       10.968      859.985
04/19/2014  07:26:00       28.184       73.287       -6.274       23.810       27.025       17.438      566.913      730.333      304.080        0.390        0.080       78.519       16.558        0.044      338.355       10.949      859.993
04/19/2014  07:27:00       81.129       52.675        0.048       34.057       28.924       24.964     1159.863      836.597      623.211        0.599        0.131       96.730       20.469        0.045      338.344       10.931      860.004
04/19/2014  07:28:00       41.552       51.892        3.690       30.648       23.377       18.589      939.282      546.469      345.533        0.313        0.092       66.478       11.691        0.031      338.431       11.077      860.000
04/19/2014  07:29:00       63.987       77.013       -3.897       38.796       39.406       29.967     1505.091     1552.809      897.995        0.700        0.198      100.127       25.943        0.067      338.412       11.046      859.997
04/19/2014  07:30:00       86.569       62.895        3.520       45.936       32.384       26.967     2110.099     1048.705      727.215        0.767        0.194      107.004       15.737        0.022      338.343       10.931      859.994
04/19/2014  07:31:00       96.155       50.162       11.820       53.104       35.205       27.985     2820.038     1239.360      783.183        0.837        0.242      108.453       17.104        0.025      338.366       10.967      860.027
04/19/2014  07:32:00      152.052       96.689       21.507       24.003       24.704       21.585      576.139      610.264      465.908        1.729        0.083      180.191        9.195        0.003      338.246       10.765      860.049
04/19/2014  07:33:00      122.338       88.452       20.704       57.266       40.024       39.088     3279.392     1601.886     1527.835        1.481        0.320      150.964       29.882        0.039      338.363       10.962      860.058
04/19/2014  07:34:00      125.148       76.029       28.207       31.414       28.552       37.750      986.861      815.198     1425.068        1.273        0.161      146.433       21.780        0.022      338.345       10.932      860.083
04/19/2014  07:35:00      118.211       88.126       45.220       47.516       39.123       39.570     2257.790     1530.613     1565.823        1.457        0.268      147.445       15.148        0.011      338.416       11.053      860.098
04/19/2014  07:36:00       70.168       74.517       63.626       54.030       38.141       35.574     2919.276     1454.706     1265.532        1.008        0.282      102.354       32.111        0.098      338.528       11.241      860.099
04/19/2014  07:37:00       57.065       78.815       78.952       63.745       32.665       30.368     4063.440     1066.977      922.186        1.088        0.303       97.305       26.731        0.075      338.554       11.285      860.097
04/19/2014  07:38:00      131.565       75.906       21.122       43.835       25.845       37.284     1921.495      667.960     1390.122        1.375        0.199      151.892       16.757        0.012      338.434       11.082      860.099
04/19/2014  07:39:00       -0.550      -34.286       39.192       48.938       59.997       29.470     2394.886     3599.607      868.464        0.479        0.343       34.290       13.594        0.157      338.653       11.451      860.114
04/19/2014  07:40:00       23.721      -55.958       29.199       36.139       38.338       28.530     1306.008     1469.797      813.960        0.407        0.179       60.778       18.997        0.098      338.422       11.062      860.143
04/19/2014  07:41:00        1.548      -44.567        5.506       16.066       46.566       22.525      258.111     2168.420      507.382        0.248        0.147       44.594       24.760        0.308      338.487       11.172      860.163
04/19/2014  07:42:00       53.028       49.030       15.948       31.186       31.295       18.554      972.562      979.351      344.260        0.388        0.115       72.221        9.163        0.016      338.668       11.476      860.171
04/19/2014  07:43:00       76.442       63.286       12.527       28.965       18.040       24.079      838.991      325.454      579.792        0.587        0.087       99.239       14.273        0.021      338.552       11.281      860.168
04/19/2014  07:44:00       61.048       46.931        8.122       34.237       25.390       25.285     1172.145      644.636      639.306        0.423        0.123       77.002       13.438        0.030      338.750       11.613      860.167
04/19/2014  07:45:00       70.014       65.962       31.664       48.013       27.445       36.220     2305.226      753.206     1311.866        0.731        0.219       96.192       23.197        0.058      338.739       11.596      860.174
04/19/2014  07:46:00      122.537       72.948       31.563       28.753       20.457       28.986      826.745      418.492      840.212        1.171        0.104      142.607       23.084        0.026      338.451       11.112      860.182
04/19/2014  07:47:00       95.782       66.789        8.407       33.241       24.742       23.401     1104.977      612.176      547.600        0.798        0.113      116.769        9.805        0.007      338.562       11.297      860.168
04/19/2014  07:48:00      107.546       73.327       12.743       34.864       16.660       30.605     1215.488      277.540      936.680        0.977        0.121      130.165        9.112        0.005      338.603       11.366      860.169
04/19/2014  07:49:00       76.228       76.500       12.920       28.478       29.236       31.718      810.982      854.758     1006.048        0.725        0.134      107.995       18.629        0.030      338.798       11.693      860.182
04/19/2014  07:50:00       90.781       69.150       -0.562       39.906       36.559       29.946     1592.522     1336.577      896.762        0.842        0.191      114.118       21.098        0.034      338.774       11.653      860.181
04/19/2014  07:51:00      100.825       67.283        2.213       43.139       40.050       27.025     1860.968     1603.986      730.358        0.945        0.210      121.214       14.449        0.014      338.782       11.667      860.187
04/19/2014  07:52:00      106.073       77.926        2.477       47.692       31.404       35.237     2274.554      986.201     1241.625        1.092        0.225      131.621       20.866        0.025      338.761       11.632      860.187
04/19/2014  07:53:00      142.502       61.790        1.998       38.281       31.575       27.351     1465.420      996.951      748.096        1.367        0.161      155.322       10.373        0.004      338.682       11.499      860.194
04/19/2014  07:54:00      124.508       64.164       11.624       27.293       26.010       21.775      744.918      676.499      474.142        1.082        0.095      140.069       10.864        0.006      338.725       11.572      860.214
04/19/2014  07:55:00      119.490       92.432       29.132       31.605       27.451       34.020      998.890      753.571     1157.339        1.329        0.145      151.068       11.584        0.006      338.865       11.807      860.226
04/19/2014  07:56:00      104.346       67.021       18.672       55.172       29.314       34.464     3043.907      859.316     1187.757        1.041        0.255      124.015       24.232        0.038      339.011       12.051      860.240
04/19/2014  07:57:00       93.153       60.500       26.537       36.484       37.750       36.923     1331.079     1425.042     1363.312        0.858        0.206      111.075       25.430        0.052      339.068       12.148      860.247
04/19/2014  07:58:00        6.744       50.914       65.289       39.434       44.016       26.188     1555.013     1937.439      685.792        0.554        0.209       51.359       19.442        0.143      339.192       12.357      860.265
04/19/2014  07:59:00       -6.495       22.060       58.380       22.690       41.589       18.731      514.834     1729.685      350.866        0.327        0.130       22.996       11.233        0.239      339.263       12.477      860.286
04/19/2014  08:00:00       31.984      -26.356       43.071       49.230       52.519       34.310     2423.589     2758.281     1177.148        0.496        0.318       41.444       28.205        0.463      339.134       12.258      860.295
04/19/2014  08:01:00       44.053       25.757       48.520       36.197       60.741       37.969     1310.205     3689.472     1441.670        0.570        0.322       51.030       26.416        0.268      339.133       12.258      860.293
04/19/2014  08:02:00       96.854       71.579       20.248       59.194       50.998       52.124     3503.949     2600.835     2716.919        1.187        0.441      120.433       13.243        0.012      339.039       12.099      860.298
04/19/2014  08:03:00      111.401       61.687       25.332       64.367       42.957       40.133     4143.142     1845.340     1610.671        1.223        0.380      127.340       26.135        0.042      339.091       12.187      860.305
04/19/2014  08:04:00      131.189       72.824       28.311       29.409       37.194       30.064      864.877     1383.424      903.848        1.323        0.158      150.046       16.953        0.013      338.927       11.912      860.318
04/19/2014  08:05:00       95.542       36.175       11.184       58.112       34.177       34.409     3377.053     1168.091     1183.953        0.814        0.286      102.161       22.585        0.049      339.262       12.476      860.331
04/19/2014  08:06:00       44.930       20.729       19.174       56.265       39.346       34.388     3165.803     1548.139     1182.513        0.436        0.295       49.482       25.084        0.257      339.621       13.081      860.354
04/19/2014  08:07:00      110.501       82.035       35.953       38.324       37.013       35.294     1468.759     1369.963     1245.659        1.216        0.204      137.624       15.554        0.013      339.089       12.184      860.383
04/19/2014  08:08:00       97.265       82.719        1.912       38.603       43.688       29.147     1490.166     1908.656      849.534        1.028        0.212      127.683        9.495        0.006      338.961       11.968      860.385
04/19/2014  08:09:00      106.952       64.084       14.480       34.313       30.393       33.911     1177.387      923.734     1149.929        0.950        0.163      124.682       21.867        0.031      339.157       12.299      860.385
04/19/2014  08:10:00       78.160       67.583       -5.493       26.158       22.471       22.522      684.216      504.933      507.257        0.620        0.085      103.327       17.200        0.028      338.936       11.926      860.378
04/19/2014  08:11:00       35.763       24.313        2.546       21.949       19.850       17.049      481.766      394.029      290.677        0.152        0.058       43.245       11.113        0.066      339.213       12.392      860.375
04/19/2014  08:12:00       52.364       40.641       12.864       43.864       29.449       27.179     1924.030      867.239      738.711        0.404        0.176       66.285       16.748        0.064      339.344       12.613      860.372
04/19/2014  08:13:00       55.172       89.606        7.429       48.825       39.032       29.987     2383.856     1523.488      899.233        0.797        0.240      105.229       25.895        0.061      339.246       12.447      860.358
04/19/2014  08:14:00      117.577       46.897       23.160       37.697       31.913       33.597     1421.047     1018.427     1128.761        1.006        0.178      126.585       22.552        0.032      339.159       12.301      860.337
04/19/2014  08:15:00      134.861       53.101       12.153       59.215       46.171       33.329     3506.472     2131.754     1110.846        1.395        0.337      144.938       33.898        0.055      339.188       12.350      860.327
04/19/2014  08:16:00       92.594       72.076       10.640       43.572       38.599       33.452     1898.510     1489.887     1119.033        0.919        0.225      117.340       15.037        0.016      339.210       12.386      860.326
04/19/2014  08:17:00       41.819       82.386       -5.814       20.085       22.276       26.098      403.410      496.225      681.097        0.508        0.079       92.392       17.557        0.036      339.275       12.498      860.325
04/19/2014  08:18:00       33.893       49.569       -4.639       13.022       20.820       21.240      169.577      433.490      451.130        0.234        0.053       60.049       13.755        0.052      339.299       12.537      860.322
04/19/2014  08:19:00       51.899       38.419        9.695       18.657       22.963       25.904      348.072      527.315      671.006        0.290        0.077       64.571       18.213        0.080      339.508       12.890      860.315
04/19/2014  08:20:00       76.509       46.457       10.100       40.175       24.934       25.683     1614.048      621.701      659.614        0.550        0.145       89.509       15.776        0.031      339.341       12.607      860.306
04/19/2014  08:21:00       38.371       40.309       42.164       39.870       36.299       31.600     1589.618     1317.635      998.557        0.439        0.195       55.652       12.765        0.053      339.703       13.218      860.319
04/19/2014  08:22:00       56.269       56.031       28.675       35.999       27.644       29.178     1295.960      764.199      851.360        0.502        0.146       79.408       19.373        0.060      339.818       13.413      860.336
04/19/2014  08:23:00        1.266      113.009       -7.969       23.772       34.524       20.529      565.089     1191.928      421.429        0.751        0.109      113.016       15.054        0.018      339.586       13.021      860.354
04/19/2014  08:24:00        6.722       22.145       24.129       35.986       46.634       25.506     1295.011     2174.744      650.553        0.262        0.206       23.142       22.570        0.951      339.982       13.689      860.356
04/19/2014  08:25:00       55.618       44.804       46.599       49.075       35.259       28.451     2408.373     1243.194      809.481        0.587        0.223       71.420       17.131        0.058      339.966       13.662      860.348
04/19/2014  08:26:00        4.747       41.938       61.204       28.750       41.458       21.976      826.563     1718.797      482.938        0.428        0.151       42.206       17.989        0.182      339.821       13.417      860.340
04/19/2014  08:27:00       20.661       32.882       51.396       46.133       49.464       23.764     2128.218     2446.724      564.737        0.464        0.257       38.835       11.982        0.095      339.747       13.293      860.341
04/19/2014  08:28:00       46.082       46.570       28.350       42.892       40.411       27.305     1839.708     1633.055      745.581        0.466        0.211       65.516       14.844        0.051      339.588       13.025      860.350
04/19/2014  08:29:00       52.830       51.543       21.750       45.320       34.145       35.759     2053.873     1165.867     1278.707        0.521        0.225       73.808       14.089        0.036      339.654       13.135      860.366
04/19/2014  08:30:00       90.739       67.752       30.587       39.518       31.278       31.379     1561.645      978.295      984.666        0.864        0.176      113.243       22.402        0.039      339.557       12.971      860.374
04/19/2014  08:31:00      120.215       66.938       25.983       54.809       37.110       46.008     3003.999     1377.161     2116.724        1.305        0.325      137.595       33.531        0.059      339.416       12.734      860.375
04/19/2014  08:32:00       98.945       76.224       16.333       45.110       30.488       40.993     2034.928      929.545     1680.458        1.026        0.232      124.901       27.205        0.047      339.323       12.577      860.374
04/19/2014  08:33:00       99.215       62.335        1.658       63.397       33.601       31.488     4019.169     1129.005      991.471        0.993        0.307      117.171       29.070        0.062      339.544       12.950      860.372
04/19/2014  08:34:00       73.000       17.647        9.970       32.220       35.812       30.358     1038.099     1282.464      921.600        0.449        0.162       75.102       28.039        0.139      339.724       13.254      860.369
04/19/2014  08:35:00      102.967       47.418       10.988       47.514       40.160       31.212     2257.611     1612.845      974.217        0.891        0.242      113.361       10.740        0.009      339.769       13.328      860.360
04/19/2014  08:36:00      133.790       77.008       27.148       26.927       22.684       41.014      725.048      514.548     1682.138        1.374        0.146      154.370       24.659        0.026      339.495       12.867      860.363
04/19/2014  08:37:00      110.032       71.863       16.401       28.572       30.190       22.436      816.381      911.452      503.392        0.989        0.112      131.420        9.685        0.005      339.477       12.838      860.376
04/19/2014  08:38:00       59.364       33.490        2.823       21.189       18.410       21.415      448.954      338.927      458.599        0.295        0.062       68.159       13.076        0.037      339.842       13.453      860.396
04/19/2014  08:39:00       28.204       29.866       22.629       39.013       23.162       24.347     1522.018      536.471      592.772        0.242        0.133       41.078       23.477        0.327      340.120       13.920      860.417
04/19/2014  08:40:00       64.851       57.943       11.607       24.677       22.817       31.572      608.958      520.629      996.762        0.491        0.106       86.966       18.422        0.045      339.786       13.359      860.434
04/19/2014  08:41:00       27.822       73.595        3.623       24.717       37.162       28.898      610.927     1381.040      835.119        0.451        0.141       78.678       24.462        0.097      339.989       13.701      860.436
04/19/2014  08:42:00       34.234       89.527       -2.951       28.050       31.779       30.758      786.830     1009.934      946.060        0.597        0.137       95.849       19.057        0.040      339.854       13.473      860.426
04/19/2014  08:43:00       12.094       51.835       -3.719       20.056       29.827       24.014      402.248      889.620      576.690        0.236        0.093       53.227       16.987        0.102      339.947       13.630      860.411
04/19/2014  08:44:00       25.881       47.428       22.565       34.506       35.594       24.898     1190.663     1266.966      619.935        0.325        0.154       54.030       28.116        0.271      340.085       13.862      860.386
04/19/2014  08:45:00       41.851       47.399        2.818       18.034       25.971       22.022      325.239      674.495      484.971        0.275        0.074       63.231       16.025        0.064      340.016       13.746      860.378
04/19/2014  08:46:00       53.877       51.830        5.337       35.577       40.229       34.695     1265.692     1618.341     1203.772        0.485        0.204       74.760       31.067        0.173      340.213       14.078      860.366
04/19/2014  08:47:00        9.264       70.551        1.074       35.554       46.379       32.678     1264.101     2151.025     1067.871        0.477        0.224       71.157       29.656        0.174      340.407       14.406      860.358
04/19/2014  08:48:00       50.917       46.824       21.783       53.890       34.663       33.118     2904.159     1201.520     1096.798        0.523        0.260       69.174       25.158        0.132      340.462       14.499      860.353
04/19/2014  08:49:00       46.604       45.854       12.839       40.751       39.207       34.161     1660.677     1537.188     1167.006        0.440        0.218       65.380       23.243        0.126      340.577       14.694      860.360
04/19/2014  08:50:00       69.082       57.747       11.523       38.630       31.187       32.301     1492.242      972.644     1043.340        0.587        0.175       90.039       21.993        0.060      340.401       14.396      860.366
04/19/2014  08:51:00      101.993       49.028       15.732       38.652       26.381       27.721     1493.977      695.948      768.442        0.801        0.148      113.165        6.081        0.003      340.211       14.075      860.358
04/19/2014  08:52:00       89.448       73.480       15.957       45.877       33.186       41.120     2104.702     1101.315     1690.826        0.927        0.245      115.760       24.175        0.044      340.342       14.297      860.362
04/19/2014  08:53:00       77.291       62.576       10.497       40.411       36.211       34.448     1633.029     1311.204     1186.687        0.706        0.207       99.447       25.028        0.063      340.344       14.299      860.384
04/19/2014  08:54:00      107.198       90.333       10.036       32.580       25.841       29.434     1061.438      667.746      866.376        1.117        0.130      140.183       15.677        0.013      339.995       13.710      860.391
04/19/2014  08:55:00        2.952      -16.811       12.803       33.873       42.404       22.697     1147.381     1798.062      515.157        0.196        0.173       17.068       14.891        0.761      340.337       14.288      860.401
04/19/2014  08:56:00      108.285       71.254       15.546       45.488       34.706       24.902     2069.182     1204.494      620.104        1.047        0.195      129.626       10.936        0.007      340.117       13.918      860.416
04/19/2014  08:57:00       61.893       41.939       17.117       34.062       21.868       25.342     1160.198      478.196      642.242        0.408        0.114       74.764       21.932        0.086      340.146       13.965      860.429
04/19/2014  08:58:00       35.429       51.017       60.518       50.785       49.140       31.207     2579.156     2414.789      973.895        0.674        0.298       62.112       30.646        0.243      340.513       14.586      860.413
04/19/2014  08:59:00      132.827       96.838       51.065       79.387       47.401       47.846     6302.322     2246.870     2289.248        2.023        0.542      164.380       36.622        0.050      340.249       14.136      860.414
04/19/2014  09:00:00       64.403       75.023       75.259       65.988       44.815       24.066     4354.401     2008.380      579.156        1.119        0.347       98.874       10.125        0.010      340.420       14.428      860.421
04/19/2014  09:01:00       37.124      -10.854       39.315       49.042       75.695       49.917     2405.088     5729.686     2491.675        0.683        0.531       38.678       49.037        1.607      340.614       14.756      860.437
04/19/2014  09:02:00       48.998      -48.405       25.770       43.052       61.012       45.083     1853.458     3722.410     2032.457        0.651        0.380       68.876       28.147        0.167      340.653       14.822      860.443
04/19/2014  09:03:00       89.471       30.532       34.333       65.159       75.492       42.991     4245.668     5699.082     1848.196        1.095        0.590       94.537       29.047        0.094      340.516       14.591      860.402
04/19/2014  09:04:00      186.660      136.214       92.035       49.666       36.738       48.643     2466.697     1349.658     2366.103        3.402        0.309      231.076       21.976        0.009      340.326       14.265      860.354
04/19/2014  09:05:00       57.641       92.687      105.675       67.448       49.355       32.855     4549.249     2435.880     1079.424        1.557        0.403      109.149       26.395        0.058      340.523       14.602      860.332
04/19/2014  09:06:00      -17.083       58.751      104.358       32.152       44.048       37.773     1033.756     1940.198     1426.766        0.952        0.220       61.184       30.493        0.248      340.929       15.289      860.303
04/19/2014  09:07:00       32.251       43.878       63.682       65.119       43.925       41.176     4240.439     1929.435     1695.440        0.744        0.393       54.456       27.897        0.262      340.947       15.320      860.275
04/19/2014  09:08:00       16.982       37.125       63.998       39.711       46.643       38.548     1576.980     2175.592     1485.942        0.550        0.262       40.824       23.689        0.337      340.898       15.237      860.262
04/19/2014  09:09:00      177.629      117.445       10.061       58.751       40.106       42.476     3451.649     1608.515     1804.211        2.615        0.343      212.945       21.686        0.010      340.561       14.665      860.250
04/19/2014  09:10:00      103.515       61.221       18.617       60.261       47.266       39.218     3631.396     2234.033     1538.062        1.111        0.370      120.264       14.716        0.015      340.832       15.125      860.242
04/19/2014  09:11:00       17.311       19.009       43.999       40.444       71.891       48.427     1635.756     5168.299     2345.149        0.587        0.457       25.710       40.405        2.470      341.053       15.500      860.244
04/19/2014  09:12:00       62.629      128.594      129.218       77.723       79.017       56.565     6040.793     6243.715     3199.649        2.632        0.774      143.035       51.992        0.132      340.824       15.109      860.240
04/19/2014  09:13:00       62.780        2.434       68.272       73.855      101.080       56.771     5454.586    10217.125     3222.915        1.375        0.945       62.828       62.257        0.982      340.900       15.238      860.237
04/19/2014  09:14:00       85.451     -115.251        5.032       82.231       90.047       60.314     6761.981     8108.537     3637.733        1.956        0.925      143.474       57.805        0.162      341.081       15.544      860.234
04/19/2014  09:15:00      118.663     -108.202        3.207       72.770      115.947       56.076     5295.502    13443.773     3144.520        2.384        1.094      160.588       62.336        0.151      341.175       15.703      860.230
04/19/2014  09:16:00       36.511       22.402       25.938       49.598       69.983       38.335     2459.970     4897.648     1469.610        0.567        0.441       42.836       19.037        0.198      341.262       15.853      860.229
04/19/2014  09:17:00       74.329       70.271       43.245       39.435       36.294       34.541     1555.088     1317.240     1193.050        0.820        0.203      102.288       17.604        0.030      341.331       15.970      860.240
04/19/2014  09:18:00      166.082       91.520       51.523       91.947       56.569       52.235     8454.230     3200.096     2728.503        2.650        0.719      189.629       23.865        0.016      341.208       15.759      860.231
04/19/2014  09:19:00      133.705      120.378       49.965       55.060       40.908       49.862     3031.651     1673.432     2486.174        2.103        0.360      179.911       25.869        0.021      340.985       15.382      860.222
04/19/2014  09:20:00       85.606       18.623        9.157       57.375       71.080       34.051     3291.904     5052.368     1159.499        0.863        0.475       87.609       15.091        0.030      341.338       15.982      860.202
04/19/2014  09:21:00       68.806       18.996       14.234       62.190       77.680       43.940     3867.656     6034.230     1930.684        0.856        0.592       71.380       28.032        0.154      341.363       16.024      860.188
04/19/2014  09:22:00       52.848       63.032       58.498       66.397       60.319       57.893     4408.497     3638.414     3351.561        1.079        0.570       82.255       41.065        0.249      341.629       16.474      860.159
04/19/2014  09:23:00       24.015       57.638       94.286       46.161       54.720       43.379     2130.871     2994.244     1881.708        0.990        0.350       62.440       31.234        0.250      341.587       16.403      860.150
04/19/2014  09:24:00       65.884      120.672      137.362       91.301       88.266       65.846     8335.828     7790.849     4335.745        2.911        1.023      137.486       57.602        0.176      341.119       15.609      860.149
04/19/2014  09:25:00       46.653      -25.103       25.265       69.889       80.990       51.991     4884.420     6559.437     2703.064        0.879        0.707       52.978       35.699        0.454      341.289       15.898      860.185
04/19/2014  09:26:00       70.074      -47.747       25.987       68.332       87.669       62.214     4669.215     7685.867     3870.533        1.204        0.811       84.794       51.301        0.366      341.549       16.337      860.205
04/19/2014  09:27:00       66.702      -28.465       48.078       74.240      110.672       65.922     5511.633    12248.287     4345.670        1.483        1.105       72.522       70.834        0.954      341.643       16.497      860.201
04/19/2014  09:28:00      157.479     -187.077      -42.457       96.725      120.458       58.417     9355.685    14510.241     3412.570        4.443        1.364      244.535       58.750        0.058      341.340       15.980      860.205
04/19/2014  09:29:00      142.682     -136.058       13.251      124.925      171.058       87.603    15606.202    29260.909     7674.202        4.578        2.627      197.154      115.809        0.345      341.482       16.223      860.198
04/19/2014  09:30:00      144.205     -168.515       11.004      115.648      143.085       81.425    13374.376    20473.201     6630.072        4.489        2.024      221.794       96.723        0.190      341.493       16.242      860.183
04/19/2014  09:31:00      121.458     -126.550       18.029       84.559      115.023       64.228     7150.220    13230.369     4125.226        2.779        1.225      175.405       75.212        0.184      341.634       16.483      860.170
04/19/2014  09:32:00       75.862      -93.390       31.268       64.331      122.086       53.867     4138.519    14904.949     2901.640        1.870        1.097      120.319       57.502        0.228      341.813       16.784      860.166
04/19/2014  09:33:00       70.107     -117.498       14.916       44.957      101.000       45.307     2021.123    10201.047     2052.745        1.661        0.714      136.824       36.677        0.072      341.714       16.617      860.164
04/19/2014  09:34:00       74.009      -47.290       40.851       88.087       96.701       54.617     7759.383     9351.135     2983.018        1.473        1.005       87.828       40.807        0.216      341.802       16.767      860.167
04/19/2014  09:35:00       94.797       97.933       70.421       98.600       79.801       41.731     9722.021     6368.208     1741.480        2.068        0.892      136.299       27.980        0.042      341.756       16.689      860.170
04/19/2014  09:36:00      100.200       51.780       49.376      122.234       69.969       55.200    14941.244     4895.721     3047.037        1.902        1.144      112.788       51.147        0.206      341.701       16.594      860.175
04/19/2014  09:37:00       67.282       17.133       80.344       66.465      107.600       59.960     4417.652    11577.797     3595.200        1.543        0.980       69.429       72.402        1.087      341.835       16.822      860.160
04/19/2014  09:38:00       69.127       84.829       91.468       94.386       62.262       55.459     8908.656     3876.568     3075.701        1.810        0.793      109.428       40.644        0.138      341.775       16.722      860.172
04/19/2014  09:39:00       79.457        0.364       37.636       70.491       85.194       43.073     4969.027     7258.072     1855.279        1.090        0.704       79.457       46.687        0.345      341.532       16.309      860.188
04/19/2014  09:40:00      157.501      112.621       46.404      126.839       55.251       59.217    16088.113     3052.669     3506.621        3.114        1.132      193.623       44.573        0.053      341.541       16.324      860.188
04/19/2014  09:41:00       51.046       31.145       51.145       47.483       48.239       49.793     2254.607     2326.965     2479.386        0.662        0.353       59.797       30.337        0.257      341.906       16.943      860.197
04/19/2014  09:42:00       26.385       13.745       22.543       54.679       38.447       35.394     2989.793     1478.168     1252.742        0.356        0.286       29.750       16.534        0.309      342.233       17.499      860.190
04/19/2014  09:43:00       27.866      -19.562       -1.829       51.459       92.745       33.263     2648.003     8601.661     1106.394        0.676        0.618       34.047       29.786        0.765      341.942       17.007      860.190
04/19/2014  09:44:00       40.404       13.817       42.444       44.359       57.532       37.660     1967.742     3309.939     1418.305        0.516        0.335       42.701       27.685        0.420      342.406       17.795      860.177
04/19/2014  09:45:00       26.466       28.607       57.668       49.358       77.284       48.105     2436.249     5972.853     2314.047        0.778        0.536       38.972       37.470        0.924      342.134       17.331      860.152
04/19/2014  09:46:00       -7.482       15.709       37.419       37.969       45.879       37.954     1441.659     2104.867     1440.511        0.334        0.249       17.400       20.796        1.428      342.336       17.675      860.145
04/19/2014  09:47:00       56.205      -57.269        1.358       53.633       75.952       49.553     2876.521     5768.750     2455.536        0.877        0.555       80.242       43.762        0.297      341.894       16.924      860.113
04/19/2014  09:48:00      111.497     -180.183       -6.616       63.011       57.981       30.171     3970.340     3361.817      910.265        2.659        0.412      211.890       29.055        0.019      341.719       16.625      860.108
04/19/2014  09:49:00       13.034      -13.938       41.235       49.676       98.747       51.532     2467.753     9750.999     2655.564        0.847        0.744       19.083       55.158        8.355      342.309       17.629      860.092
04/19/2014  09:50:00       36.836      -60.214       12.223       58.093       75.338       41.821     3374.744     5675.799     1748.966        0.796        0.540       70.588       47.509        0.453      341.995       17.096      860.102
04/19/2014  09:51:00       42.313      -81.792       15.782       76.332       94.306       65.281     5826.602     8893.632     4261.610        1.385        0.949       92.089       59.341        0.415      342.310       17.630      860.100
04/19/2014  09:52:00      -15.903      -70.410       10.980       81.578       66.341       41.155     6655.028     4401.069     1693.730        0.904        0.637       72.184       21.963        0.093      341.872       16.888      860.114
04/19/2014  09:53:00       63.082      -76.420        5.763       54.635      119.030       50.962     2985.014    14168.258     2597.175        1.480        0.988       99.093       54.592        0.304      342.033       17.159      860.099
04/19/2014  09:54:00      140.860     -250.227      -23.635       96.543      137.430       67.336     9320.617    18887.103     4534.072        5.787        1.637      287.150       76.948        0.072      341.876       16.890      860.079
04/19/2014  09:55:00       26.424     -157.922       20.610       77.316      125.884       53.778     5977.781    15846.851     2892.077        2.538        1.236      160.117       55.805        0.121      342.178       17.405      860.095
04/19/2014  09:56:00       66.703      -77.704        7.081       65.997       98.406       59.246     4355.595     9683.760     3510.095        1.404        0.877      102.407       62.545        0.373      342.303       17.617      860.116
04/19/2014  09:57:00      120.576     -114.076      -17.035      110.714      146.505       98.049    12257.503    21463.769     9613.690        3.558        2.167      165.988       95.301        0.330      341.994       17.093      860.112
04/19/2014  09:58:00      179.691     -226.167      -75.767      110.938      120.941       76.642    12307.223    14626.768     5873.921        6.099        1.640      288.860       70.825        0.060      341.773       16.715      860.120
04/19/2014  09:59:00       50.541     -171.565      -39.678       63.619       84.894       56.952     4047.386     7207.016     3243.516        2.403        0.725      178.854       45.445        0.065      341.856       16.858      860.131
04/19/2014  10:00:00      -10.918      -46.656       20.752       46.930       82.160       42.875     2202.456     6750.274     1838.225        0.676        0.540       47.916       28.481        0.353      342.171       17.395      860.157
04/19/2014  10:01:00        8.588       42.833       57.095       39.505       39.872       37.835     1560.641     1589.788     1431.491        0.487        0.229       43.685       28.601        0.429      342.245       17.519      860.167
04/19/2014  10:02:00       32.996       74.957       27.318       42.823       51.396       48.552     1833.819     2641.545     2357.248        0.714        0.342       81.898       28.143        0.118      341.895       16.926      860.177
04/19/2014  10:03:00      -13.621       57.714        1.945       25.247       29.644       25.918      637.432      878.794      671.739        0.285        0.109       59.300       12.604        0.045      341.755       16.688      860.187
04/19/2014  10:04:00      -49.509      -19.400      -12.346       20.898       39.663       19.880      436.728     1573.174      395.196        0.269        0.120       53.174       12.218        0.053      341.762       16.699      860.193
04/19/2014  10:05:00      -40.679      -16.287       -1.741       45.090       27.482       19.382     2033.089      755.273      375.667        0.254        0.158       43.818        9.008        0.042      341.939       17.001      860.206
04/19/2014  10:06:00       15.868      -25.597       14.265       49.008       48.657       46.044     2401.752     2367.525     2120.028        0.400        0.344       30.116       34.537        1.315      342.468       17.899      860.207
04/19/2014  10:07:00      -26.990      -35.588       31.587       37.655       64.892       33.940     1417.869     4210.962     1151.917        0.489        0.339       44.665       31.921        0.511      342.531       18.006      860.204
04/19/2014  10:08:00       41.556       54.811       57.256       52.518       46.557       48.476     2758.121     2167.595     2349.876        0.764        0.364       68.783       40.315        0.344      342.179       17.407      860.222
04/19/2014  10:09:00       91.489       48.302       60.560       76.943       96.251       41.654     5920.152     9264.249     1735.088        1.564        0.846      103.457       47.631        0.212      341.814       16.787      860.204
04/19/2014  10:10:00      170.996      105.057       19.849       51.483       41.216       49.363     2650.484     1698.728     2436.702        2.373        0.339      200.691       21.356        0.011      341.776       16.722      860.208
04/19/2014  10:11:00      128.437      110.173       -1.219       47.311       31.631       37.348     2238.289     1000.494     1394.901        1.663        0.232      169.217       21.083        0.016      341.885       16.906      860.216
04/19/2014  10:12:00      144.091       57.403       19.437       69.657       46.421       43.848     4852.029     2154.902     1922.645        1.668        0.446      155.104       19.303        0.015      342.024       17.142      860.225
04/19/2014  10:13:00       64.156       52.951       44.328       67.939       79.148       58.784     4615.733     6264.401     3455.532        1.161        0.717       83.186       52.395        0.397      342.415       17.809      860.237
04/19/2014  10:14:00       -1.673      -17.822       55.823       54.359       89.079       46.605     2954.940     7935.094     2172.022        0.825        0.653       17.900       44.166        6.088      342.399       17.781      860.236
04/19/2014  10:15:00       59.544     -100.820        0.601       88.787       91.598       57.781     7883.199     8390.271     3338.646        1.666        0.981      117.090       53.548        0.209      342.250       17.527      860.239
04/19/2014  10:16:00       44.396      -54.493       14.249       57.321       96.953       56.498     3285.650     9399.862     3192.041        1.051        0.794       70.289       62.096        0.780      342.238       17.508      860.251
04/19/2014  10:17:00       -7.630       13.611       31.066       37.534       31.269       22.328     1408.773      977.740      498.541        0.205        0.144       15.603       19.848        1.618      342.496       17.947      860.231
04/19/2014  10:18:00       24.456       41.177       34.952       46.191       40.785       26.284     2133.569     1663.456      690.863        0.400        0.224       47.892       21.504        0.202      342.599       18.123      860.234
04/19/2014  10:19:00       90.621       61.627       39.478       98.329       50.039       55.948     9668.552     2503.887     3130.232        1.443        0.765      109.590       51.303        0.219      342.296       17.606      860.221
04/19/2014  10:20:00       52.718       14.886       53.746       80.866      117.548       65.709     6539.308    13817.599     4317.650        1.528        1.234       54.779       72.683        1.760      342.286       17.589      860.221
04/19/2014  10:21:00       65.820      -18.821       25.118       64.613       70.918       56.452     4174.842     5029.316     3186.849        0.885        0.620       68.458       43.608        0.406      342.261       17.547      860.237
04/19/2014  10:22:00       48.712        5.588       47.104       53.108       63.816       45.986     2820.432     4072.536     2114.717        0.681        0.450       49.031       43.532        0.788      341.946       17.013      860.242
04/19/2014  10:23:00       86.391       63.159       36.904       79.425       53.262       37.156     6308.406     2836.880     1380.599        1.167        0.526      107.017       20.524        0.037      341.934       16.992      860.253
04/19/2014  10:24:00      137.484      108.471       40.601       38.225       34.540       41.271     1461.168     1193.042     1703.332        1.834        0.218      175.122       16.224        0.009      341.836       16.824      860.244
04/19/2014  10:25:00       29.780       52.117       35.714       71.803       42.032       35.594     5155.619     1766.664     1266.948        0.653        0.409       60.025       30.272        0.254      342.570       18.073      860.250
04/19/2014  10:26:00       22.336       -2.049        2.597       40.953       62.175       34.077     1677.182     3865.684     1161.216        0.361        0.335       22.430       23.982        1.143      342.170       17.393      860.275
04/19/2014  10:27:00      -33.927      139.331      -25.135       23.437       52.765       26.386      549.281     2784.151      696.217        1.261        0.201      143.403       21.577        0.023      341.722       16.631      860.284
04/19/2014  10:28:00      -56.799      136.887      -17.066       49.579       53.997       28.974     2458.043     2915.650      839.481        1.423        0.311      148.203       19.452        0.017      341.967       17.049      860.272
04/19/2014  10:29:00       77.538       66.370       19.969       89.485       47.957       34.766     8007.579     2299.851     1208.663        1.116        0.576      102.065       23.684        0.054      342.413       17.804      860.272
04/19/2014  10:30:00      158.000       84.162       10.635       72.873       61.176       41.706     5310.523     3742.499     1739.431        2.147        0.540      179.018       30.971        0.030      342.329       17.660      860.249
04/19/2014  10:31:00      103.201       73.882       19.216       89.007       59.184       41.442     7922.232     3502.726     1717.439        1.481        0.657      126.921       39.100        0.095      342.502       17.956      860.253
04/19/2014  10:32:00      109.255      -54.286       25.497      103.518      133.791       58.922    10716.012    17899.962     3471.808        2.380        1.604      121.998       75.854        0.387      342.465       17.892      860.260
04/19/2014  10:33:00      139.818      -37.218       72.637      119.487      201.725      118.666    14277.048    40693.050    14081.610        4.762        3.453      144.687      148.993        1.060      342.451       17.867      860.258
04/19/2014  10:34:00      131.466      -86.824       46.589      106.147      177.921       86.373    11267.232    31655.831     7460.287        3.868        2.519      157.549      120.022        0.580      342.262       17.546      860.274
04/19/2014  10:35:00      126.822      -95.103       -6.096       91.494      154.403       57.031     8371.198    23840.224     3252.480        3.031        1.773      158.520       76.497        0.233      342.261       17.545      860.279
04/19/2014  10:36:00       72.322     -112.267      -12.959       92.321      102.873       68.329     8523.201    10582.913     4668.890        2.088        1.189      133.545       67.791        0.258      342.493       17.941      860.270
04/19/2014  10:37:00        6.044       21.740       59.613       46.184       61.132       43.365     2132.994     3737.163     1880.510        0.591        0.388       22.565       39.747        3.103      342.816       18.489      860.278
04/19/2014  10:38:00       89.704     -100.196       -1.850      108.239       96.849       76.005    11715.703     9379.676     5776.788        2.248        1.344      134.485       71.032        0.279      342.614       18.145      860.282
04/19/2014  10:39:00       24.129       -5.678       82.633       84.866      146.144       83.911     7202.222    21358.135     7041.000        2.151        1.780       24.788       88.147       12.645      342.687       18.271      860.266
04/19/2014  10:40:00      114.037      -36.340       50.795       79.415      110.112       66.517     6306.774    12124.589     4424.577        1.988        1.143      119.687       73.854        0.381      342.600       18.123      860.289
04/19/2014  10:41:00       73.608      -34.227       51.683       77.646       79.640       63.947     6028.926     6342.484     4089.217        1.286        0.823       81.177       59.822        0.543      342.743       18.366      860.280
04/19/2014  10:42:00       97.935       87.503       74.945       71.524       87.837       49.793     5115.657     7715.396     2479.385        1.908        0.766      131.332       35.039        0.071      342.800       18.462      860.275
04/19/2014  10:43:00      109.661      104.422       74.837      102.154       62.147       59.108    10435.415     3862.296     3493.812        2.316        0.890      151.425       65.501        0.187      342.616       18.147      860.248
04/19/2014  10:44:00       51.965        7.581       49.777       94.405       81.198       60.684     8912.379     6593.075     3682.588        1.221        0.959       52.515       38.833        0.547      342.913       18.656      860.249
04/19/2014  10:45:00      122.096     -120.306      -16.064      102.919      117.729       92.319    10592.409    13860.084     8522.809        3.130        1.649      171.409       87.450        0.260      342.899       18.629      860.229
04/19/2014  10:46:00       14.574      -79.319       53.996       76.722      116.999       75.515     5886.206    13688.676     5702.495        1.734        1.264       80.647       19.003        0.056      342.908       18.646      860.237
04/19/2014  10:47:00      129.985     -119.344       13.345       91.258      144.954       81.096     8328.073    21011.697     6576.620        3.361        1.796      176.463       92.170        0.273      342.677       18.252      860.263
04/19/2014  10:48:00       68.516     -120.457      -26.823       67.592       86.973       47.032     4568.654     7564.297     2212.012        1.713        0.717      138.580       44.056        0.101      342.530       18.002      860.283
04/19/2014  10:49:00      157.840     -175.513      -37.125       91.699      106.140       43.114     8408.754    11265.713     1858.804        3.931        1.077      236.048       43.483        0.034      342.402       17.785      860.291
04/19/2014  10:50:00      105.819      -73.633       48.173       88.276      129.137       76.106     7792.602    16676.241     5792.199        2.459        1.513      128.917       85.181        0.437      342.909       18.648      860.279
04/19/2014  10:51:00       52.093      -32.224       51.092       47.103      103.443       62.886     2218.656    10700.400     3954.602        1.161        0.844       61.254       60.413        0.973      342.840       18.531      860.303
04/19/2014  10:52:00      115.735      -34.027       34.233      108.055      102.153       56.211    11675.902    10435.189     3159.706        2.049        1.264      120.634       61.098        0.257      342.435       17.841      860.304
04/19/2014  10:53:00       87.602       91.420       72.988       64.922       76.211       54.212     4214.847     5808.169     2938.975        1.716        0.648      126.617       52.013        0.169      342.224       17.485      860.313
04/19/2014  10:54:00       18.337       15.050       32.577       39.223       48.973       48.500     1538.428     2398.395     2352.259        0.396        0.314       23.722       34.458        2.110      342.329       17.662      860.314
04/19/2014  10:55:00       80.471      -79.273      -12.093       72.919       84.424       37.275     5317.194     7127.362     1389.441        1.337        0.692      112.960       48.525        0.185      342.553       18.042      860.318
04/19/2014  10:56:00       99.090     -162.473      -13.768       92.563      134.005       77.756     8567.995    17957.211     6046.007        3.448        1.629      190.306       86.504        0.207      342.852       18.549      860.302
04/19/2014  10:57:00       56.883     -130.734       27.577       73.121      136.954       70.364     5346.745    18756.323     4951.035        2.506        1.453      142.573       74.824        0.275      342.955       18.725      860.306
04/19/2014  10:58:00       65.947      -77.771       19.261       45.996       69.529       47.312     2115.669     4834.254     2238.427        0.998        0.459      101.967       45.816        0.202      342.627       18.169      860.351
04/19/2014  10:59:00       95.027     -128.436      -10.678       77.703       97.507       53.781     6037.709     9507.584     2892.417        2.204        0.922      159.769       58.308        0.133      342.580       18.089      860.335
04/19/2014  11:00:00      109.045     -151.467      -23.669       84.614      128.993       61.804     7159.506    16639.271     3819.678        3.150        1.381      186.636       69.088        0.137      342.839       18.528      860.324
04/19/2014  11:01:00       54.260       -6.353       39.424       58.923       83.937       56.323     3471.893     7045.445     3172.288        0.911        0.684       54.631       63.146        1.336      342.708       18.308      860.341
04/19/2014  11:02:00      118.619     -173.212      -33.832       91.754       97.621       57.467     8418.763     9529.850     3302.497        3.323        1.063      209.935       61.458        0.086      342.734       18.348      860.325
04/19/2014  11:03:00      126.534     -191.564      -62.083       82.711      101.722       59.491     6841.052    10347.402     3539.217        3.864        1.036      229.582       55.970        0.059      342.795       18.453      860.344
04/19/2014  11:04:00       88.859      -63.301       -6.453       63.451       61.630       46.992     4025.979     3798.302     2208.247        1.099        0.502      109.100       49.127        0.203      342.724       18.334      860.391
04/19/2014  11:05:00       26.500      -32.469       24.577       37.878       73.759       36.458     1434.764     5440.318     1329.159        0.528        0.410       41.911       35.523        0.718      342.580       18.090      860.380
04/19/2014  11:06:00       35.479        5.668       25.239       40.350       52.455       25.179     1628.097     2751.536      633.963        0.347        0.251       35.929       20.931        0.339      342.818       18.494      860.363
04/19/2014  11:07:00       26.755      -12.801       49.175       59.812       82.067       44.650     3577.461     6735.059     1993.597        0.780        0.615       29.660       49.991        2.841      343.020       18.838      860.352
04/19/2014  11:08:00      100.205      -97.751        4.337       64.036       51.744       47.261     4100.584     2677.464     2233.623        1.431        0.451      139.987       40.326        0.083      342.470       17.900      860.334
04/19/2014  11:09:00       77.522      -57.802       20.724       90.415       72.225       59.410     8174.954     5216.381     3529.584        1.335        0.846       96.699       53.717        0.309      343.011       18.822      860.317
04/19/2014  11:10:00       34.079      -86.382       28.544       79.380      112.394       57.782     6301.232    12632.402     3338.758        1.585        1.114       92.861       56.827        0.374      343.357       19.411      860.285
04/19/2014  11:11:00       50.638      -67.703       48.103       87.901      106.109       76.797     7726.538    11259.095     5897.716        1.717        1.244       84.545       77.169        0.833      343.262       19.251      860.254
04/19/2014  11:12:00       70.233     -126.787       11.174       79.166       92.643       59.722     6267.180     8582.698     3566.707        1.977        0.921      144.940       57.356        0.157      343.195       19.133      860.265
04/19/2014  11:13:00       41.742      -44.940       51.340       60.492      117.616       85.976     3659.292    13833.552     7391.840        1.564        1.244       61.335       79.277        1.671      343.256       19.239      860.244
04/19/2014  11:14:00       44.187      -46.130       29.699       69.914       86.319       61.169     4887.902     7450.886     3741.675        1.052        0.804       63.878       56.059        0.770      343.067       18.918      860.252
04/19/2014  11:15:00       78.783      -33.857        9.225       60.206       43.950       43.878     3624.807     1931.575     1925.309        0.746        0.374       85.750       34.477        0.162      342.709       18.310      860.270
04/19/2014  11:16:00       69.054      -57.830        0.869       39.525       37.459       25.045     1562.232     1403.146      627.254        0.585        0.180       90.071       16.677        0.034      342.775       18.422      860.274
04/19/2014  11:17:00       62.477       12.626       57.060       67.583       53.950       32.041     4567.443     2910.656     1026.646        0.791        0.425       63.740       40.040        0.395      343.099       18.973      860.287
04/19/2014  11:18:00       45.416       77.098       47.569       41.739       40.972       50.421     1742.140     1678.691     2542.292        0.812        0.298       89.480       12.671        0.020      342.760       18.395      860.294
04/19/2014  11:19:00       12.558       11.530        8.713       45.018       47.786       27.993     2026.650     2283.457      783.587        0.273        0.255       17.048       16.478        0.934      342.838       18.528      860.293
04/19/2014  11:20:00       41.031      -90.563       -4.004       38.513       35.434       22.900     1483.241     1255.564      524.410        0.658        0.163       99.424       15.750        0.025      342.205       17.452      860.289
04/19/2014  11:21:00        3.803      -12.020       22.333       44.873       35.336       32.412     2013.588     1248.638     1050.524        0.248        0.216       12.607       25.281        4.021      343.135       19.034      860.289
04/19/2014  11:22:00      139.694       58.791       30.695       34.439       64.541       53.637     1186.034     4165.483     2876.891        1.607        0.411      151.561       37.994        0.063      342.883       18.604      860.286
04/19/2014  11:23:00       61.288       80.462       -3.411       45.212       32.515       33.762     2044.106     1057.206     1139.857        0.724        0.212      101.146       24.453        0.058      342.502       17.957      860.282
04/19/2014  11:24:00        5.371       39.747       -8.463       22.132       32.394       28.950      489.829     1049.355      838.112        0.203        0.119       40.108       24.377        0.369      343.339       19.383      860.246
04/19/2014  11:25:00       14.792        9.442       45.249       39.495       59.700       39.064     1559.868     3564.124     1526.011        0.450        0.333       17.549       26.201        2.229      343.166       19.086      860.224
04/19/2014  11:26:00      -52.526       -6.930        0.598       45.136       23.950       21.221     2037.297      573.598      450.318        0.293        0.153       52.981       16.968        0.103      342.954       18.725      860.217
04/19/2014  11:27:00       17.813      -25.947       11.712       42.405       30.155       36.874     1798.153      909.332     1359.674        0.260        0.203       31.473       27.262        0.750      342.884       18.607      860.225
04/19/2014  11:28:00      -16.403       28.028       26.666       21.534       26.315       21.498      463.712      692.472      462.183        0.169        0.081       32.475        9.633        0.088      343.622       19.864      860.220
04/19/2014  11:29:00      -34.489       11.799       19.067       33.738       35.046       25.286     1138.278     1228.203      639.395        0.235        0.150       36.452       19.104        0.275      343.715       20.023      860.184
04/19/2014  11:30:00       51.393     -113.111        2.055       76.441       83.940       43.365     5843.263     7045.960     1880.495        1.510        0.738      124.239       39.030        0.099      343.366       19.427      860.125
04/19/2014  11:31:00       62.762     -108.943        5.350       49.427       57.599       48.150     2443.037     3317.686     2318.458        1.196        0.404      125.729       43.006        0.117      343.372       19.439      860.115
04/19/2014  11:32:00       -4.236       51.837        5.674       41.060       75.461       35.420     1685.896     5694.418     1254.582        0.568        0.432       52.010       41.649        0.641      343.748       20.080      860.121
04/19/2014  11:33:00       11.474       45.267       31.843       56.664       62.691       44.652     3210.845     3930.127     1993.769        0.616        0.457       46.699       38.561        0.682      344.339       21.088      860.085
04/19/2014  11:34:00       58.872       34.169       22.009       95.938      150.349       71.083     9204.105    22604.788     5052.756        2.098        1.843       68.070       63.285        0.864      343.783       20.136      859.988
04/19/2014  11:35:00       24.130     -329.109      -56.709      164.032      101.123       58.013    26906.514    10225.847     3365.557        7.630        2.025      329.993       55.287        0.028      343.238       19.206      860.059
04/19/2014  11:36:00       13.116       34.571       54.353       77.110       85.578       55.218     5945.897     7323.648     3048.994        1.032        0.816       36.976       65.795        3.166      343.660       19.929      860.042
04/19/2014  11:37:00      -12.766       36.211       17.104       72.373       55.200       41.811     5237.896     3047.073     1748.182        0.590        0.502       38.396       43.469        1.282      343.391       19.470      860.020
04/19/2014  11:38:00      -57.925     -135.329        0.151       65.376      142.001       38.169     4273.958    20164.336     1456.834        2.378        1.295      147.205       31.932        0.047      343.488       19.634      860.076
04/19/2014  11:39:00     -307.934     -188.329       -5.991      167.794      132.381       81.282    28154.875    17524.780     6606.756        9.130        2.614      360.959       91.201        0.064      343.362       19.417      860.049
04/19/2014  11:40:00     -160.140     -110.848       -8.008      122.154       86.619       64.892    14921.500     7502.917     4210.930        3.231        1.332      194.762       64.703        0.110      343.529       19.703      860.006
04/19/2014  11:41:00     -257.748       -5.488       10.862      162.559      185.403       71.225    26425.513    34374.127     5073.051        6.621        3.294      257.806       78.212        0.092      343.577       19.783      859.975
04/19/2014  11:42:00     -253.472      -56.070       -3.404      177.911      118.553       76.376    31652.189    14054.827     5833.346        5.946        2.577      259.600       80.620        0.096      343.713       20.017      859.963
04/19/2014  11:43:00     -221.788      -61.154        4.947      148.113      110.209       58.664    21937.399    12146.003     3441.462        4.523        1.876      230.065       67.058        0.085      343.661       19.927      859.920
04/19/2014  11:44:00     -141.500     -204.702       17.646      155.049      108.680       77.847    24040.201    11811.235     6060.105        5.207        2.096      248.848       80.698        0.105      343.486       19.628      859.902
04/19/2014  11:45:00     -187.906      -97.928        9.417      128.346      111.814       66.339    16472.653    12502.405     4400.850        3.917        1.669      211.893       68.578        0.105      343.751       20.080      859.885
04/19/2014  11:46:00     -242.303      -77.249      -10.331      122.679      112.521       63.300    15050.207    12660.891     4006.883        4.825        1.586      254.319       67.071        0.070      343.813       20.187      859.893
04/19/2014  11:47:00     -120.151      -10.086       11.600       70.578       96.710       51.944     4981.264     9352.788     2698.158        1.585        0.852      120.574       38.409        0.101      343.924       20.377      859.864
04/19/2014  11:48:00     -240.758      -41.509        2.957      240.168      109.232       66.214    57680.544    11931.620     4384.247        6.683        3.700      244.310       89.193        0.133      343.789       20.145      859.842
04/19/2014  11:49:00     -234.013     -158.447       -7.972      192.441      130.783       92.924    37033.468    17104.124     8634.920        7.134        3.139      282.609      106.963        0.143      343.661       19.926      859.850
04/19/2014  11:50:00     -177.763     -130.241       12.595      151.908       99.436       64.603    23076.104     9887.441     4173.488        4.292        1.857      220.369       80.687        0.134      343.540       19.721      859.852
04/19/2014  11:51:00      -97.201     -101.972        4.259       96.247       83.611       52.289     9263.511     6990.737     2734.133        1.942        0.949      140.877       52.074        0.137      343.824       20.207      859.840
04/19/2014  11:52:00     -159.622     -149.481       11.272      169.497      109.496       75.975    28729.256    11989.483     5772.170        4.721        2.325      218.686       96.033        0.193      343.712       20.015      859.801
04/19/2014  11:53:00     -228.934      -25.893       -5.222       95.787      113.067       57.127     9175.198    12784.128     3263.457        3.916        1.261      230.394       58.120        0.064      343.758       20.092      859.732
04/19/2014  11:54:00     -409.765     -173.688      -13.283      220.481      171.506      108.687    48611.770    29414.200    11812.965       14.403        4.492      445.056      116.346        0.068      343.975       20.462      859.669
04/19/2014  11:55:00     -408.899     -243.790       -5.351      230.662      196.329       97.749    53204.946    38545.014     9554.960       16.396        5.065      476.059       99.668        0.044      343.799       20.162      859.629
04/19/2014  11:56:00     -390.652     -290.038       -3.718      249.460      161.694      112.969    62230.463    26145.011    12762.102       16.892        5.057      486.550      134.099        0.076      343.676       19.952      859.651
04/19/2014  11:57:00     -198.225     -210.381       26.082      197.522      176.445       96.393    39015.031    31132.765     9291.569        8.182        3.972      289.056      101.830        0.124      343.491       19.637      859.692
04/19/2014  11:58:00     -410.672      -70.009        1.102      196.325      165.782       89.574    38543.674    27483.558     8023.543       12.379        3.703      416.596       83.300        0.040      343.595       19.813      859.693
04/19/2014  11:59:00     -473.387     -137.216      -25.452      171.851      184.447       81.096    29532.750    34020.520     6576.529       15.684        3.506      492.873       76.999        0.024      343.452       19.570      859.668
04/19/2014  12:00:00     -546.540     -160.869      -16.544      215.441      164.084       88.123    46414.751    26923.671     7765.628       20.297        4.055      569.723       95.557        0.028      343.445       19.559      859.656
04/19/2014  12:01:00     -572.180     -279.282      -22.090      225.559      166.496       86.175    50876.712    27721.049     7426.215       24.593        4.301      636.701       80.490        0.016      343.561       19.757      859.633
04/19/2014  12:02:00     -436.916     -132.071      -21.270      206.917      237.378      103.078    42814.617    56348.279    10624.982       15.927        5.489      456.441      106.109        0.054      343.605       19.831      859.665
04/19/2014  12:03:00     -304.219     -118.674       -2.903      144.508      124.334       65.635    20882.685    15458.920     4307.975        7.364        2.032      326.547       59.054        0.033      343.614       19.846      859.688
04/19/2014  12:04:00      -62.573      -42.974       11.278       88.616       76.262       58.570     7852.795     5815.833     3430.460        1.149        0.855       75.909       52.076        0.471      344.197       20.845      859.669
04/19/2014  12:05:00      -63.674      -90.095       25.957      100.152      160.092       58.975    10030.467    25629.587     3478.030        2.598        1.957      110.325       60.495        0.301      344.030       20.558      859.670
04/19/2014  12:06:00     -166.006     -311.276       -0.027      171.040      140.361       76.705    29254.640    19701.304     5883.623        8.963        2.742      352.776       82.394        0.055      343.631       19.875      859.673
04/19/2014  12:07:00     -314.982     -169.661      -27.827      207.462      108.286       67.099    43040.446    11725.851     4502.218        9.401        2.963      357.769       84.098        0.055      343.885       20.308      859.647
04/19/2014  12:08:00     -348.494     -167.838       15.743      214.102      189.180       94.024    45839.722    35789.165     8840.565       12.015        4.523      386.804      111.081        0.082      343.828       20.212      859.613
04/19/2014  12:09:00     -570.506     -310.054      -14.637      211.553      211.525      108.748    44754.661    44742.947    11826.130       26.155        5.066      649.315      100.906        0.024      343.892       20.321      859.591
04/19/2014  12:10:00     -376.114     -198.699        0.069      262.692      139.991       93.711    69006.883    19597.512     8781.763       13.915        4.869      425.374      100.929        0.056      343.681       19.960      859.687
04/19/2014  12:11:00     -259.872      -16.933       19.875      228.094      135.020       96.978    52026.933    18230.348     9404.756        7.392        3.983      260.423      126.913        0.237      343.850       20.250      859.719
04/19/2014  12:12:00     -412.821       41.094      -32.542      245.136      167.249       65.831    60091.843    27972.159     4333.778       13.276        4.620      414.861       78.417        0.036      343.687       19.970      859.745
04/19/2014  12:13:00     -125.640      -63.528        4.537      181.616      115.597       92.302    32984.359    13362.558     8519.592        3.734        2.743      140.788       92.004        0.427      343.875       20.291      859.680
04/19/2014  12:14:00     -501.842      -35.062      -54.367      254.799      218.946       95.536    64922.417    47937.392     9127.189       18.898        6.099      503.066       97.886        0.038      343.883       20.307      859.641
04/19/2014  12:15:00     -560.096      -31.182      -28.916      216.030      173.699       98.917    46668.800    30171.249     9784.596       20.105        4.331      560.963      117.419        0.044      343.785       20.139      859.615
04/19/2014  12:16:00     -239.855      -68.721       10.536      188.378      142.588       84.876    35486.278    20331.210     7203.892        6.268        3.151      249.505       95.654        0.147      344.160       20.780      859.627
04/19/2014  12:17:00     -369.054     -130.562      -14.847      275.079      233.744       86.344    75668.548    54636.142     7455.241       14.559        6.888      391.468      118.922        0.092      343.967       20.449      859.616
04/19/2014  12:18:00     -444.754     -147.392       -6.126      269.866      210.989      101.009    72827.407    44516.558    10202.765       17.353        6.377      468.540      115.721        0.061      343.884       20.307      859.577
04/19/2014  12:19:00     -201.546      -41.825       15.904      178.634      130.356       79.940    31910.041    16992.655     6390.396        4.895        2.765      205.840       90.665        0.194      344.338       21.084      859.598
04/19/2014  12:20:00     -470.548     -112.775      -17.671      215.153      186.419       96.822    46290.841    34751.914     9374.466       16.241        4.521      483.873      100.082        0.043      344.069       20.624      859.592
04/19/2014  12:21:00     -464.825     -176.208       -3.756      283.258      205.214      121.185    80235.304    42112.816    14685.748       19.205        6.852      497.103      134.158        0.073      344.029       20.556      859.580
04/19/2014  12:22:00     -520.442     -217.361      -11.273      289.404      275.724      137.493    83754.662    76023.854    18904.282       24.842        8.934      564.008      172.744        0.094      343.902       20.338      859.549
04/19/2014  12:23:00     -260.164      -87.458       11.750      155.827      158.705       93.725    24282.061    25187.349     8784.369        6.685        2.913      274.471       67.471        0.060      344.265       20.958      859.601
04/19/2014  12:24:00     -481.529     -100.683      -10.145      235.476      159.342      112.310    55449.141    25389.819    12613.463       16.776        4.673      491.942      115.598        0.055      344.049       20.589      859.613
04/19/2014  12:25:00     -417.511     -128.361      -27.769      242.096      177.705       92.228    58610.695    31578.933     8505.995       14.511        4.935      436.797      118.670        0.074      343.978       20.467      859.635
04/19/2014  12:26:00     -397.753     -184.172      -26.457      237.886      156.126       98.115    56589.922    24375.348     9626.609       14.169        4.530      438.323       97.260        0.049      343.949       20.420      859.641
04/19/2014  12:27:00     -349.564     -112.361        1.502      192.895      202.294       97.824    37208.535    40922.815     9569.449       11.124        4.385      367.179      114.150        0.097      343.887       20.313      859.617
04/19/2014  12:28:00     -295.752      -81.441       -9.531      219.427      159.879       93.411    48148.331    25561.424     8725.647        8.830        4.122      306.760      103.588        0.114      344.051       20.592      859.600
04/19/2014  12:29:00     -457.872      -93.598      -21.828      285.566      225.746      118.786    81548.134    50961.138    14110.107       18.272        7.331      467.340      148.342        0.101      344.154       20.769      859.635
04/19/2014  12:30:00     -450.511     -165.453       13.956      279.476      253.929      115.992    78107.008    64480.045    13454.071       19.325        7.802      479.932      140.840        0.086      344.088       20.655      859.641
04/19/2014  12:31:00     -287.596     -145.300       -8.971      237.590      200.500       81.491    56449.006    40200.221     6640.761       10.358        5.164      322.216       98.619        0.094      344.126       20.723      859.673
04/19/2014  12:32:00     -313.805     -175.248       -6.305      244.122      198.048      104.685    59595.706    39223.077    10958.975       11.948        5.489      359.424      130.820        0.132      344.297       21.014      859.684
04/19/2014  12:33:00     -551.127     -254.765      -11.320      261.734      225.176      120.938    68504.771    50704.339    14625.975       25.128        6.692      607.162      125.047        0.042      343.781       20.130      859.675
04/19/2014  12:34:00     -514.406     -214.177      -10.032      259.807      206.708      105.091    67499.858    42728.097    11044.071       21.590        6.064      557.213       96.651        0.030      343.752       20.081      859.746
04/19/2014  12:35:00     -477.217     -100.044      -18.122      301.233      189.212      119.683    90741.596    35801.052    14323.961       18.944        7.043      487.591      145.203        0.089      343.771       20.114      859.773
04/19/2014  12:36:00     -600.935      -80.744      -40.639      240.708      219.641       99.998    57940.461    48242.270     9999.507       24.271        5.809      606.335      108.759        0.032      343.688       19.972      859.751
04/19/2014  12:37:00     -570.916      -85.325      -41.197      264.500      203.914      102.490    69960.181    41581.115    10504.216       22.846        6.102      577.257      120.689        0.044      343.738       20.059      859.754
04/19/2014  12:38:00     -580.575     -231.957      -29.227      306.118      180.636      107.551    93708.023    32629.319    11567.132       26.479        6.895      625.197      122.397        0.038      343.729       20.043      859.753
04/19/2014  12:39:00     -454.181      -67.420       -4.269      215.664      226.106      114.511    46510.875    51124.064    13112.864       16.077        5.537      459.157      118.199        0.066      343.948       20.416      859.805
04/19/2014  12:40:00     -489.032     -311.507      -24.322      221.811      218.075      115.152    49200.144    47556.849    13259.891       22.338        5.501      579.818      132.463        0.052      343.686       19.969      859.795
04/19/2014  12:41:00     -566.855     -264.339      -27.641      284.632      188.403      111.954    81015.622    35495.710    12533.745       26.048        6.452      625.460      128.992        0.043      343.687       19.969      859.781
04/19/2014  12:42:00     -371.042     -204.194       12.955      284.976      205.991      110.182    81211.289    42432.297    12140.131       15.763        6.789      423.518      132.840        0.098      343.825       20.207      859.803
04/19/2014  12:43:00     -359.561     -330.495       -8.248      225.054      181.318       96.638    50649.191    32876.111     9338.924       16.570        4.643      488.376      102.898        0.044      343.887       20.313      859.805
04/19/2014  12:44:00     -451.490     -258.575      -19.523      200.986      170.693       95.009    40395.221    29136.066     9026.740       17.481        3.928      520.293      104.686        0.040      343.863       20.271      859.828
04/19/2014  12:45:00     -522.280     -298.974       -2.707      296.270      182.060      109.805    87775.993    33145.988    12057.202       24.755        6.649      601.799      125.395        0.043      343.823       20.201      859.802
04/19/2014  12:46:00     -550.388     -242.715      -15.770      311.390      204.516      110.223    96963.476    41826.924    12149.076       25.648        7.547      601.529      149.441        0.062      343.978       20.467      859.807
04/19/2014  12:47:00     -450.662     -195.853       20.022      268.406      238.244      109.908    72041.702    56760.246    12079.694       19.134        7.044      491.380      118.319        0.058      343.892       20.322      859.898
04/19/2014  12:48:00     -484.445     -251.720      -14.105      251.544      232.434      119.509    63274.156    54025.367    14282.292       21.489        6.579      545.939      141.382        0.067      343.664       19.932      859.917
04/19/2014  12:49:00     -400.619     -243.692        3.247      286.137      232.614      103.304    81874.330    54109.348    10671.718       18.324        7.333      468.915      120.487        0.066      343.699       19.991      859.831
04/19/2014  12:50:00     -515.835     -334.803       16.168      290.119      245.401      126.991    84169.036    60221.677    16126.628       26.945        8.026      614.963      149.528        0.059      343.610       19.838      859.779
04/19/2014  12:51:00     -494.478     -354.302        4.781      286.440      240.934      118.695    82047.610    58049.128    14088.541       26.209        7.709      608.308      133.795        0.048      343.687       19.971      859.786
04/19/2014  12:52:00     -387.222     -238.547        8.035      278.742      195.612      117.626    77697.333    38263.979    13835.904       16.833        6.490      454.803      110.163        0.059      343.797       20.157      859.846
04/19/2014  12:53:00     -644.073     -365.903      -20.002      307.601      190.696      117.518    94618.477    36365.042    13810.374       34.693        7.240      740.753      138.155        0.035      343.686       19.968      859.819
04/19/2014  12:54:00     -482.073     -239.153      -11.793      266.505      188.410      110.067    71024.772    35498.168    12114.699       20.416        5.932      538.134      130.186        0.059      343.686       19.970      859.834
04/19/2014  12:55:00     -378.081      -89.234      -13.223      272.170      119.545       73.756    74076.744    14291.110     5439.977       12.243        4.690      388.468      106.157        0.075      343.831       20.218      859.818
04/19/2014  12:56:00     -192.793     -132.408       -2.267      141.983      150.229       67.250    20159.227    22568.621     4522.563        5.097        2.363      233.882       69.597        0.089      344.134       20.736      859.784
04/19/2014  12:57:00     -258.247     -155.911       11.413      238.122      172.365       88.426    56702.261    29709.751     7819.235        9.266        4.712      301.662      109.468        0.132      344.362       21.125      859.819
04/19/2014  12:58:00     -445.250     -204.357       -2.005      225.054      226.009      106.624    50649.138    51079.954    11368.612       17.653        5.655      489.907      119.597        0.060      343.661       19.928      859.828
04/19/2014  12:59:00     -475.805     -236.276      -19.003      253.977      195.909      102.639    64504.256    38380.388    10534.669       19.798        5.671      531.241      107.404        0.041      343.794       20.153      859.759
04/19/2014  13:00:00     -577.140     -168.241      -15.397      231.064      206.144      107.011    53390.530    42495.543    11451.405       23.446        5.367      601.161      115.791        0.037      343.911       20.352      859.734
04/19/2014  13:01:00     -297.760     -119.220      -14.451      182.644       91.532       74.283    33358.773     8378.157     5518.008        7.516        2.363      320.740       53.428        0.028      344.013       20.527      859.743
04/19/2014  13:02:00     -269.233     -210.756      -10.081      310.982      184.273       96.795    96709.648    33956.704     9369.335       12.849        7.002      341.913      133.264        0.152      344.131       20.729      859.741
04/19/2014  13:03:00     -569.068     -348.779       -9.151      290.536      184.561      119.145    84411.167    34062.789    14195.649       28.909        6.633      667.446      127.324        0.036      343.739       20.060      859.700
04/19/2014  13:04:00     -462.287     -349.929      -32.702      265.453      214.866      104.971    70465.040    46167.549    11018.956       23.241        6.383      579.793      103.541        0.032      343.806       20.175      859.702
04/19/2014  13:05:00     -407.713     -285.134       -8.936      275.078      174.875       99.404    75667.870    30581.280     9881.254       18.185        5.807      497.525      105.007        0.045      343.765       20.104      859.720
04/19/2014  13:06:00     -337.503     -234.558       -7.261      218.536      223.854       79.357    47757.885    50110.606     6297.512       13.655        5.208      411.006       76.727        0.035      343.852       20.251      859.715
04/19/2014  13:07:00     -649.397     -201.379      -44.346      275.923      264.651      111.712    76133.573    70039.920    12479.660       31.141        7.933      679.904       98.098        0.021      343.680       19.960      859.682
04/19/2014  13:08:00     -586.664     -275.116      -12.373      278.443      199.560      101.376    77530.279    39824.050    10277.050       27.380        6.382      647.969      125.375        0.037      343.723       20.032      859.647
04/19/2014  13:09:00     -288.170     -140.059        3.298      208.304      143.319       77.482    43390.555    20540.362     6003.455        8.629        3.497      320.404       76.048        0.056      344.022       20.544      859.651
04/19/2014  13:10:00     -377.298     -353.580      -14.706      182.358      199.860       87.165    33254.568    39943.993     7597.735       17.418        4.040      517.080       71.262        0.019      343.899       20.334      859.647
04/19/2014  13:11:00     -323.038     -244.517      -18.837      227.606      128.750       91.580    51804.264    16576.546     8386.869       12.062        3.838      405.145       87.103        0.046      344.080       20.640      859.639
04/19/2014  13:12:00     -339.010     -221.760        0.683      250.648      165.841       91.307    62824.417    27503.348     8336.965       13.137        4.933      405.099      108.878        0.072      344.091       20.660      859.624
04/19/2014  13:13:00     -220.756      -89.838        4.037      239.928      170.081       94.254    57565.312    28927.627     8883.736        7.608        4.769      238.336      111.215        0.218      344.255       20.943      859.653
04/19/2014  13:14:00     -363.724     -270.304      -19.901      254.369      176.029      100.298    64703.628    30986.255    10059.783       15.573        5.287      453.166      109.986        0.059      343.965       20.446      859.645
04/19/2014  13:15:00     -363.651     -185.217        6.650      198.504      140.998       97.347    39403.835    19880.515     9476.375       11.766        3.438      408.102       91.066        0.050      344.084       20.648      859.642
04/19/2014  13:16:00     -527.552     -239.535        0.976      282.907      199.207      110.187    80036.292    39683.257    12141.235       23.375        6.593      579.386      133.543        0.053      343.904       20.343      859.647
04/19/2014  13:17:00     -231.245     -168.614       12.626      197.358      182.062      106.651    38950.031    33146.427    11374.451        8.275        4.174      286.191      108.016        0.142      344.216       20.875      859.642
04/19/2014  13:18:00     -254.519     -156.981        1.238      226.999      172.914       76.830    51528.533    29899.377     5902.878        8.836        4.367      299.037       92.614        0.096      344.290       21.001      859.685
04/19/2014  13:19:00     -479.224     -221.597      -16.394      209.210      163.850       91.650    43768.938    26846.940     8399.682       17.901        3.951      527.978       98.012        0.034      343.946       20.413      859.629
04/19/2014  13:20:00     -437.998     -343.201      -16.931      261.195      277.758      104.812    68222.867    77149.370    10985.479       23.311        7.818      556.444      128.963        0.054      343.978       20.468      859.634
04/19/2014  13:21:00     -699.921     -521.199      -29.516      235.809      200.004      130.312    55605.681    40001.561    16981.197       43.748        5.629      872.661      138.652        0.025      343.702       19.996      859.597
04/19/2014  13:22:00     -359.511     -302.340      -15.633      224.117      196.635       85.722    50228.342    38665.261     7348.339       15.855        4.812      469.742       89.535        0.036      343.899       20.334      859.623
04/19/2014  13:23:00     -335.675     -228.951      -13.591      186.437      179.188       89.071    34758.729    32108.423     7933.619       12.003        3.740      406.320       93.781        0.053      344.219       20.880      859.646
04/19/2014  13:24:00     -121.336      -86.475       10.709      115.612       94.396       56.571    13366.085     8910.687     3200.301        2.389        1.274      148.998       58.553        0.154      344.348       21.102      859.660
04/19/2014  13:25:00     -153.012     -200.061       18.364      134.644      138.478       73.799    18129.061    19176.276     5446.263        5.325        2.138      251.867       75.549        0.090      344.310       21.036      859.631
04/19/2014  13:26:00     -144.947     -119.947       17.534      132.266       83.626       58.613    17494.338     6993.374     3435.476        3.181        1.396      188.141       56.129        0.089      344.482       21.329      859.632
04/19/2014  13:27:00     -276.766     -172.848       24.687      238.079      189.896       97.318    56681.665    36060.669     9470.780       10.463        5.111      326.306      114.260        0.123      344.554       21.453      859.612
04/19/2014  13:28:00     -421.023     -157.062      -24.267      291.833      191.532       88.951    85166.238    36684.594     7912.209       16.611        6.488      449.365       99.299        0.049      344.132       20.732      859.659
04/19/2014  13:29:00     -552.612     -434.819      -22.806      221.445      159.667      105.510    49038.089    25493.570    11132.409       29.030        4.283      703.170      104.411        0.022      344.097       20.670      859.606
04/19/2014  13:30:00     -468.075     -276.345      -25.713      227.210      182.104       97.716    51624.479    33161.799     9548.432       19.521        4.717      543.563      113.901        0.044      344.242       20.918      859.586
04/19/2014  13:31:00     -381.955      -26.061      -16.545      292.533      192.670      105.545    85575.449    37121.716    11139.713       14.031        6.692      382.843      110.177        0.083      344.428       21.236      859.554
04/19/2014  13:32:00     -344.668     -197.609       -6.173      205.413      174.939      104.114    42194.457    30603.786    10839.730       12.074        4.182      397.298      114.274        0.083      344.401       21.191      859.623
04/19/2014  13:33:00     -369.923     -155.411        0.765      261.524      192.136      115.526    68394.901    36916.227    13346.206       13.980        5.933      401.242      128.975        0.103      344.214       20.869      859.620
04/19/2014  13:34:00     -519.548      -25.916      -18.452      206.474      219.048       94.707    42631.523    47982.185     8969.422       18.524        4.979      520.194       78.690        0.023      344.140       20.746      859.641
04/19/2014  13:35:00     -250.860     -113.862        2.100      193.845      122.309       78.827    37576.038    14959.605     6213.648        6.731        2.937      275.491       98.609        0.128      344.305       21.028      859.629
04/19/2014  13:36:00     -260.073        8.675       -0.750      230.263      177.894       71.469    53020.954    31646.261     5107.831        7.873        4.489      260.218       95.768        0.135      344.466       21.302      859.622
04/19/2014  13:37:00     -508.765     -341.778      -42.474      232.510      167.649      104.810    54060.701    28106.051    10985.068       23.529        4.658      612.906      103.898        0.029      343.986       20.481      859.628
04/19/2014  13:38:00     -466.303     -253.466       -9.293      213.797      224.754      100.897    45709.334    50514.580    10180.215       19.407        5.320      530.739      112.968        0.045      343.947       20.414      859.633
04/19/2014  13:39:00     -255.460     -141.971       19.000      214.154      184.023       95.414    45862.079    33864.628     9103.912        8.729        4.442      292.259      105.985        0.132      344.344       21.093      859.660
04/19/2014  13:40:00     -229.544      -62.009       31.774      255.952      127.673       85.608    65511.619    16300.293     7328.674        7.332        4.457      237.772      117.891        0.246      344.389       21.171      859.655
04/19/2014  13:41:00     -198.376      -73.329        6.645      198.692      139.830       86.294    39478.471    19552.321     7446.623        5.561        3.324      211.496       99.868        0.223      344.305       21.027      859.646
04/19/2014  13:42:00     -301.899        9.088       -0.394      231.683      138.308       93.181    53676.902    19129.015     8682.760        8.634        4.074      302.036      115.583        0.146      344.315       21.044      859.627
04/19/2014  13:43:00     -462.282     -194.363      -28.388      196.026      172.443       84.786    38426.281    29736.424     7188.583       16.380        3.768      501.479       80.634        0.026      344.168       20.793      859.621
04/19/2014  13:44:00     -335.484     -133.045       -9.369      238.787      187.764      106.460    57019.162    35255.343    11333.759       11.695        5.180      360.903      113.579        0.099      344.448       21.272      859.602
04/19/2014  13:45:00     -225.393      -60.254       11.118      210.693      124.016       76.737    44391.654    15379.860     5888.611        6.009        3.283      233.308       73.665        0.100      344.579       21.497      859.599
04/19/2014  13:46:00     -389.426     -268.530       -8.765      253.408      231.661      118.705    64215.606    53666.944    14090.897       17.788        6.599      473.033      139.686        0.087      344.446       21.268      859.630
04/19/2014  13:47:00     -440.936     -194.496      -10.582      213.701      214.313       97.924    45668.312    45929.857     9589.057       16.676        5.059      481.926       94.091        0.038      344.279       20.982      859.655
04/19/2014  13:48:00     -318.592      -92.042       13.765      209.933      176.002       91.421    44071.688    30976.748     8357.868        9.677        4.170      331.621       65.860        0.039      344.558       21.458      859.717
04/19/2014  13:49:00     -321.792     -151.978       18.360      295.499      204.887      117.913    87319.812    41978.532    13903.373       13.506        7.160      355.875      129.433        0.132      344.253       20.938      859.679
04/19/2014  13:50:00     -441.850     -252.354      -20.913      228.912      198.347      109.741    52400.496    39341.709    12043.039       18.155        5.189      508.836      122.054        0.058      344.062       20.612      859.692
04/19/2014  13:51:00     -332.414     -126.981       -5.494      161.404      155.334       83.929    26051.294    24128.659     7044.044        9.193        2.861      355.841       73.188        0.042      344.463       21.295      859.731
04/19/2014  13:52:00     -476.242      -78.757        4.951      238.008      151.001       87.439    56647.921    22801.171     7645.516       16.005        4.355      482.710       98.446        0.042      344.034       20.564      859.725
04/19/2014  13:53:00     -484.852     -105.596      -34.105      198.598      186.919       85.138    39441.147    34938.646     7248.421       16.450        4.081      496.218       94.660        0.036      344.221       20.882      859.693
04/19/2014  13:54:00     -263.013     -110.699        4.582      186.944      187.315       97.654    34948.215    35086.810     9536.387        8.050        3.979      285.359      104.200        0.133      344.459       21.290      859.698
04/19/2014  13:55:00     -515.661       26.007      -52.608      209.129      167.533       83.376    43734.794    28067.332     6951.564       17.404        3.938      516.316       85.100        0.027      344.337       21.082      859.659
04/19/2014  13:56:00     -481.422     -196.732       -4.626      263.789      215.101      117.490    69584.376    46268.256    13803.813       20.005        6.483      520.068      131.746        0.064      344.403       21.194      859.653
04/19/2014  13:57:00     -402.071     -253.053       -7.010      357.788      221.879      106.490   128012.575    49230.372    11340.139       20.713        9.429      475.076      106.541        0.050      344.404       21.195      859.672
04/19/2014  13:58:00     -419.573     -267.040       -9.362      283.701      204.874      130.465    80486.016    41973.402    17021.221       19.343        6.974      497.345      141.223        0.081      344.254       20.939      859.683
04/19/2014  13:59:00     -485.959     -239.475      -10.780      259.519      214.511      116.334    67350.366    46015.070    13533.667       21.023        6.345      541.761      140.386        0.067      344.164       20.786      859.699
04/19/2014  14:00:00     -225.788     -120.813        4.826      166.806      151.810       80.201    27824.267    23046.386     6432.278        6.144        2.865      256.078       77.349        0.091      344.111       20.695      859.717
04/19/2014  14:01:00     -308.091      -58.511       -3.650      236.993      123.111       74.548    56165.804    15156.408     5557.404        8.760        3.844      313.598       93.637        0.089      344.390       21.172      859.700
04/19/2014  14:02:00     -325.498     -145.883      -10.054      238.944      161.567       90.719    57094.000    26103.933     8229.902       10.936        4.571      356.694       96.535        0.073      344.401       21.190      859.698
04/19/2014  14:03:00     -604.430     -110.679      -16.697      257.845      177.940       99.143    66484.077    31662.487     9829.363       24.290        5.399      614.480      109.929        0.032      344.081       20.644      859.703
04/19/2014  14:04:00     -315.981      -82.163        6.630      203.686      231.151       99.966    41488.123    53430.861     9993.198       10.575        5.246      326.488      103.635        0.101      344.369       21.135      859.661
04/19/2014  14:05:00     -510.552      -14.512      -23.880      263.307      222.581      100.646    69330.649    49542.282    10129.608       19.520        6.450      510.758      113.082        0.049      344.218       20.877      859.640
04/19/2014  14:06:00     -635.998     -193.421      -30.605      264.979      206.254      114.571    70213.980    42540.767    13126.456       28.434        6.294      664.759      135.206        0.041      344.103       20.682      859.630
04/19/2014  14:07:00     -366.298      -44.834       14.633      267.225      193.950      111.064    71409.131    37616.586    12335.319       12.886        6.068      369.032      136.482        0.137      344.322       21.056      859.637
04/19/2014  14:08:00     -317.794      -51.940       -4.694      226.619      189.561      110.480    51356.087    35933.344    12205.917       10.158        4.975      322.010      118.818        0.136      344.459       21.289      859.608
04/19/2014  14:09:00     -637.412     -329.137      -47.118      305.516      191.802      110.679    93339.965    36788.129    12249.888       32.958        7.119      717.374      128.477        0.032      344.115       20.702      859.608
04/19/2014  14:10:00     -245.641     -137.756       -5.257      177.330      128.621       83.322    31445.769    16543.311     6942.503        6.713        2.747      281.632       94.122        0.112      344.381       21.156      859.659
04/19/2014  14:11:00     -381.266      -35.903      -14.775      233.842      132.983       83.616    54681.918    17684.556     6991.674       11.310        3.968      382.953      112.967        0.087      344.415       21.213      859.681
04/19/2014  14:12:00     -217.555     -206.445       13.206      188.993      155.018       82.175    35718.373    24030.458     6752.795        7.830        3.325      299.916       82.329        0.075      344.305       21.027      859.666
04/19/2014  14:13:00     -102.880      -99.036       29.685      134.218      131.553       72.475    18014.373    17306.167     5252.692        3.092        2.029      142.802       71.196        0.249      344.908       22.059      859.683
04/19/2014  14:14:00     -239.455     -161.570        4.589      224.578      136.141       76.068    50435.300    18534.412     5786.352        7.910        3.738      288.866       99.040        0.118      344.575       21.488      859.694
04/19/2014  14:15:00     -144.147     -123.842        8.580      156.226      146.166       66.247    24406.717    21364.477     4388.648        4.316        2.508      190.040       75.841        0.159      344.808       21.887      859.677
04/19/2014  14:16:00     -392.550      -41.207      -18.982      210.397      180.389       76.271    44267.069    32540.057     5817.232       11.937        4.131      394.707       84.038        0.045      344.648       21.615      859.660
04/19/2014  14:17:00     -367.229     -161.867       -2.415      262.644      216.588      101.798    68981.765    46910.248    10362.912       14.363        6.313      401.320      119.788        0.089      344.456       21.284      859.633
04/19/2014  14:18:00     -618.532     -191.232      -20.761      289.057      208.184      113.517    83553.976    43340.671    12886.178       27.965        6.989      647.419      122.100        0.036      344.397       21.183      859.573
04/19/2014  14:19:00     -516.462     -117.543      -12.964      273.122      197.942      103.322    74595.856    39181.124    10675.451       20.256        6.223      529.670      114.869        0.047      344.343       21.092      859.526
04/19/2014  14:20:00     -259.542     -231.598       -2.858      169.163      221.456       99.995    28616.077    49042.580     9998.924       10.432        4.383      347.850      104.686        0.091      344.409       21.204      859.561
04/19/2014  14:21:00     -193.362     -198.801       22.760      183.399      157.861       98.924    33635.054    24919.952     9786.024        7.287        3.417      277.328       94.402        0.116      344.600       21.532      859.595
04/19/2014  14:22:00     -243.117      -87.233        5.031      153.965      108.234       70.419    23705.262    11714.682     4958.874        5.355        2.019      258.294       72.665        0.079      344.773       21.828      859.571
04/19/2014  14:23:00      -74.623     -100.832       10.913       97.277      125.159       52.444     9462.782    15664.812     2750.405        2.186        1.394      125.442       37.982        0.092      344.886       22.023      859.535
04/19/2014  14:24:00     -168.618      -57.854       -1.789      137.926      107.800       58.673    19023.559    11620.854     3442.515        3.293        1.704      178.267       65.872        0.137      344.886       22.020      859.540
04/19/2014  14:25:00     -582.060     -184.693       -9.766      296.903      265.571      119.953    88151.289    70528.128    14388.769       27.300        8.653      610.660      120.872        0.039      344.246       20.925      859.507
04/19/2014  14:26:00     -309.880      -80.578      -18.476      276.661      151.028       95.225    76541.264    22809.403     9067.829       10.562        5.421      320.185      110.740        0.120      344.471       21.310      859.498
04/19/2014  14:27:00     -348.179     -165.441       17.156      239.326      196.294      121.271    57276.899    38531.414    14706.575       12.968        5.526      385.486      127.514        0.109      344.509       21.375      859.455
04/19/2014  14:28:00     -531.129     -212.334      -12.681      241.414      176.502       96.517    58280.694    31153.100     9315.442       21.303        4.937      572.000      104.524        0.033      344.497       21.355      859.438
04/19/2014  14:29:00     -460.189     -173.860      -11.819      270.443      170.111      104.128    73139.457    28937.600    10842.557       17.751        5.646      491.937      132.406        0.072      344.450       21.273      859.442
04/19/2014  14:30:00     -603.636     -114.503      -38.096      279.416      165.751       98.713    78073.106    27473.321     9744.229       24.709        5.765      614.400      121.956        0.039      344.488       21.340      859.424
04/19/2014  14:31:00     -315.595     -180.500       -6.904      192.681      176.275      102.075    37125.969    31072.779    10419.355       10.541        3.931      363.566      108.596        0.089      344.806       21.883      859.445
04/19/2014  14:32:00     -496.735      -84.614      -17.785      184.929      207.113       76.656    34198.586    42895.623     5876.118       16.858        4.149      503.890       72.896        0.021      344.599       21.529      859.429
04/19/2014  14:33:00     -312.323      -25.210       -8.134      214.816      148.641       77.793    46145.938    22094.133     6051.827        8.625        3.715      313.339       76.624        0.060      344.963       22.152      859.418
04/19/2014  14:34:00     -277.060     -155.351        6.976      209.910      172.487       93.565    44062.398    29751.879     8754.478        9.174        4.128      317.642      101.466        0.102      344.799       21.871      859.397
04/19/2014  14:35:00     -471.418     -142.010      -19.356      217.016      227.206       98.392    47095.948    51622.647     9681.016       17.557        5.420      492.343       91.957        0.035      344.368       21.133      859.352
04/19/2014  14:36:00     -502.015     -120.211      -24.587      243.478      178.557      100.973    59281.305    31882.538    10195.641       18.420        5.068      516.207       90.710        0.031      344.434       21.247      859.323
04/19/2014  14:37:00     -426.880      -66.753       -7.820      265.236      188.549      110.330    70350.026    35550.897    12172.614       15.239        5.904      432.068      126.473        0.086      344.553       21.449      859.341
04/19/2014  14:38:00     -317.242     -147.301        0.867      236.697      174.241      108.266    56025.415    30360.087    11721.608       11.020        4.905      349.771      126.191        0.130      344.515       21.384      859.301
04/19/2014  14:39:00     -355.875      -19.479       -9.736      248.941      128.959       87.633    61971.606    16630.411     7679.499       10.668        4.314      356.408      114.672        0.104      344.842       21.946      859.275
04/19/2014  14:40:00     -328.656     -132.732       -0.032      241.725      181.032      110.843    58430.985    32772.713    12286.234       11.454        5.174      354.447      119.292        0.113      344.652       21.618      859.232
04/19/2014  14:41:00     -599.673     -102.186      -40.275      143.616      161.356       72.744    20625.478    26035.827     5291.645       21.180        2.598      608.317       65.665        0.012      344.473       21.313      859.242
04/19/2014  14:42:00     -739.216     -230.222      -36.932      295.762      202.445      114.504    87474.989    40983.988    13111.101       37.116        7.079      774.236      119.099        0.024      344.361       21.123      859.208
04/19/2014  14:43:00     -395.936      -96.356      -18.569      241.509      182.505       95.549    58326.529    33308.016     9129.600       13.356        5.038      407.492      115.670        0.081      344.654       21.623      859.203
04/19/2014  14:44:00     -416.763     -107.959      -18.402      231.818      161.420       91.709    53739.600    26056.454     8410.455       13.693        4.410      430.519       97.960        0.052      344.729       21.752      859.197
04/19/2014  14:45:00     -389.871       19.240        5.557      311.309      207.321      117.809    96913.450    42982.166    13878.970       15.306        7.689      390.346      135.568        0.121      344.937       22.107      859.184
04/19/2014  14:46:00     -427.463     -215.363       -5.639      269.267      223.642      131.078    72504.507    50015.943    17181.387       18.439        6.985      478.650      135.622        0.080      344.584       21.503      859.157
04/19/2014  14:47:00     -491.132     -344.413       -5.896      325.170      251.488      131.482   105735.692    63246.156    17287.483       27.303        9.313      599.859      144.280        0.058      344.384       21.162      859.183
04/19/2014  14:48:00     -674.330     -488.558      -24.464      358.155      242.688      144.231   128275.179    58897.428    20802.558       45.095       10.399      832.713      167.522        0.040      344.115       20.701      859.142
04/19/2014  14:49:00     -602.090     -364.406      -20.467      319.300      240.223      115.432   101952.687    57707.187    13324.496       33.432        8.649      703.779      137.034        0.038      344.188       20.827      859.132
04/19/2014  14:50:00     -621.811     -154.942      -33.632      427.526      199.526      126.110   182778.825    39810.768    15903.768       32.509       11.925      640.825      180.249        0.079      344.364       21.126      859.175
04/19/2014  14:51:00     -588.146     -245.600       -6.948      239.026      198.871      117.551    57133.451    39549.724    13818.341       25.837        5.525      637.366      119.838        0.035      344.252       20.936      859.166
04/19/2014  14:52:00     -670.743      -97.525      -20.364      246.259      268.603      107.274    60643.372    72147.491    11507.667       30.203        7.215      677.796      119.878        0.031      344.234       20.906      859.184
04/19/2014  14:53:00     -654.590      -78.724      -38.840      274.382      192.181      103.282    75285.622    36933.606    10667.266       27.952        6.144      659.307      127.494        0.037      344.385       21.163      859.185
04/19/2014  14:54:00     -410.794      -67.951       -1.928      252.773      164.277       86.200    63894.303    26986.878     7430.426       13.582        4.916      416.376      109.382        0.069      344.610       21.546      859.169
04/19/2014  14:55:00     -414.327     -235.265       -0.347      269.185      174.743      103.513    72460.656    30535.103    10714.903       17.034        5.686      476.463      130.189        0.075      344.516       21.387      859.119
04/19/2014  14:56:00     -759.626     -210.023      -37.253      308.163      241.637      122.015    94964.575    58388.371    14887.777       39.535        8.412      788.125      136.639        0.030      344.258       20.945      859.083
04/19/2014  14:57:00     -455.637     -130.743      -28.959      213.037      180.520       97.955    45384.603    32587.489     9595.258       15.653        4.378      474.024      107.927        0.052      344.432       21.244      859.088
04/19/2014  14:58:00     -612.143     -175.002      -17.710      357.477      285.791      123.894   127789.941    81676.421    15349.701       31.519       11.241      636.667      163.817        0.066      344.409       21.203      859.070
04/19/2014  14:59:00     -482.082     -244.122       16.170      372.599      295.763      151.262   138829.702    87475.762    22880.088       27.067       12.459      540.369      174.469        0.104      344.239       20.914      859.013
04/19/2014  15:00:00     -307.788     -103.996       11.973      320.831      195.165      120.967   102932.451    38089.194    14633.076       13.064        7.783      324.882      142.301        0.192      344.610       21.549      859.049
04/19/2014  15:01:00     -635.743      -90.356      -52.844      247.526      213.405       93.996    61269.080    45541.859     8835.197       26.536        5.782      642.132       96.472        0.023      344.454       21.280      859.063
04/19/2014  15:02:00     -545.562      -84.325      -19.223      252.703      133.094       90.789    63858.646    17713.934     8242.644       19.745        4.491      552.041      103.754        0.035      344.533       21.416      859.117
04/19/2014  15:03:00     -570.842     -112.258      -14.376      328.645      180.530      100.798   108007.384    32591.020    10160.286       24.468        7.538      581.775      125.135        0.046      344.330       21.069      859.093
04/19/2014  15:04:00     -323.090     -205.787      -24.754      166.260      141.117       77.289    27642.508    19913.988     5973.605       10.043        2.677      383.060       65.793        0.029      344.555       21.453      859.113
04/19/2014  15:05:00     -318.794     -162.485      -21.979      234.633      160.591       73.110    55052.496    25789.376     5345.004       10.733        4.309      357.815       94.663        0.070      344.674       21.658      859.116
04/19/2014  15:06:00     -589.139     -239.358       -7.460      327.482      263.778      143.552   107244.141    69578.794    20607.038       30.089        9.871      635.906      163.025        0.066      344.464       21.298      859.061
04/19/2014  15:07:00     -380.787     -186.334       19.040      322.058      256.143      133.716   103721.375    65609.330    17880.041       18.361        9.361      423.933      165.149        0.152      344.665       21.643      859.118
04/19/2014  15:08:00     -763.495     -468.190      -18.915      383.111      255.983      150.484   146774.094    65527.105    22645.291       51.867       11.747      895.616      187.455        0.044      344.219       20.879      859.051
04/19/2014  15:09:00     -595.791     -369.352      -15.000      321.678      200.597      119.336   103477.055    40239.173    14241.044       32.475        7.898      700.991      150.727        0.046      344.183       20.818      859.131
04/19/2014  15:10:00     -407.437     -320.172       22.874      257.051      204.381      104.507    66075.194    41771.498    10921.637       19.388        5.938      518.184      125.620        0.059      344.324       21.058      859.125
04/19/2014  15:11:00     -375.645     -257.958       -4.126      224.590      153.579      110.193    50440.645    23586.506    12142.591       14.690        4.308      455.688      128.190        0.079      344.559       21.461      859.147
04/19/2014  15:12:00     -387.055     -221.287      -24.699      224.892      200.269       99.039    50576.332    40107.742     9808.814       14.992        5.025      445.847       97.750        0.048      344.623       21.570      859.125
04/19/2014  15:13:00     -330.085     -110.441      -21.675      203.543      182.267       90.307    41429.585    33221.347     8155.365       10.220        4.140      348.070       82.121        0.056      344.779       21.836      859.072
04/19/2014  15:14:00     -608.694      -58.298      -24.333      337.467      221.349      119.046   113884.243    48995.457    14172.039       27.574        8.853      611.479      147.946        0.059      344.734       21.760      859.098
04/19/2014  15:15:00     -439.697     -122.824       -2.168      316.460      227.115      114.996   100146.925    51581.064    13224.147       18.666        8.248      456.530      142.614        0.098      344.707       21.713      859.164
04/19/2014  15:16:00     -535.021      -61.741      -31.020      256.935      167.051       90.859    66015.592    27905.970     8255.415       19.658        5.109      538.571      108.900        0.041      344.346       21.096      859.153
04/19/2014  15:17:00     -446.040      -77.092      -27.755      184.019      139.821       73.670    33863.092    19549.890     5427.214       13.224        2.942      452.653       75.561        0.028      344.507       21.370      859.170
04/19/2014  15:18:00     -227.446      -56.021      -14.737      140.787      115.525       63.378    19820.867    13345.968     4016.745        4.613        1.859      234.243       64.930        0.077      344.615       21.557      859.129
04/19/2014  15:19:00     -411.965      -90.233       -1.913      220.698      182.381       90.508    48707.533    33262.730     8191.641       13.399        4.508      421.731       93.946        0.050      344.759       21.802      859.101
04/19/2014  15:20:00     -386.727     -185.541      -15.995      284.351      210.583      125.901    80855.628    44345.152    15851.085       16.262        7.053      428.932      132.912        0.096      344.782       21.842      859.115
04/19/2014  15:21:00     -340.859     -101.069        3.231      230.768      187.126       99.556    53253.759    35016.319     9911.310       11.228        4.909      355.528      107.188        0.091      344.838       21.938      859.119
04/19/2014  15:22:00     -485.197     -136.857      -22.481      258.663      175.604      105.315    66906.338    30836.839    11091.281       18.172        5.442      504.129      111.866        0.049      344.685       21.676      859.169
04/19/2014  15:23:00     -533.611     -274.071      -16.067      263.169      179.273      115.651    69257.778    32138.770    13375.079       23.742        5.739      599.879      135.318        0.051      344.575       21.487      859.205
04/19/2014  15:24:00     -405.953     -151.755        5.308      284.686      208.304      123.631    81046.034    43390.391    15284.624       16.376        6.986      433.391      159.741        0.136      344.672       21.654      859.203
04/19/2014  15:25:00     -537.890      -42.016      -24.469      251.072      183.762      106.438    63037.295    33768.467    11329.007       19.989        5.407      539.529      106.807        0.039      344.520       21.393      859.281
04/19/2014  15:26:00     -703.908     -174.546      -30.795      182.417      211.169      102.234    33275.962    44592.513    10451.837       30.759        4.416      725.226       99.725        0.019      344.342       21.089      859.322
04/19/2014  15:27:00     -391.996     -153.993       -5.583      190.941      150.656       87.278    36458.559    22697.290     7617.404       12.208        3.339      421.158       97.831        0.054      344.366       21.130      859.351
04/19/2014  15:28:00     -452.891     -311.559      -17.255      266.548      210.062      118.627    71047.723    44125.869    14072.256       21.584        6.462      549.708      146.521        0.071      344.356       21.114      859.264
04/19/2014  15:29:00     -560.131     -334.987      -20.228      306.731      237.847      131.312    94083.654    56571.146    17242.848       29.710        8.395      652.658      143.262        0.048      344.590       21.512      859.253
04/19/2014  15:30:00     -418.355     -136.796       -8.361      253.745      192.809      104.046    64386.622    37175.283    10825.634       15.307        5.619      440.152      106.359        0.058      344.521       21.395      859.377
04/19/2014  15:31:00     -650.543     -244.240      -36.503      262.897      189.315       94.115    69114.697    35840.090     8857.562       29.898        5.691      694.880      107.953        0.024      344.333       21.073      859.374
04/19/2014  15:32:00     -602.646     -144.627      -19.186      224.707      242.314      116.444    50493.355    58716.181    13559.311       25.359        6.138      619.757      119.628        0.037      344.572       21.482      859.350
04/19/2014  15:33:00     -638.345     -264.617      -13.650      336.405      263.462      122.957   113168.288    69412.408    15118.537       33.766        9.885      691.019      146.330        0.045      344.395       21.181      859.372
04/19/2014  15:34:00     -637.920     -144.010      -21.781      323.688      280.757      137.713   104773.792    78824.427    18964.914       31.532       10.128      653.973      179.552        0.075      344.394       21.178      859.380
04/19/2014  15:35:00     -562.418      -84.290      -21.707      300.005      231.280      119.031    90003.171    53490.256    14168.391       24.074        7.883      568.699      144.597        0.065      344.453       21.279      859.393
04/19/2014  15:36:00     -405.447     -231.730       -1.845      226.973      195.683      102.506    51516.853    38291.663    10507.507       15.918        5.016      466.997      115.503        0.061      344.566       21.471      859.429
04/19/2014  15:37:00     -347.776     -197.303      -13.828      236.613      168.918       91.187    55985.593    28533.312     8315.001       12.643        4.642      399.846       92.451        0.053      344.590       21.515      859.472
04/19/2014  15:38:00     -470.756     -285.689       -6.812      234.590      176.591      110.801    55032.561    31184.553    12276.884       20.087        4.925      550.663      121.386        0.049      344.148       20.758      859.417
04/19/2014  15:39:00     -367.241     -277.608      -10.245      245.844      191.943      101.231    60439.270    36842.033    10247.666       15.976        5.376      460.361      122.723        0.071      344.328       21.065      859.384
04/19/2014  15:40:00     -311.914     -293.089        9.897      252.912      214.801      108.293    63964.533    46139.611    11727.388       15.254        6.092      428.009      144.349        0.114      344.480       21.326      859.364
04/19/2014  15:41:00     -483.470     -291.629      -30.454      377.110      243.258      122.331   142211.837    59174.625    14964.796       26.799       10.818      564.615      131.180        0.054      344.364       21.125      859.314
04/19/2014  15:42:00     -432.104     -237.124      -11.830      230.835      214.747      111.807    53284.889    46116.250    12500.910       17.747        5.595      492.891      116.324        0.056      344.493       21.348      859.379
04/19/2014  15:43:00     -383.168     -174.484       -4.661      200.608      236.654       98.121    40243.441    56004.938     9627.827       14.156        5.294      421.026       83.165        0.039      344.601       21.533      859.388
04/19/2014  15:44:00     -436.629     -327.209       10.331      267.022      222.143      133.701    71300.627    49347.316    17875.998       21.814        6.926      545.628      151.298        0.077      344.549       21.444      859.403
04/19/2014  15:45:00     -734.350     -564.982      -16.295      392.749      300.417      165.317   154251.644    90250.111    27329.845       56.523       13.592      926.540      200.919        0.047      344.119       20.708      859.350
04/19/2014  15:46:00     -535.095     -234.686      -12.107      221.808      245.588      106.828    49198.758    60313.660    11412.308       23.121        6.046      584.298      112.541        0.037      344.282       20.987      859.419
04/19/2014  15:47:00     -718.416     -255.983      -18.174      313.939      207.727      130.220    98557.619    43150.424    16957.348       37.029        7.933      762.659      154.293        0.041      344.155       20.770      859.433
04/19/2014  15:48:00     -596.527     -426.008      -15.014      267.130      183.867      114.313    71358.470    33807.196    13067.480       32.787        5.912      733.026      138.084        0.035      344.059       20.605      859.408
04/19/2014  15:49:00     -333.546     -251.881        0.745      247.450      178.642       92.336    61231.727    31913.135     8525.850       13.816        5.084      417.968      122.969        0.087      344.196       20.841      859.375
04/19/2014  15:50:00     -439.064     -188.424        3.648      242.085      243.826      109.735    58605.379    59450.886    12041.818       17.917        6.505      477.787      128.136        0.072      344.469       21.306      859.354
04/19/2014  15:51:00     -639.831     -420.826      -19.556      332.119      237.540      137.808   110303.099    56425.374    18991.020       38.625        9.286      765.819      168.556        0.048      344.112       20.696      859.346
04/19/2014  15:52:00     -547.020     -363.863      -23.636      366.801      252.061      128.595   134543.114    63534.695    16536.745       32.336       10.731      656.984      152.820        0.054      344.028       20.553      859.316
04/19/2014  15:53:00     -659.798     -301.925       -6.370      352.716      285.636      146.230   124408.319    81587.809    21383.239       37.691       11.369      725.598      174.604        0.058      344.103       20.680      859.255
04/19/2014  15:54:00     -402.561     -250.961        0.302      220.824      217.255      119.363    48763.040    47199.937    14247.633       16.760        5.511      474.380      120.664        0.065      344.224       20.888      859.312
04/19/2014  15:55:00     -401.509     -220.156       13.913      360.597      255.266      133.552   130030.383    65160.525    17836.174       21.141       10.651      457.907      176.655        0.149      344.322       21.056      859.331
04/19/2014  15:56:00     -364.094     -206.861        3.831      328.536      198.594      113.223   107936.231    39439.655    12819.532       16.775        8.010      418.755      152.297        0.132      344.299       21.016      859.306
04/19/2014  15:57:00     -495.387      -81.543       -9.905      259.043      193.125       97.422    67103.162    37297.317     9490.997       18.300        5.695      502.054      121.698        0.059      344.292       21.004      859.330
04/19/2014  15:58:00     -486.429      -77.389      -11.817      279.640      201.100      118.956    78198.621    40441.322    14150.637       18.774        6.640      492.547      137.749        0.078      344.318       21.049      859.333
04/19/2014  15:59:00     -439.202     -236.794       -1.888      222.210      211.787      108.284    49377.100    44853.749    11725.489       17.744        5.298      498.969      123.536        0.061      344.490       21.343      859.409
04/19/2014  16:00:00     -353.820     -244.554       -0.876      290.790      162.006      113.253    84558.638    26246.067    12826.340       15.429        6.182      430.111      122.968        0.082      344.496       21.353      859.447
04/19/2014  16:01:00     -384.368     -276.255        6.205      255.458      226.378      116.154    65258.678    51246.887    13491.749       17.702        6.500      473.345      129.710        0.075      344.291       21.002      859.483
04/19/2014  16:02:00     -606.233     -265.982      -28.482      263.438      194.587      100.882    69399.802    37864.254    10177.209       27.823        5.872      662.015      109.972        0.028      344.068       20.622      859.437
04/19/2014  16:03:00     -245.915      -54.760       17.014      220.428      136.172       84.402    48588.326    18542.767     7123.780        6.899        3.713      251.938       90.913        0.130      344.548       21.441      859.401
04/19/2014  16:04:00     -382.315      -34.264       -9.941      227.178      136.523       84.940    51609.690    18638.438     7214.776       11.244        3.873      383.848       96.259        0.063      344.537       21.423      859.395
04/19/2014  16:05:00     -467.603     -192.386      -18.306      203.217      200.800       87.822    41297.099    40320.699     7712.790       17.265        4.467      505.633       88.872        0.031      344.372       21.141      859.392
04/19/2014  16:06:00     -307.752     -165.665        1.826      277.083      175.854       95.211    76774.760    30924.499     9065.062       11.944        5.838      349.509      121.287        0.120      344.456       21.286      859.378
04/19/2014  16:07:00     -614.140     -445.002      -30.310      240.139      255.099      118.379    57666.849    65075.514    14013.666       35.641        6.838      758.416      106.675        0.020      344.176       20.806      859.385
04/19/2014  16:08:00     -439.147     -206.112      -14.622      294.889      261.829      117.703    86959.375    68554.618    13853.965       20.242        8.468      485.110      140.833        0.084      344.363       21.124      859.410
04/19/2014  16:09:00     -512.135     -297.893      -21.775      314.746      227.411      113.087    99064.747    51715.712    12788.625       25.750        8.178      592.471      125.000        0.045      344.040       20.575      859.485
04/19/2014  16:10:00     -329.300     -210.432        6.189      246.502      156.022      100.648    60763.460    24342.905    10129.928       12.398        4.762      390.794      118.099        0.091      344.057       20.604      859.487
04/19/2014  16:11:00     -606.142     -396.978       -8.735      306.640      254.567      121.629    94028.341    64804.213    14793.560       34.932        8.681      724.569      141.313        0.038      344.133       20.732      859.475
04/19/2014  16:12:00     -523.721     -302.219        8.092      314.158      239.519      125.994    98695.219    57369.259    15874.545       26.878        8.597      604.665      154.260        0.065      344.117       20.705      859.503
04/19/2014  16:13:00     -438.011     -314.557        0.587      274.748      192.422      117.091    75486.461    37026.103    13710.406       20.849        6.311      539.258      145.752        0.073      344.129       20.724      859.592
04/19/2014  16:14:00     -602.968     -304.228      -21.982      245.668      210.965      105.484    60352.935    44506.110    11126.956       28.627        5.799      675.370      108.439        0.026      343.878       20.297      859.555
04/19/2014  16:15:00     -493.050     -175.965       -3.249      221.058      230.750      105.151    48866.521    53245.622    11056.757       19.360        5.658      523.510      113.914        0.047      344.105       20.684      859.568
04/19/2014  16:16:00     -588.593     -358.717      -20.291      281.992      208.946      126.056    79519.561    43658.538    15889.999       30.727        6.953      689.290      137.388        0.040      343.932       20.389      859.527
04/19/2014  16:17:00     -475.339     -202.825       -9.231      260.688      187.399      114.108    67958.346    35118.563    13020.544       19.161        5.805      516.802      121.370        0.055      344.004       20.512      859.509
04/19/2014  16:18:00     -403.464     -211.183       12.378      270.591      253.859      110.337    73219.507    64444.273    12174.286       17.866        7.492      455.391      132.586        0.085      344.121       20.712      859.493
04/19/2014  16:19:00     -454.390     -126.594      -12.731      262.054      195.473       94.531    68672.494    38209.625     8936.100       16.922        5.791      471.695      110.818        0.055      344.190       20.830      859.442
04/19/2014  16:20:00     -259.769     -214.812        9.192      229.860      195.482      132.295    52835.832    38213.196    17502.022       11.111        5.428      337.082      133.627        0.157      344.228       20.894      859.376
04/19/2014  16:21:00     -459.196     -282.176        4.697      279.431      234.366      129.467    78081.863    54927.298    16761.612       22.011        7.489      538.966      148.229        0.076      344.207       20.859      859.389
04/19/2014  16:22:00     -587.743     -375.467       -6.348      292.426      258.269      125.707    85513.076    66703.121    15802.163       32.720        8.401      697.436      148.177        0.045      343.939       20.402      859.417
04/19/2014  16:23:00     -350.471     -232.260        0.197      182.474      162.827       96.305    33296.590    26512.703     9274.650       12.292        3.454      420.445      105.269        0.063      344.099       20.673      859.454
04/19/2014  16:24:00     -436.720     -194.564      -12.307      208.883      218.650      101.083    43632.286    47807.868    10217.725       16.517        5.083      478.100       94.792        0.039      344.098       20.674      859.486
04/19/2014  16:25:00     -561.229     -379.393      -13.465      324.845      233.243      142.325   105524.197    54402.188    20256.306       31.960        9.009      677.434      176.156        0.068      344.021       20.542      859.453
04/19/2014  16:26:00     -601.711     -386.696      -21.491      313.998      202.694      145.962    98594.993    41084.938    21304.811       33.649        8.049      715.255      170.642        0.057      343.838       20.228      859.494
04/19/2014  16:27:00     -474.282     -328.609        0.542      261.969      215.555      121.274    68627.762    46463.866    14707.339       23.134        6.490      576.999      114.383        0.039      343.937       20.397      859.482
04/19/2014  16:28:00     -582.341     -390.822      -41.375      301.374      212.413      112.114    90825.995    45119.139    12569.620       32.102        7.426      701.330      124.906        0.032      343.982       20.475      859.524
04/19/2014  16:29:00     -412.078     -173.432      -16.077      265.223      155.582      103.252    70343.261    24205.739    10660.932       15.266        5.260      447.087      111.697        0.062      344.115       20.702      859.541
04/19/2014  16:30:00     -542.477     -262.702      -15.552      234.229      268.128      127.434    54863.042    71892.890    16239.544       25.324        7.150      602.738      126.608        0.044      344.024       20.546      859.552
04/19/2014  16:31:00     -540.759     -220.651      -13.385      284.526      214.432      124.938    80954.849    45980.982    15609.618       24.189        7.127      584.043      129.581        0.049      344.051       20.592      859.531
04/19/2014  16:32:00     -616.376     -215.692       -6.863      269.438      195.405       99.851    72597.061    38183.200     9970.252       27.360        6.038      653.026       93.479        0.020      343.851       20.251      859.583
04/19/2014  16:33:00     -562.851      -99.391        9.824      292.208      196.096      113.900    85385.387    38453.742    12973.306       23.177        6.841      571.560      122.921        0.046      343.943       20.407      859.584
04/19/2014  16:34:00     -425.019      -72.678      -25.132      261.250      216.764      106.401    68251.777    46986.805    11321.212       15.653        6.328      431.188      131.562        0.093      344.017       20.533      859.593
04/19/2014  16:35:00     -344.650      -90.338       -2.133      207.635      212.928      111.959    43112.162    45338.509    12534.709       11.395        5.049      356.292      117.096        0.108      344.192       20.833      859.621
04/19/2014  16:36:00     -544.883     -404.657       -7.184      336.340      288.348      167.021   113124.543    83144.663    27896.103       34.239       11.208      678.708      179.423        0.070      343.924       20.375      859.606
04/19/2014  16:37:00     -570.003     -213.347       -7.972      281.021      233.037      123.680    78972.946    54306.168    15296.626       25.950        7.429      608.621      139.328        0.052      343.916       20.361      859.660
04/19/2014  16:38:00     -452.432     -325.767       -7.905      296.014      193.725      117.649    87624.045    37529.441    13841.345       22.491        6.950      557.511      134.709        0.058      343.766       20.107      859.676
04/19/2014  16:39:00     -333.788     -362.275      -29.715      194.149      194.380       88.488    37693.991    37783.662     7830.039       16.341        4.165      492.603       91.050        0.034      343.787       20.142      859.645
04/19/2014  16:40:00     -390.173     -216.393        1.455      250.645      252.288      108.633    62823.094    63649.154    11801.194       16.864        6.914      446.163      117.928        0.070      344.047       20.585      859.632
04/19/2014  16:41:00     -414.258     -164.865       21.091      317.456      264.618      140.090   100778.468    70022.506    19625.225       19.479        9.521      445.858      164.780        0.137      344.152       20.764      859.656
04/19/2014  16:42:00     -646.055     -316.677      -39.996      357.708      221.757      110.798   127955.183    49176.118    12276.220       35.430        9.470      719.493      149.527        0.043      343.842       20.235      859.656
04/19/2014  16:43:00     -402.290     -288.226        1.512      253.153      183.530      105.216    64086.413    33683.392    11070.382       17.686        5.442      494.885      119.208        0.058      343.842       20.235      859.628
04/19/2014  16:44:00     -413.485     -251.586        2.561      205.187      155.123       88.606    42101.893    24063.013     7851.109       15.413        3.701      484.010       81.590        0.028      343.911       20.352      859.597
04/19/2014  16:45:00     -349.212     -316.809       21.066      283.864      216.791      133.372    80578.895    46998.369    17787.991       18.403        7.268      471.505      151.724        0.104      344.150       20.759      859.623
04/19/2014  16:46:00     -464.229     -341.610        7.506      335.455      215.461      126.680   112529.826    46423.504    16047.889       25.360        8.750      576.373      146.557        0.065      344.021       20.541      859.654
04/19/2014  16:47:00     -577.083     -335.990      -34.129      370.357      242.096      133.978   137163.977    58610.469    17950.110       33.036       10.686      667.768      155.881        0.054      343.974       20.461      859.662
04/19/2014  16:48:00     -460.405     -249.348       -7.265      310.718      230.630      122.961    96545.878    53190.196    15119.462       21.949        8.243      523.590      161.741        0.095      343.939       20.402      859.725
04/19/2014  16:49:00     -572.559     -146.572       -3.049      312.910      232.619      113.461    97912.594    54111.620    12873.355       25.707        8.245      591.022      139.874        0.056      343.848       20.246      859.731
04/19/2014  16:50:00     -460.937     -327.710       12.521      298.180      235.088      129.390    88911.235    55266.561    16741.723       24.043        8.046      565.559      140.054        0.061      343.885       20.309      859.754
04/19/2014  16:51:00     -503.028     -299.294        0.682      300.324      257.097      113.908    90194.688    66098.821    12974.936       25.591        8.463      585.332      120.664        0.042      343.699       19.991      859.762
04/19/2014  16:52:00     -601.575     -279.509      -16.347      353.635      216.778      117.554   125057.906    46992.769    13818.863       31.304        9.293      663.338      110.837        0.028      343.761       20.095      859.742
04/19/2014  16:53:00     -392.363     -173.007       -7.289      211.920      147.844       99.328    44910.192    21857.715     9865.988       13.027        3.832      428.812      106.455        0.062      343.821       20.199      859.798
04/19/2014  16:54:00     -351.653     -261.441       15.313      189.092      163.498       88.553    35755.630    26731.689     7841.706       13.127        3.516      438.191       86.356        0.039      343.781       20.132      859.780
04/19/2014  16:55:00     -485.656     -293.455      -15.731      227.402      223.982      115.848    51711.876    50167.881    13420.820       21.874        5.765      567.431      128.174        0.051      343.786       20.140      859.784
04/19/2014  16:56:00     -423.844     -216.812        4.684      228.951      190.278      117.414    52418.382    36205.561    13786.031       16.452        5.120      476.079      123.216        0.067      343.839       20.230      859.762
04/19/2014  16:57:00     -336.578     -136.186        8.046      182.711      183.963       83.272    33383.390    33842.265     6934.159       10.301        3.708      363.086       90.453        0.062      344.003       20.511      859.749
04/19/2014  16:58:00     -355.156     -278.919       14.208      281.707      228.182      133.985    79358.917    52066.887    17951.904       17.673        7.469      451.588      151.164        0.112      344.027       20.552      859.761
04/19/2014  16:59:00     -407.473     -249.666        2.222      242.207      215.444      112.034    58664.395    46416.044    12551.606       17.298        5.882      477.878      130.413        0.074      343.933       20.391      859.806
04/19/2014  17:00:00     -340.522     -224.462        7.667      225.548      230.194      112.829    50871.843    52989.396    12730.491       14.147        5.830      407.846      116.395        0.081      343.789       20.147      859.836
04/19/2014  17:01:00     -373.356     -291.101       13.193      281.709      245.839      112.776    79359.716    60436.945    12718.337       18.838        7.626      473.429      143.349        0.092      343.832       20.218      859.781
04/19/2014  17:02:00     -683.158     -380.596      -20.367      337.662      268.406      131.235   114015.376    72041.840    17222.667       40.758       10.164      782.022      159.881        0.042      343.653       19.914      859.780
04/19/2014  17:03:00     -400.351     -304.690        4.695      275.153      255.139      141.437    75709.254    65096.142    20004.306       20.694        8.040      503.107      144.967        0.083      343.683       19.962      859.829
04/19/2014  17:04:00     -408.485        2.671       -8.079      273.367      164.210       87.816    74729.700    26964.928     7711.644       13.815        5.470      408.494      103.360        0.064      343.725       20.037      859.841
04/19/2014  17:05:00     -305.214     -148.441       10.321      202.487      159.392       82.114    41001.071    25405.768     6742.658        9.421        3.657      339.397       90.070        0.070      343.880       20.300      859.857
04/19/2014  17:06:00     -426.939     -116.181       -9.979      208.518      195.178      110.989    43479.714    38094.633    12318.515       14.487        4.695      442.465      105.315        0.057      343.840       20.232      859.827
04/19/2014  17:07:00     -337.430      -80.356       -7.703      158.967      140.510       80.531    25270.376    19742.969     6485.220        8.593        2.575      346.866       65.719        0.036      343.997       20.501      859.820
04/19/2014  17:08:00     -400.493     -163.434       -1.509      293.939      233.043      113.583    86400.167    54309.032    12901.173       17.033        7.681      432.557      125.416        0.084      344.004       20.513      859.824
04/19/2014  17:09:00     -519.252     -250.016       -2.197      308.362      226.594      117.495    95087.235    51344.934    13805.035       24.615        8.012      576.308      147.593        0.066      343.624       19.864      859.790
04/19/2014  17:10:00     -364.966     -214.108        9.588      265.041      207.805      102.602    70246.696    43182.969    10527.103       15.152        6.198      423.134      109.653        0.067      343.720       20.027      859.794
04/19/2014  17:11:00     -345.334     -249.568       -6.168      308.356      253.774      122.507    95083.367    64401.066    15008.074       17.800        8.725      426.074      126.032        0.087      343.817       20.193      859.804
04/19/2014  17:12:00     -740.737     -357.088      -24.270      350.428      235.062      129.598   122799.898    55253.932    16795.595       43.578        9.742      822.315      151.806        0.034      343.497       19.646      859.766
04/19/2014  17:13:00     -429.281     -290.191      -18.124      258.383      198.730      128.143    66761.799    39493.671    16420.711       19.572        6.134      518.163      142.254        0.075      343.665       19.933      859.780
04/19/2014  17:14:00     -492.635     -106.175      -10.847      241.356      175.045       94.343    58252.503    30640.708     8900.592       17.592        4.890      503.947       95.278        0.036      343.793       20.152      859.829
04/19/2014  17:15:00     -534.927     -101.038      -29.384      282.389      216.349      123.361    79743.466    46806.846    15217.952       21.946        7.088      544.385      143.397        0.069      343.732       20.047      859.849
04/19/2014  17:16:00     -467.088      -57.386       20.563      378.130      189.857      119.732   142982.302    36045.848    14335.806       20.759        9.668      470.600      165.556        0.124      343.768       20.109      859.819
04/19/2014  17:17:00     -505.623     -239.052       -4.254      310.827      240.329      136.640    96613.395    57757.920    18670.552       24.290        8.652      559.285      158.849        0.081      343.686       19.970      859.831
04/19/2014  17:18:00     -331.339     -123.828        0.581      243.075      194.521      114.924    59085.633    37838.511    13207.471       11.760        5.507      353.722      123.387        0.122      343.804       20.170      859.860
04/19/2014  17:19:00     -256.531     -117.835       17.530      237.410      181.682      101.976    56363.434    33008.355    10399.044        8.987        4.989      282.300      115.299        0.167      343.886       20.310      859.895
04/19/2014  17:20:00     -550.797     -349.960        5.483      369.322      283.073      147.646   136398.704    80130.259    21799.394       33.206       11.916      652.572      176.252        0.073      343.585       19.796      859.836
04/19/2014  17:21:00     -633.786     -312.532      -10.060      349.557      223.778      131.854   122189.956    50076.744    17385.520       34.452        9.483      706.654      158.533        0.050      343.545       19.728      859.857
04/19/2014  17:22:00     -614.709     -197.361      -33.344      259.269      191.305      108.040    67220.232    36597.516    11672.678       26.669        5.775      645.614      120.232        0.035      343.592       19.809      859.913
04/19/2014  17:23:00     -302.334        6.980       10.346      258.251      180.063      113.891    66693.448    32422.735    12971.112       10.180        5.604      302.415      128.202        0.180      343.829       20.213      859.923
04/19/2014  17:24:00     -483.736     -178.676        3.044      375.005      290.353      149.657   140628.751    84304.840    22397.317       25.658       12.367      515.680      195.947        0.144      343.575       19.780      859.867
04/19/2014  17:25:00     -385.356     -203.427       -7.062      310.526      260.779      136.429    96426.330    68005.532    18612.863       18.645        9.152      435.755      148.337        0.116      343.557       19.750      859.880
04/19/2014  17:26:00     -661.315     -174.929      -36.265      341.844      222.244      128.079   116857.252    49392.220    16404.157       32.592        9.133      684.060      149.150        0.048      343.445       19.558      859.897
04/19/2014  17:27:00     -396.128     -225.548       16.240      306.265      225.235      120.992    93798.507    50730.911    14639.049       18.358        7.958      455.839      134.303        0.087      343.546       19.731      859.905
04/19/2014  17:28:00     -407.037     -333.117       -6.113      270.542      220.431      115.904    73193.201    48589.925    13433.844       20.592        6.761      525.971      139.822        0.071      343.511       19.672      859.909
04/19/2014  17:29:00     -629.769     -216.356      -30.811      282.219      218.316      112.036    79647.658    47662.021    12552.149       29.209        6.993      665.897      115.004        0.030      343.463       19.589      859.930
04/19/2014  17:30:00     -613.253     -356.227      -14.075      319.023      230.866      147.225   101775.877    53299.075    21675.093       33.993        8.838      709.209      170.312        0.058      343.324       19.351      859.896
04/19/2014  17:31:00     -667.423     -296.591      -25.869      288.405      231.148      109.529    83177.515    53429.240    11996.554       34.132        7.430      730.356      120.745        0.027      343.322       19.349      859.911
04/19/2014  17:32:00     -491.673     -286.592       -2.532      248.659      229.298      113.955    61831.470    52577.540    12985.746       22.561        6.370      569.102      133.768        0.055      343.417       19.509      859.957
04/19/2014  17:33:00     -463.133     -301.245       -9.458      254.076      199.415      113.348    64554.541    39766.411    12847.677       21.123        5.858      552.486      134.611        0.059      343.432       19.538      859.973
04/19/2014  17:34:00     -528.444     -202.450      -26.384      227.046      206.810       92.818    51549.889    42770.256     8615.252       21.191        5.147      565.897       97.196        0.029      343.523       19.691      860.009
04/19/2014  17:35:00     -520.561     -241.310      -19.941      201.200      189.835      108.564    40481.553    36037.238    11786.112       20.894        4.415      573.772      103.783        0.033      343.461       19.585      860.012
04/19/2014  17:36:00     -444.083     -122.239      -38.721      183.485      149.649       90.871    33666.604    22394.798     8257.473       13.897        3.216      460.600       85.476        0.034      343.628       19.869      860.055
04/19/2014  17:37:00     -483.593      -47.517      -16.088      255.254      191.310       97.504    65154.474    36599.496     9506.965       17.380        5.563      485.922      109.740        0.051      343.599       19.823      860.064
04/19/2014  17:38:00     -284.930     -218.076        0.485      174.004      145.393       93.649    30277.436    21139.109     8770.125        9.445        3.009      358.807       85.477        0.057      343.626       19.867      860.066
04/19/2014  17:39:00     -381.975     -158.008        0.119      268.545      155.985      100.024    72116.505    24331.235    10004.800       13.864        5.323      413.365      109.214        0.070      343.517       19.681      860.095
04/19/2014  17:40:00     -557.041     -209.333      -24.235      239.328      247.148      106.912    57277.914    61081.978    11430.127       24.222        6.490      595.075      110.929        0.035      343.427       19.528      860.048
04/19/2014  17:41:00     -303.995     -179.291        8.967      235.342      182.781      105.280    55385.675    33408.897    11083.982       11.224        4.994      352.928      124.550        0.125      343.544       19.726      860.041
04/19/2014  17:42:00     -510.242     -166.502        9.535      282.510      215.859      120.492    79811.694    46595.308    14518.308       21.452        7.046      536.721      140.495        0.069      343.502       19.655      860.044
04/19/2014  17:43:00     -389.704     -129.969       -0.438      255.374      205.283      125.829    65215.811    42141.028    15832.858       14.595        6.159      410.805      138.847        0.114      343.463       19.589      860.072
04/19/2014  17:44:00     -405.138     -101.264      -22.228      217.429      178.169      103.818    47275.446    31744.335    10778.163       13.232        4.490      417.602      108.195        0.067      343.462       19.587      860.061
04/19/2014  17:45:00     -545.518     -191.926      -12.261      372.296      209.605      123.131   138604.331    43934.079    15161.311       26.610        9.885      578.295      164.807        0.081      343.372       19.435      860.043
04/19/2014  17:46:00     -501.206     -176.816      -16.342      223.955      186.582      109.737    50155.712    34812.697    12042.253       18.986        4.851      531.480      113.154        0.045      343.305       19.320      860.094
04/19/2014  17:47:00     -448.332     -172.502      -23.688      242.287      189.511      100.734    58703.028    35914.331    10147.354       16.802        5.238      480.373      114.022        0.056      343.400       19.482      860.122
04/19/2014  17:48:00     -387.628     -268.122       -9.341      222.253      168.660      121.096    49396.307    28446.158    14664.205       15.735        4.625      471.323      123.596        0.069      343.294       19.301      860.103
04/19/2014  17:49:00     -468.540     -258.009       -6.445      265.530      207.474      109.037    70506.385    43045.336    11889.037       20.577        6.272      534.881      127.908        0.057      343.352       19.399      860.139
04/19/2014  17:50:00     -293.085     -228.883      -19.912      256.382      206.049      121.526    65731.876    42456.234    14768.469       13.080        6.148      371.869      132.821        0.128      343.331       19.364      860.152
04/19/2014  17:51:00     -325.225      -98.405       -0.143      218.139      135.573       81.200    47584.569    18379.920     6593.369        9.399        3.628      339.786      106.408        0.098      343.432       19.536      860.209
04/19/2014  17:52:00     -361.490     -216.171        3.170      212.553      171.177       95.505    45178.627    29301.526     9121.169       13.049        4.180      421.195      103.744        0.061      343.370       19.430      860.221
04/19/2014  17:53:00     -400.955     -120.246        7.291      279.919      199.377      101.103    78354.664    39751.214    10221.756       15.178        6.416      418.597      121.273        0.084      343.304       19.317      860.219
04/19/2014  17:54:00     -376.801     -178.434       15.019      296.955      194.233      116.867    88182.435    37726.393    13657.823       15.678        6.978      416.915      141.431        0.115      343.215       19.166      860.202
04/19/2014  17:55:00     -212.029      -52.152        5.949      228.430      133.381       83.880    52180.043    17790.380     7035.830        6.234        3.850      218.349      100.837        0.213      343.358       19.411      860.189
04/19/2014  17:56:00     -298.550     -139.361        7.895      241.500      164.163      106.494    58322.131    26949.415    11341.011       10.259        4.831      329.474       98.408        0.089      343.396       19.475      860.208
04/19/2014  17:57:00     -449.774      -59.794       12.513      253.192      201.001      117.829    64106.326    40401.566    13883.671       16.219        5.920      453.731      134.238        0.088      343.247       19.220      860.170
04/19/2014  17:58:00     -437.209     -191.782       -2.520      306.058      237.629      141.476    93671.741    56467.337    20015.320       19.901        8.508      477.422      149.147        0.098      343.226       19.184      860.195
04/19/2014  17:59:00     -546.959     -269.816       -3.870      361.882      253.598      145.780   130958.330    64312.189    21251.952       29.421       10.826      609.890      169.265        0.077      343.138       19.034      860.176
04/19/2014  18:00:00     -349.766     -262.578        2.535      238.264      206.105      108.233    56769.797    42479.258    11714.306       15.110        5.548      437.360      129.331        0.087      343.175       19.099      860.211
04/19/2014  18:01:00     -404.314     -209.428       -7.054      264.146      161.999       98.445    69773.139    26243.677     9691.335       15.652        5.285      455.335      121.845        0.072      343.227       19.188      860.223
04/19/2014  18:02:00     -190.974      -80.246       40.083      223.934      176.129      109.116    50146.490    31021.518    11906.254        6.878        4.654      207.149      125.544        0.367      343.261       19.245      860.243
04/19/2014  18:03:00     -331.451     -191.258        7.823      235.160      223.679      112.180    55300.039    50032.297    12584.407       13.219        5.896      382.675      125.967        0.108      343.234       19.199      860.211
04/19/2014  18:04:00     -317.411     -182.084      -18.500      222.254      152.123       95.367    49396.921    23141.286     9094.791       10.792        4.082      365.929      121.153        0.110      343.233       19.198      860.248
04/19/2014  18:05:00     -494.224     -301.335      -18.289      226.846      203.396       89.270    51458.952    41370.016     7969.206       21.808        5.040      578.844       95.681        0.027      343.188       19.121      860.283
04/19/2014  18:06:00     -309.512     -196.858        1.238      174.217      144.294       82.701    30351.404    20820.691     6839.512        9.627        2.901      366.812       74.305        0.041      343.210       19.158      860.297
04/19/2014  18:07:00     -391.422     -185.163      -21.123      268.104      168.633       92.219    71879.985    28436.952     8504.369       14.836        5.441      433.008      100.125        0.053      343.158       19.069      860.285
04/19/2014  18:08:00     -349.447     -189.271       -5.701      190.232      177.607       82.654    36188.278    31544.418     6831.635       11.625        3.728      397.413       89.980        0.051      343.180       19.107      860.334
04/19/2014  18:09:00     -629.229     -118.619        2.340      370.982      239.638      130.206   137627.529    57426.484    16953.613       31.096       10.600      640.312      160.197        0.063      343.014       18.824      860.285
04/19/2014  18:10:00     -436.373      -65.294       -6.159      263.443      167.503       95.460    69402.091    28057.312     9112.643       15.063        5.329      441.231      112.039        0.064      343.029       18.849      860.295
04/19/2014  18:11:00     -699.307     -139.632      -19.326      295.204      222.126      117.176    87145.258    49339.870    13730.106       32.953        7.511      713.111      126.505        0.031      342.943       18.703      860.257
04/19/2014  18:12:00     -280.067     -114.583       -4.547      209.353      209.333      106.704    43828.644    43820.398    11385.683        9.529        4.952      302.600      109.627        0.131      343.053       18.890      860.296
04/19/2014  18:13:00     -399.076     -190.907      -11.317      293.010      211.116      126.161    85854.652    44569.862    15916.472       17.106        7.317      442.388      133.069        0.090      342.949       18.713      860.294
04/19/2014  18:14:00     -339.500     -214.775       -4.954      255.515      196.477      118.829    65288.001    38603.060    14120.229       13.969        5.901      401.732      143.597        0.128      342.965       18.741      860.300
04/19/2014  18:15:00     -415.360     -222.613      -10.687      223.590      154.422      110.088    49992.409    23846.092    12119.367       15.406        4.298      471.254       98.683        0.044      342.937       18.692      860.309
04/19/2014  18:16:00     -406.180     -178.345       -0.166      306.902      212.796      100.908    94188.558    45282.036    10182.520       17.319        7.483      443.609      130.496        0.087      342.908       18.643      860.295
04/19/2014  18:17:00     -379.119     -143.631       -1.970      285.827      215.587      121.695    81696.905    46477.669    14809.698       15.365        7.149      405.415      139.386        0.118      342.951       18.717      860.299
04/19/2014  18:18:00     -562.108     -136.036      -14.174      327.207      232.025      116.099   107064.296    53835.759    13479.031       25.449        8.719      578.335      139.994        0.059      342.851       18.546      860.354
04/19/2014  18:19:00     -593.189     -211.778      -29.219      386.742      223.844      135.698   149569.357    50106.210    18414.082       30.779       10.904      629.859      178.217        0.080      342.850       18.547      860.387
04/19/2014  18:20:00     -358.953     -206.801       -2.378      230.263      170.921       88.170    53020.869    29214.052     7773.952       13.080        4.500      414.263      101.401        0.060      342.923       18.669      860.431
04/19/2014  18:21:00     -541.160     -170.397      -23.912      304.767      235.229      109.857    92882.660    55332.620    12068.470       24.134        8.014      567.353      132.539        0.055      342.857       18.558      860.466
04/19/2014  18:22:00     -540.966     -186.704      -29.604      290.255      197.951      116.199    84248.006    39184.702    13502.169       23.263        6.847      572.279      143.677        0.063      342.826       18.505      860.465
04/19/2014  18:23:00     -422.535     -180.086      -24.888      219.801      173.566       89.107    48312.604    30125.195     7940.087       14.897        4.319      459.312      102.354        0.050      342.859       18.558      860.527
04/19/2014  18:24:00     -307.324     -260.886        1.083      240.935      166.781      121.987    58049.598    27815.757    14880.747       13.161        5.037      403.125      149.826        0.138      342.850       18.545      860.540
04/19/2014  18:25:00     -596.259     -328.954      -41.831      309.839      226.295      129.318    96000.150    51209.391    16723.057       31.468        8.197      680.981      151.481        0.049      342.740       18.359      860.519
04/19/2014  18:26:00     -512.509     -156.237      -20.020      262.277      241.770      101.079    68789.026    58452.523    10217.019       21.244        6.873      535.795      113.125        0.045      342.800       18.459      860.563
04/19/2014  18:27:00     -380.347     -221.165        3.072      333.117      266.483      128.033   110966.829    71013.003    16392.509       19.594        9.919      439.975      172.128        0.153      342.802       18.464      860.543
04/19/2014  18:28:00     -498.840     -253.069      -12.616      300.712      249.375      134.642    90427.474    62188.139    18128.377       24.186        8.537      559.361      149.944        0.072      342.718       18.320      860.582
04/19/2014  18:29:00     -297.235     -155.603        9.515      210.381      198.527      115.509    44260.309    39412.946    13342.434       10.481        4.851      335.501      127.568        0.145      342.716       18.318      860.610
04/19/2014  18:30:00     -487.187     -221.695      -14.170      287.411      235.854      115.147    82605.322    55626.986    13258.856       21.907        7.575      535.257      122.008        0.052      342.683       18.261      860.611
04/19/2014  18:31:00     -527.384     -157.489      -28.915      232.951      188.339       99.424    54266.043    35471.570     9885.173       20.168        4.981      550.397      103.907        0.036      342.647       18.201      860.642
04/19/2014  18:32:00     -404.328     -262.572      -17.014      255.077      185.957      115.248    65064.310    34579.960    13282.115       17.280        5.646      482.105      125.900        0.068      342.635       18.179      860.652
04/19/2014  18:33:00     -339.270     -149.184      -14.880      164.950      133.083       86.011    27208.396    17710.992     7397.887        9.494        2.616      370.621       86.409        0.054      342.708       18.305      860.672
04/19/2014  18:34:00     -394.809     -192.082        4.999      241.382      205.459      107.640    58265.090    42213.468    11586.473       15.241        5.603      439.056      106.754        0.059      342.649       18.202      860.661
04/19/2014  18:35:00     -309.159     -110.983       12.645      269.554      224.695      131.217    72659.616    50487.995    17217.843       12.418        7.018      328.476      146.899        0.200      342.635       18.181      860.650
04/19/2014  18:36:00     -544.556     -209.992      -13.299      318.609      204.719      128.285   101511.660    41910.039    16456.933       25.032        7.994      583.642      166.011        0.081      342.536       18.011      860.673
04/19/2014  18:37:00     -544.449     -115.226      -35.086      213.529      185.498       96.788    45594.431    34409.444     9367.968       20.013        4.469      556.509       85.722        0.024      342.536       18.012      860.675
04/19/2014  18:38:00     -242.839     -110.763        4.844      182.460      139.291       75.746    33291.500    19402.104     5737.457        6.484        2.922      266.907       90.366        0.115      342.584       18.093      860.666
04/19/2014  18:39:00     -326.265      -54.279       -3.801      207.325      145.152       87.107    42983.796    21069.227     7587.638        9.051        3.582      330.749       94.055        0.081      342.580       18.087      860.679
04/19/2014  18:40:00     -292.296     -192.267      -16.708      189.397      161.006       90.234    35871.293    25922.777     8142.137        9.630        3.497      349.862      101.041        0.083      342.590       18.103      860.689
04/19/2014  18:41:00     -361.336     -209.156        5.762      246.134      191.407      110.878    60582.039    36636.775    12293.848       14.191        5.476      417.505      121.618        0.085      342.536       18.012      860.662
04/19/2014  18:42:00     -416.847     -162.864       -8.500      230.815      187.535       82.913    53275.489    35169.319     6874.549       14.782        4.766      447.533       92.395        0.043      342.565       18.060      860.678
04/19/2014  18:43:00     -337.956     -192.565        8.429      314.579      200.904      115.132    98959.841    40362.386    13255.466       15.194        7.629      388.968      137.397        0.125      342.563       18.056      860.695
04/19/2014  18:44:00     -324.502     -148.068      -12.905      182.894      179.925       92.633    33450.135    32372.934     8580.782       10.088        3.720      356.687       83.524        0.055      342.572       18.073      860.709
04/19/2014  18:45:00     -304.188     -149.758        5.483      229.621      192.124      126.195    52725.766    36911.632    15925.228       11.025        5.278      339.054      123.608        0.133      342.579       18.086      860.702
04/19/2014  18:46:00     -404.119      -34.704      -10.830      214.978      186.177       97.165    46215.434    34661.812     9440.978       12.746        4.516      405.606      105.865        0.068      342.543       18.023      860.746
04/19/2014  18:47:00     -368.286      -76.092      -13.804      278.505      183.076      101.277    77564.910    33516.948    10256.988       13.145        6.067      376.064      121.677        0.105      342.536       18.012      860.728
04/19/2014  18:48:00     -469.348     -151.221       -9.304      232.441      194.559       89.000    54028.951    37853.056     7920.937       17.150        4.990      493.108       89.148        0.033      342.485       17.923      860.731
04/19/2014  18:49:00     -184.339     -174.251        3.145      214.396      161.782      100.169    45965.664    26173.296    10033.789        7.325        4.109      253.662      114.727        0.205      342.536       18.012      860.735
04/19/2014  18:50:00     -419.185     -170.378       -7.243      236.947      171.575       95.971    56144.060    29438.026     9210.425       14.978        4.740      452.487       94.481        0.044      342.460       17.883      860.755
04/19/2014  18:51:00     -381.216     -113.585      -11.093      197.623      151.613       86.888    39054.962    22986.405     7549.476       11.396        3.480      397.778       89.964        0.051      342.466       17.893      860.764
04/19/2014  18:52:00     -365.052     -171.634       10.215      229.110      163.982      103.133    52491.348    26890.222    10636.431       12.640        4.501      403.387      105.418        0.068      342.480       17.916      860.773
04/19/2014  18:53:00     -382.392     -232.207        8.247      255.200      175.759      104.690    65126.880    30891.363    10959.993       15.357        5.349      447.374      120.797        0.073      342.435       17.839      860.806
04/19/2014  18:54:00     -263.659     -145.604       -0.348      201.465      179.981      103.910    40588.233    32393.164    10797.355        8.723        4.189      301.191      113.199        0.141      342.449       17.864      860.836
04/19/2014  18:55:00     -322.956     -153.442       -1.701      225.360      169.536       92.978    50787.079    28742.575     8644.851       10.799        4.409      357.554      113.171        0.100      342.389       17.760      860.867
04/19/2014  18:56:00     -445.225      -31.938      -14.568      215.804      196.588       83.181    46571.527    38646.646     6919.002       14.578        4.607      446.369       96.468        0.047      342.382       17.750      860.879
04/19/2014  18:57:00     -264.797     -193.241        2.523      192.337      138.729      102.038    36993.387    19245.721    10411.732        8.705        3.333      327.810      101.674        0.096      342.354       17.702      860.876
04/19/2014  18:58:00     -237.544     -143.868        2.764      158.454      140.584       76.490    25107.747    19763.890     5850.735        6.392        2.536      277.714       75.821        0.075      342.369       17.728      860.898
04/19/2014  18:59:00     -420.927     -134.981       14.224      281.592      179.021       86.073    79293.819    32048.675     7408.582       15.715        5.938      442.040       99.367        0.051      342.333       17.665      860.926
04/19/2014  19:00:00     -395.539      -95.918        5.039      227.449      148.731       82.989    51732.847    22120.987     6887.115       12.319        4.037      407.003      101.601        0.062      342.297       17.605      860.934
04/19/2014  19:01:00     -418.007     -262.011      -24.171      204.310      167.815       88.164    41742.390    28162.020     7772.826       16.081        3.884      493.335       80.509        0.027      342.289       17.591      860.929
04/19/2014  19:02:00     -310.370      -55.480        6.854      174.003      152.181       87.126    30276.898    23159.140     7590.897        8.023        3.051      315.290       99.025        0.099      342.294       17.601      860.975
04/19/2014  19:03:00     -356.594     -164.620       -4.253      158.304      121.671       86.125    25060.232    14803.845     7417.480       10.077        2.364      392.758       90.651        0.053      342.268       17.556      860.998
04/19/2014  19:04:00     -334.314     -111.640       -0.912      241.195      158.928       74.880    58175.130    25257.999     5606.976       10.662        4.452      352.462      100.072        0.081      342.287       17.588      861.005
04/19/2014  19:05:00     -320.665     -125.062      -18.948      207.985      176.708       80.513    43257.853    31225.802     6482.276        9.988        4.048      344.190       82.843        0.058      342.238       17.506      861.037
04/19/2014  19:06:00     -478.707     -116.580      -22.383      256.244      183.614       97.842    65660.983    33714.008     9573.098       17.608        5.447      492.698      119.035        0.058      342.216       17.469      861.050
04/19/2014  19:07:00     -369.389      -90.417       -9.938      222.726      165.279       79.897    49606.831    27317.242     6383.571       11.400        4.165      380.294      104.285        0.075      342.212       17.462      861.019
04/19/2014  19:08:00     -421.680      -84.584      -24.352      197.834      136.127       68.082    39138.133    18530.578     4635.114       12.392        3.115      430.080       55.997        0.017      342.207       17.451      861.060
04/19/2014  19:09:00     -361.007      -57.882        4.290      170.559      131.018       78.111    29090.517    17165.747     6101.340        9.302        2.618      365.618       89.363        0.060      342.209       17.456      861.065
04/19/2014  19:10:00     -273.843      -77.609       -1.469      177.126      120.584       73.295    31373.699    14540.415     5372.212        6.614        2.564      284.628       76.319        0.072      342.214       17.465      861.079
04/19/2014  19:11:00     -256.064      -79.756       -0.726      192.382      122.900       85.703    37010.801    15104.500     7345.016        6.568        2.973      268.198       84.669        0.100      342.233       17.497      861.084
04/19/2014  19:12:00     -267.089     -173.398        8.051      248.712      173.172      101.900    61857.672    29988.486    10383.569       10.183        5.111      318.439      121.907        0.147      342.180       17.407      861.069
04/19/2014  19:13:00     -421.653      -86.267      -17.327      172.440      128.695       66.296    29735.438    16562.411     4395.098       11.810        2.535      430.388       68.769        0.026      342.187       17.418      861.092
04/19/2014  19:14:00     -419.279      -26.529      -13.590      161.554      194.956       78.257    26099.784    38007.949     6124.194       12.344        3.512      420.118       59.331        0.020      342.125       17.312      861.101
04/19/2014  19:15:00     -367.333      -74.146      -21.931      219.587      164.371       77.410    48218.448    27017.773     5992.349       11.105        4.061      374.742       94.831        0.064      342.080       17.238      861.093
04/19/2014  19:16:00     -342.552        6.917      -19.848      190.242      166.893       88.480    36192.183    27853.230     7828.796        9.481        3.594      342.621       87.131        0.065      342.043       17.173      861.109
04/19/2014  19:17:00     -557.037     -102.244      -14.668      217.313      167.126       97.609    47225.076    27931.114     9527.582       20.280        4.234      566.343      105.716        0.035      342.030       17.152      861.115
04/19/2014  19:18:00     -349.873      -45.317       14.368      200.049      145.955       96.513    40019.695    21302.716     9314.811        9.764        3.532      352.795      103.217        0.086      342.035       17.159      861.110
04/19/2014  19:19:00     -261.939       11.014        5.584      159.570      119.735       76.260    25462.430    14336.498     5815.653        5.718        2.281      262.170       83.364        0.101      342.019       17.131      861.128
04/19/2014  19:20:00     -252.107      -70.267        1.079      143.778      141.139       78.421    20672.172    19920.159     6149.919        5.761        2.337      261.717       80.984        0.096      342.036       17.163      861.101
04/19/2014  19:21:00     -274.075     -181.598        4.687      165.103      142.312       71.100    27259.089    20252.737     5055.261        8.033        2.628      328.777       85.467        0.068      342.006       17.111      861.110
04/19/2014  19:22:00     -279.368     -197.153        2.571      192.453      152.397       93.905    37038.050    23224.806     8818.135        9.299        3.454      341.930      103.571        0.092      342.005       17.109      861.085
04/19/2014  19:23:00     -435.016     -275.409       -7.481      183.193      159.042       94.547    33559.505    25294.326     8939.053       16.646        3.390      514.868      101.341        0.039      342.001       17.102      861.054
04/19/2014  19:24:00     -286.696     -185.050       -4.562      160.496      119.991       80.584    25758.875    14397.770     6493.716        8.155        2.333      341.231       88.912        0.068      341.986       17.076      861.055
04/19/2014  19:25:00     -303.260      -65.010      -14.850      158.424      143.437       72.040    25098.107    20574.118     5189.740        7.363        2.543      310.150       73.733        0.057      341.989       17.081      861.048
04/19/2014  19:26:00     -388.228      -84.080      -26.028      118.513      126.091       73.226    14045.309    15899.046     5362.006        9.688        1.765      397.229       69.255        0.030      341.954       17.021      861.038
04/19/2014  19:27:00     -464.124     -156.581      -16.588      201.910      173.575       99.939    40767.779    30128.327     9987.725       16.053        4.044      489.825       98.359        0.040      341.931       16.983      860.984
04/19/2014  19:28:00     -490.682      -65.141      -27.567      178.690      172.325       83.723    31930.174    29695.858     7009.563       15.719        3.432      494.987       85.406        0.030      341.938       16.994      860.978
04/19/2014  19:29:00     -344.330     -100.752       -9.336      182.671      174.351       86.958    33368.718    30398.138     7561.729       10.005        3.566      358.768       95.962        0.072      341.917       16.959      861.012
04/19/2014  19:30:00     -307.337     -134.839      -21.184      190.305      129.890       82.997    36215.893    16871.396     6888.500        8.652        2.999      335.615       95.410        0.081      341.915       16.957      861.012
04/19/2014  19:31:00     -262.002      -63.960        6.752      144.509      141.900       78.569    20882.863    20135.471     6173.108        5.998        2.360      269.696       75.346        0.078      341.902       16.934      860.993
04/19/2014  19:32:00     -384.955     -116.062       -8.547      204.831      178.431       88.293    41955.650    31837.639     7795.742       12.164        4.079      402.070       91.820        0.052      341.878       16.892      860.992
04/19/2014  19:33:00     -463.534     -132.100      -12.263      203.728      154.799       81.121    41505.237    23962.639     6580.590       15.224        3.602      481.990       89.218        0.034      341.845       16.836      861.001
04/19/2014  19:34:00     -302.199      -94.530        6.168      255.071      136.064       91.781    65060.967    18513.410     8423.681        9.613        4.600      316.639      110.383        0.122      341.860       16.864      861.008
04/19/2014  19:35:00     -345.982     -166.933      -22.482      195.099      155.038       90.607    38063.510    24036.833     8209.574       10.918        3.515      384.149       94.728        0.061      341.828       16.808      860.999
04/19/2014  19:36:00     -274.649     -119.469       -4.855      215.210      165.931       83.347    46315.394    27532.981     6946.738        8.525        4.040      299.508      109.736        0.134      341.808       16.773      861.012
04/19/2014  19:37:00     -479.569      -84.336      -21.760      317.025      185.009      100.474   100504.875    34228.407    10095.018       19.117        7.241      486.928      136.297        0.078      341.788       16.740      861.006
04/19/2014  19:38:00     -306.672     -162.809       -5.077      224.113      208.774       95.753    50226.419    43586.649     9168.679       11.176        5.149      347.209      110.430        0.101      341.753       16.680      861.017
04/19/2014  19:39:00     -306.779      -71.198      -18.772      225.648      127.037       83.883    50917.000    16138.318     7036.279        8.680        3.705      314.933       99.172        0.099      341.756       16.686      861.032
04/19/2014  19:40:00     -310.436      -34.652       -3.063      168.737      124.154       59.929    28472.229    15414.264     3591.453        7.252        2.374      312.364       75.484        0.058      341.753       16.680      861.080
04/19/2014  19:41:00     -148.276     -107.315       20.239      137.896      130.490       81.814    19015.289    17027.557     6693.554        3.832        2.137      183.036       74.960        0.168      341.720       16.626      861.092
04/19/2014  19:42:00     -534.223     -169.614      -18.362      247.789      175.223       98.525    61399.577    30702.958     9707.185       20.813        5.090      560.502      116.956        0.044      341.711       16.610      861.092
04/19/2014  19:43:00     -427.103     -100.584       -3.145      224.939      181.155       91.286    50597.434    32816.956     8333.205       14.213        4.587      438.787      116.657        0.071      341.702       16.595      861.117
04/19/2014  19:44:00     -573.152     -106.212      -31.073      239.009      146.873       91.793    57125.161    21571.613     8425.922       21.392        4.356      582.910      111.717        0.037      341.690       16.576      861.110
04/19/2014  19:45:00     -264.269      -71.314       16.273      246.444      166.262       92.495    60734.714    27643.012     8555.295        8.604        4.847      273.722      110.564        0.163      341.648       16.505      861.127
04/19/2014  19:46:00     -242.038       16.081        5.586      170.751       94.256       77.160    29155.868     8884.149     5953.606        5.142        2.200      242.571       90.279        0.139      341.635       16.483      861.139
04/19/2014  19:47:00     -219.582       10.160      -29.282       95.049       91.467       55.189     9034.254     8366.212     3045.865        3.481        1.022      219.817       55.077        0.063      341.679       16.558      861.133
04/19/2014  19:48:00     -300.814      -82.916      -13.079      158.422      144.067       81.202    25097.433    20755.294     6593.834        7.498        2.622      312.032       85.038        0.074      341.624       16.463      861.111
04/19/2014  19:49:00     -779.865     -148.472      -39.881      322.400      231.371      121.498   103941.835    53532.459    14761.795       40.200        8.612      793.873      136.423        0.030      341.610       16.439      861.080
04/19/2014  19:50:00     -629.253     -131.912      -26.020      253.741      168.861      106.235    64384.271    28514.136    11285.891       25.909        5.209      642.931      109.081        0.029      341.619       16.454      861.078
04/19/2014  19:51:00     -468.226      -11.870      -14.956      270.036      185.135       95.595    72919.697    34274.935     9138.428       16.794        5.817      468.376      108.850        0.054      341.603       16.427      861.130
04/19/2014  19:52:00     -504.673      -37.914      -34.431      251.902      149.882       97.909    63454.664    22464.572     9586.197       17.639        4.775      506.095       95.054        0.035      341.603       16.425      861.155
04/19/2014  19:53:00     -321.455     -158.100      -23.354      225.786      185.069      105.340    50979.111    34250.519    11096.570       11.258        4.816      358.230      118.593        0.110      341.574       16.378      861.158
04/19/2014  19:54:00     -103.190      -23.650        5.159      136.778      138.557       96.291    18708.277    19197.994     9272.028        2.920        2.359      105.865       76.317        0.520      341.593       16.411      861.172
04/19/2014  19:55:00     -398.113      -56.914      -26.916      193.672      109.221       82.130    37508.911    11929.123     6745.395       10.931        2.809      402.161       98.165        0.060      341.553       16.341      861.233
04/19/2014  19:56:00     -333.933     -150.283      -17.255      161.519      167.024       74.986    26088.472    27896.884     5622.933        9.699        2.980      366.191       71.867        0.039      341.540       16.320      861.242
04/19/2014  19:57:00     -436.967      -86.614        0.495      242.552      193.918      109.817    58831.469    37604.079    12059.698       15.345        5.425      445.468      139.348        0.098      341.562       16.356      861.220
04/19/2014  19:58:00     -439.101     -118.493       -6.687      269.606      173.558       95.623    72687.528    30122.407     9143.766       15.940        5.598      454.808      113.179        0.062      341.517       16.281      861.225
04/19/2014  19:59:00     -479.741     -102.052       -3.748      197.893      168.818       96.618    39161.703    28499.616     9335.060       15.877        3.850      490.475      105.945        0.047      341.468       16.199      861.208
04/19/2014  20:00:00     -366.000      -27.564        4.673      213.679      155.644       79.881    45658.870    24225.047     6380.949       10.549        3.813      367.036       80.006        0.048      341.482       16.222      861.226
04/19/2014  20:01:00     -427.592      -92.222      -27.328      358.490      210.017       91.430   128514.895    44107.290     8359.447       18.650        9.049      437.424      132.257        0.091      341.482       16.222      861.210
04/19/2014  20:02:00     -580.984     -145.242      -22.878      297.072      188.154      104.177    88251.853    35401.840    10852.945       24.681        6.725      598.863      127.920        0.046      341.470       16.202      861.185
04/19/2014  20:03:00     -603.693     -155.733      -17.994      258.944      205.674      119.390    67051.740    42301.684    14254.083       25.629        6.180      623.457      128.023        0.042      341.444       16.157      861.178
04/19/2014  20:04:00     -664.040      -40.411      -36.008      214.043      156.981      104.520    45814.444    24642.884    10924.510       26.261        4.069      665.269       98.150        0.022      341.433       16.138      861.168
04/19/2014  20:05:00     -310.518      -60.026      -10.185      131.993      126.732       73.608    17422.138    16061.003     5418.186        6.951        1.945      316.267       72.617        0.053      341.440       16.150      861.195
04/19/2014  20:06:00     -402.395     -203.429      -16.331      242.330      174.948       93.181    58723.944    30606.669     8682.709       15.077        4.901      450.894      102.652        0.052      341.429       16.132      861.176
04/19/2014  20:07:00     -686.151     -128.068      -57.977      303.964      199.856      119.619    92394.060    39942.492    14308.815       31.858        7.332      698.000      143.331        0.042      341.419       16.113      861.174
04/19/2014  20:08:00     -442.039     -118.668      -36.185      204.220      182.068       89.552    41705.725    33148.916     8019.617       14.682        4.144      457.690      101.264        0.049      341.421       16.119      861.164
04/19/2014  20:09:00     -492.872      -69.979      -15.282      208.040      221.616       95.435    43280.558    49113.674     9107.919       17.476        5.075      497.815       93.905        0.036      341.410       16.098      861.147
04/19/2014  20:10:00     -362.719      -46.357      -15.027      246.225      152.540       89.715    60626.710    23268.329     8048.794       11.292        4.597      365.670      111.811        0.093      341.376       16.042      861.117
04/19/2014  20:11:00     -350.941     -107.563       -1.142      215.535      217.520       92.941    46455.181    47315.097     8637.973       11.855        5.120      367.054       96.338        0.069      341.386       16.060      861.119
04/19/2014  20:12:00     -357.947     -143.343      -11.889      242.096      223.533      112.083    58610.657    49967.202    12562.582       13.495        6.057      385.582      127.784        0.110      341.376       16.042      861.092
04/19/2014  20:13:00     -411.639     -129.164       -9.685      242.786      255.608      114.100    58945.030    65335.344    13018.810       16.173        6.865      431.428      118.613        0.076      341.364       16.021      861.085
04/19/2014  20:14:00     -338.400     -123.415      -14.987      222.579      225.991       92.083    49541.223    51071.805     8479.208       11.951        5.455      360.202       94.689        0.069      341.352       16.002      861.114
04/19/2014  20:15:00     -294.037      -47.528       -5.447      181.381      147.963       78.534    32899.176    21893.164     6167.622        7.484        3.048      297.854       74.141        0.062      341.363       16.019      861.153
04/19/2014  20:16:00     -419.321      -37.853       -8.126      248.467      163.570       93.004    61736.053    26755.230     8649.703       13.722        4.857      421.027      101.144        0.058      341.334       15.971      861.171
04/19/2014  20:17:00     -292.295      -80.349       19.857      219.058      158.593      103.107    47986.501    25151.800    10630.986        8.801        4.188      303.137      116.228        0.147      341.317       15.944      861.160
04/19/2014  20:18:00     -405.917      -83.806       11.778      313.960      166.676      110.454    98571.160    27780.822    12200.039       15.521        6.928      414.478      133.950        0.104      341.312       15.935      861.197
04/19/2014  20:19:00     -312.708     -100.726       17.859      215.955      180.671      104.439    46636.630    32641.897    10907.595        9.920        4.509      328.530      122.553        0.139      341.345       15.991      861.177
04/19/2014  20:20:00     -498.813     -152.763      -22.415      270.828      196.911      112.417    73347.600    38774.003    12637.505       19.868        6.238      521.681      113.017        0.047      341.315       15.939      861.206
04/19/2014  20:21:00     -261.162     -116.927       11.511      229.922      177.957       87.540    52864.199    31668.863     7663.176        8.708        4.610      286.142      106.718        0.139      341.297       15.908      861.241
04/19/2014  20:22:00     -223.218     -155.007        1.325      152.912      129.875       79.889    23382.009    16867.593     6382.323        6.023        2.332      271.760       80.327        0.087      341.299       15.911      861.263
04/19/2014  20:23:00     -310.049     -169.255        2.142      229.661      193.405      117.360    52744.221    37405.523    13773.340       11.433        5.196      353.239      119.974        0.115      341.313       15.936      861.307
04/19/2014  20:24:00     -336.547     -128.261        0.682      216.888      212.613      102.543    47040.440    45204.165    10515.017       11.622        5.138      360.159       92.614        0.066      341.304       15.922      861.311
04/19/2014  20:25:00     -422.557     -144.879      -22.279      211.867      229.686       89.367    44887.808    52755.588     7986.396       15.281        5.281      446.704       94.615        0.045      341.283       15.886      861.313
04/19/2014  20:26:00     -427.621     -183.709       -1.653      229.846      210.287      106.917    52828.968    44220.499    11431.211       16.252        5.424      465.413      110.178        0.056      341.260       15.847      861.345
04/19/2014  20:27:00     -254.483      -92.832        8.409      193.097      118.968       73.728    37286.321    14153.484     5435.882        6.515        2.844      270.886       91.953        0.115      341.215       15.771      861.421
04/19/2014  20:28:00     -319.115     -118.442       -1.127      216.083      159.062       99.593    46691.906    25300.648     9918.841        9.887        4.096      340.387      102.649        0.091      341.254       15.836      861.424
04/19/2014  20:29:00     -146.422     -109.626        6.243      108.249      119.517       73.532    11717.768    14284.222     5407.015        3.245        1.570      182.913       78.800        0.186      341.241       15.815      861.495
04/19/2014  20:30:00     -403.177     -144.707      -26.998      242.242      154.225       79.058    58681.393    23785.494     6250.108       13.645        4.436      428.359       88.111        0.042      341.255       15.838      861.517
04/19/2014  20:31:00     -441.607     -139.308      -22.382      199.866      178.549       84.283    39946.581    31879.912     7103.702       14.691        3.947      463.059       81.989        0.031      341.225       15.786      861.554
04/19/2014  20:32:00     -316.239      -44.258      -17.594      116.433      112.264       62.835    13556.587    12603.117     3948.233        6.619        1.505      319.321       61.187        0.037      341.222       15.782      861.609
04/19/2014  20:33:00     -117.833      -55.661        8.175      147.919      106.621       70.782    21880.027    11367.985     5010.096        2.765        1.913      130.318       74.713        0.329      341.140       15.645      861.653
04/19/2014  20:34:00      -60.801      -94.814       25.719      173.227       87.903       68.264    30007.613     7726.867     4660.023        2.786        2.120      112.634       80.254        0.508      341.203       15.751      861.683
04/19/2014  20:35:00      -27.634      -10.426        4.071       88.419      114.614       66.124     7817.863    13136.419     4372.363        1.310        1.266       29.536       47.731        2.612      341.099       15.576      861.721
04/19/2014  20:36:00      -22.641      -80.014        9.622      109.115       80.038       47.403    11906.124     6406.125     2247.061        1.378        1.028       83.155       52.039        0.392      341.183       15.717      861.773
04/19/2014  20:37:00     -100.663      -55.968       10.014      152.131       88.196       45.611    23143.841     7778.530     2080.325        2.318        1.650      115.176       51.799        0.202      341.138       15.643      861.833
04/19/2014  20:38:00     -267.146     -171.417       -9.811      153.526      134.478       65.616    23570.092    18084.278     4305.451        7.339        2.298      317.413       61.001        0.037      341.207       15.755      861.864
04/19/2014  20:39:00     -160.629      -72.976        5.232      123.911      108.691       50.718    15353.827    11813.669     2572.357        3.044        1.487      176.429       60.489        0.118      341.201       15.747      861.871
04/19/2014  20:40:00     -127.146      -92.920        4.077      149.918       88.744       55.272    22475.327     7875.411     3054.981        2.910        1.670      157.480       65.278        0.172      341.138       15.640      861.896
04/19/2014  20:41:00     -252.857     -188.884       -7.694      151.195       77.516       64.572    22860.068     6008.767     4169.607        6.635        1.652      315.617       52.618        0.028      341.225       15.787      861.905
04/19/2014  20:42:00     -275.328      -40.199      -13.673      232.503      158.364       77.383    54057.492    25079.188     5988.083        8.135        4.256      278.248       87.975        0.100      341.246       15.823      861.927
04/19/2014  20:43:00     -330.134     -117.411      -13.289      160.680      145.615       75.280    25818.117    21203.639     5667.071        8.781        2.634      350.391       77.465        0.049      341.234       15.802      861.935
04/19/2014  20:44:00      -91.743      -59.779       12.928      122.722      138.320       55.324    15060.674    19132.413     3060.731        2.470        1.863      109.501       60.895        0.309      341.201       15.748      861.970
04/19/2014  20:45:00     -124.246     -124.081        0.530       78.170       76.064       43.480     6110.588     5785.708     1890.536        2.231        0.689      175.593       45.821        0.068      341.242       15.818      862.046
04/19/2014  20:46:00     -138.119     -160.378       -2.076       90.560       78.264       45.760     8201.079     6125.330     2093.948        3.061        0.821      211.655       39.068        0.034      341.223       15.785      862.070
04/19/2014  20:47:00      -26.455      -46.762       11.541       62.134       67.021       38.054     3860.636     4491.825     1448.086        0.641        0.490       53.727       27.404        0.260      341.044       15.484      862.080
04/19/2014  20:48:00      -67.322      -53.310        6.522      105.141       61.248       31.929    11054.722     3751.263     1019.473        1.162        0.791       85.874       44.752        0.272      341.190       15.732      862.133
04/19/2014  20:49:00     -170.573      -23.391      -10.935      123.675       48.653       40.177    15295.496     2367.155     1614.194        2.452        0.964      172.169       22.169        0.017      341.102       15.578      862.180
04/19/2014  20:50:00      -12.267       -0.348       14.331       32.826       40.467       32.446     1077.529     1637.603     1052.731        0.206        0.188       12.272       25.070        4.173      340.772       15.024      862.187
04/19/2014  20:51:00       66.741       27.450       13.646       47.661       55.096       31.152     2271.586     3035.548      970.443        0.583        0.314       72.165       38.831        0.290      340.450       14.479      862.229
04/19/2014  20:52:00      -26.421      -83.900       -1.039       55.033       46.150       24.084     3028.593     2129.784      580.049        0.674        0.287       87.962       23.609        0.072      341.009       15.424      862.291
04/19/2014  20:53:00       -1.639      -13.641       18.459       51.646       30.881       17.341     2667.324      953.614      300.700        0.222        0.196       13.739       20.144        2.150      340.758       15.001      862.325
04/19/2014  20:54:00       54.332       16.292       29.331       40.696       36.269       24.761     1656.171     1315.411      613.128        0.383        0.179       56.722       23.782        0.176      340.438       14.459      862.333
04/19/2014  20:55:00      -62.941      -69.551        0.449       56.652       46.009       22.572     3209.446     2116.817      509.482        0.732        0.292       93.803       14.051        0.022      340.941       15.309      862.372
04/19/2014  20:56:00       36.283       31.467       50.421       43.765       38.995       38.843     1915.350     1520.597     1508.783        0.490        0.247       48.027       29.885        0.387      340.531       14.616      862.320
04/19/2014  20:57:00       32.142      -47.822       34.553       60.137       91.372       47.384     3616.495     8348.870     2245.284        0.936        0.711       57.620       52.165        0.820      340.828       15.118      862.305
04/19/2014  20:58:00      -13.385      -17.018       18.493       37.070       54.725       38.105     1374.163     2994.870     1452.021        0.331        0.291       21.651       28.148        1.690      341.076       15.538      862.315
04/19/2014  20:59:00      -93.993      -57.300       -3.844       76.088       41.479       30.345     5789.378     1720.547      920.831        1.028        0.422      110.082       19.701        0.032      341.177       15.709      862.344
04/19/2014  21:00:00      -15.203      -67.342       14.639       31.349       35.742       28.617      982.772     1277.472      818.906        0.403        0.154       69.037       11.712        0.029      341.129       15.627      862.370
04/19/2014  21:01:00       22.851     -107.804       13.866       48.621       87.063       29.589     2363.982     7579.944      875.485        1.158        0.541      110.199       30.623        0.077      341.112       15.598      862.398
04/19/2014  21:02:00      -44.667      -68.740       -3.693       37.536       29.704       21.935     1408.934      882.298      481.147        0.475        0.139       81.978       11.658        0.020      341.199       15.744      862.441
04/19/2014  21:03:00      -50.709       -2.947       16.189       51.769       40.351       27.863     2680.032     1628.231      776.357        0.396        0.254       50.795       33.860        0.444      340.913       15.262      862.482
04/19/2014  21:04:00      -15.099        9.988        2.092       31.045       21.394       30.132      963.801      457.693      907.945        0.133        0.116       18.104       12.902        0.508      340.731       14.954      862.514
04/19/2014  21:05:00       16.781        7.555       11.323       15.295       18.408       13.236      233.930      338.848      175.183        0.061        0.037       18.403        7.050        0.147      340.367       14.339      862.549
04/19/2014  21:06:00       74.760       28.178        9.832       44.165       33.387       25.382     1950.586     1114.703      644.238        0.509        0.185       79.895       13.823        0.030      340.167       14.000      862.571
04/19/2014  21:07:00       83.220       30.075        3.766       65.087       54.982       29.815     4236.317     3022.996      888.926        0.799        0.407       88.487       25.119        0.081      340.632       14.786      862.558
04/19/2014  21:08:00       39.727       54.744       64.875       51.191       51.680       40.872     2620.518     2670.784     1670.522        0.787        0.348       67.639       41.204        0.371      340.653       14.822      862.584
04/19/2014  21:09:00       44.092       58.484       51.440       47.939       34.980       26.500     2298.139     1223.574      702.237        0.612        0.211       73.243       17.999        0.060      340.639       14.799      862.619
04/19/2014  21:10:00      126.599       81.963       19.666       65.254       50.882       29.654     4258.065     2588.929      879.361        1.543        0.386      150.815       19.907        0.017      340.763       15.007      862.624
04/19/2014  21:11:00      119.047       78.124       30.274       79.795       42.978       37.962     6367.176     1847.136     1441.100        1.542        0.483      142.393       26.831        0.036      340.790       15.052      862.661
04/19/2014  21:12:00       12.180       20.070       -2.262       34.868       38.563       21.216     1215.776     1487.083      450.123        0.185        0.158       23.477       15.968        0.463      340.723       14.941      862.725
04/19/2014  21:13:00       62.030       42.979        7.481       35.952       31.169       19.277     1292.578      971.516      371.590        0.419        0.132       75.464       14.273        0.036      340.769       15.018      862.741
04/19/2014  21:14:00       74.868       58.317        5.306       40.857       36.805       21.155     1669.284     1354.635      447.547        0.625        0.174       94.901       17.878        0.035      340.702       14.904      862.698
04/19/2014  21:15:00       56.924       32.961       -3.216       45.876       34.850       22.729     2104.606     1214.547      516.629        0.409        0.192       65.779       16.815        0.065      340.595       14.724      862.702
04/19/2014  21:16:00       -1.572      118.952      -16.595       69.769       78.088       36.627     4867.739     6097.740     1341.537        1.336        0.615      118.962       33.932        0.081      340.775       15.028      862.730
04/19/2014  21:17:00     -101.091      103.750      -34.299       55.589       42.217       21.777     3090.185     1782.243      474.245        1.375        0.267      144.857       16.238        0.013      340.857       15.164      862.790
04/19/2014  21:18:00      -20.719      140.393      -22.693       65.687       76.482       35.899     4314.727     5849.550     1288.765        1.605        0.573      141.913       39.735        0.078      340.891       15.222      862.771
04/19/2014  21:19:00      -67.501      196.148      -32.129       54.521       58.546       31.578     2972.506     3427.648      997.168        2.573        0.370      207.438       30.870        0.022      340.874       15.192      862.778
04/19/2014  21:20:00       35.326      218.068      -25.857       68.355       80.441       43.800     4672.345     6470.830     1918.453        3.126        0.653      220.910       47.908        0.047      340.854       15.158      862.776
04/19/2014  21:21:00       13.136       92.723       -2.341       62.205       72.910       40.398     3869.407     5315.809     1631.980        0.979        0.541       93.649       41.686        0.198      340.854       15.160      862.770
04/19/2014  21:22:00      -68.772      187.709      -36.215       60.630       81.387       38.117     3676.054     6623.833     1452.874        2.651        0.588      199.911       40.021        0.040      340.896       15.231      862.787
04/19/2014  21:23:00     -135.474       63.703      -10.960       65.697      117.678       36.517     4316.090    13848.025     1333.462        2.101        0.975      149.704       31.689        0.045      340.907       15.252      862.807
04/19/2014  21:24:00     -221.078       84.479      -38.839       72.872       79.006       51.047     5310.289     6241.877     2605.812        3.584        0.708      236.669       44.882        0.036      340.953       15.325      862.860
04/19/2014  21:25:00     -109.181      -38.819      -18.197       80.840       61.937       35.378     6535.130     3836.201     1251.606        1.269        0.581      115.877       36.552        0.100      340.993       15.398      862.850
04/19/2014  21:26:00      -96.147       -0.264       -5.469       70.405       99.158       43.673     4956.900     9832.360     1907.327        1.298        0.835       96.148       35.528        0.137      340.868       15.185      862.861
04/19/2014  21:27:00     -117.602       32.832       -6.448       59.344       50.191       31.674     3521.708     2519.100     1003.251        1.100        0.352      122.099       29.810        0.060      340.950       15.325      862.888
04/19/2014  21:28:00     -168.237      170.115      -39.320       57.882       88.681       38.342     3350.292     7864.390     1470.088        3.573        0.634      239.255       40.175        0.028      340.970       15.357      862.917
04/19/2014  21:29:00     -128.010      102.759      -27.054       41.705       59.269       25.526     1739.287     3512.783      651.572        1.679        0.295      164.152       23.174        0.020      341.002       15.412      862.920
04/19/2014  21:30:00     -242.265      188.519      -54.485      129.213      117.506       69.502    16696.043    13807.718     4830.481        6.626        1.767      306.972       74.583        0.059      341.012       15.427      862.949
04/19/2014  21:31:00     -211.729       82.738      -18.398      123.450      108.785       58.004    15239.876    11834.233     3364.426        4.122        1.522      227.321       55.461        0.060      341.005       15.414      862.988
04/19/2014  21:32:00     -223.370      169.030      -39.769       49.921       72.763       38.895     2492.095     5294.417     1512.794        4.467        0.465      280.117       39.740        0.020      341.078       15.537      862.986
04/19/2014  21:33:00     -119.779       89.730      -21.489       40.212       60.850       35.944     1616.974     3702.678     1291.992        1.473        0.331      149.661       27.758        0.034      341.040       15.475      862.961
04/19/2014  21:34:00     -164.053       99.233      -25.000       79.858      115.331       43.291     6377.307    13301.185     1874.079        2.946        1.078      191.731       43.386        0.051      341.043       15.480      862.993
04/19/2014  21:35:00     -232.435      314.196      -57.063       86.053      130.163       60.721     7405.056    16942.445     3687.005        9.201        1.402      390.826       60.114        0.024      341.001       15.409      863.019
04/19/2014  21:36:00     -264.096      202.609      -69.082       80.885       82.778       42.710     6542.329     6852.177     1824.165        6.539        0.761      332.862       47.906        0.021      341.021       15.442      863.020
04/19/2014  21:37:00     -149.588       57.980      -13.680       69.008       99.684       35.715     4762.130     9936.962     1275.595        2.095        0.799      160.432       26.689        0.028      341.017       15.435      863.000
04/19/2014  21:38:00     -168.523      -65.085       -7.333      151.921       91.676       47.634    23079.940     8404.439     2268.964        3.321        1.688      180.654       38.080        0.044      340.958       15.336      863.004
04/19/2014  21:39:00     -148.871      159.092      -17.789       76.800      179.002       64.726     5898.259    32041.665     4189.517        4.495        2.106      217.883       75.419        0.120      340.964       15.346      863.039
04/19/2014  21:40:00     -223.581      189.263      -54.388       88.584      105.657       53.540     7847.080    11163.470     2866.491        5.532        1.094      292.932       43.529        0.022      341.111       15.592      863.076
04/19/2014  21:41:00     -212.375       44.454      -23.333       87.741      202.789       59.580     7698.542    41123.270     3549.720        4.999        2.619      216.978       58.487        0.073      341.097       15.568      863.103
04/19/2014  21:42:00     -276.511      -71.020      -24.172      110.393       84.036       50.986    12186.632     7062.065     2599.548        5.196        1.092      285.486       38.529        0.018      341.014       15.429      863.080
04/19/2014  21:43:00      -92.620      255.739      -38.872      103.196      164.811       65.307    10649.512    27162.718     4264.996        5.878        2.104      271.994       77.696        0.082      341.016       15.433      863.066
04/19/2014  21:44:00       57.616      341.072      -46.351      120.934      150.962       82.281    14624.958    22789.454     6770.211        8.298        2.209      345.904       72.695        0.044      341.096       15.569      863.038
04/19/2014  21:45:00      111.512      226.596       -9.825       91.081      121.865       84.923     8295.762    14850.987     7211.979        4.711        1.518      252.548       73.391        0.084      341.045       15.483      862.985
04/19/2014  21:46:00      -21.015      299.199      -45.642      103.290       91.816       50.359    10668.816     8430.206     2536.055        5.684        1.082      299.936       50.279        0.028      340.985       15.380      863.091
04/19/2014  21:47:00     -254.773      266.187      -71.898      108.271      156.761       65.381    11722.601    24574.028     4274.673        9.074        2.029      368.463       79.777        0.047      341.114       15.598      863.214
04/19/2014  21:48:00      -31.303      139.018      -20.521       79.062       86.057       37.130     6250.765     7405.803     1378.665        1.788        0.752      142.499       17.205        0.015      341.104       15.583      863.199
04/19/2014  21:49:00       73.281      274.713      -40.676      101.595      135.846       52.924    10321.597    18454.025     2801.001        5.703        1.579      284.319       68.087        0.057      340.984       15.380      863.192
04/19/2014  21:50:00     -174.478      236.309      -36.935       88.851       93.299       52.705     7894.533     8704.705     2777.768        5.351        0.969      293.743       50.960        0.030      341.032       15.460      863.242
04/19/2014  21:51:00     -157.462      304.569      -53.420       90.100      100.380       59.200     8117.948    10076.184     3504.610        7.105        1.085      342.865       65.252        0.036      341.094       15.563      863.274
04/19/2014  21:52:00     -101.479      189.749      -32.830       65.809       98.047       38.937     4330.764     9613.123     1516.119        3.142        0.773      215.181       39.962        0.034      341.090       15.557      863.291
04/19/2014  21:53:00     -151.300      160.404      -38.043       58.562       57.449       39.283     3429.555     3300.384     1543.169        2.917        0.414      220.502       36.493        0.027      341.061       15.510      863.354
04/19/2014  21:54:00     -137.452      300.182      -38.814       88.301      141.392       54.189     7797.030    19991.559     2936.406        7.061        1.536      330.155       54.255        0.027      340.932       15.290      863.383
04/19/2014  21:55:00      -62.396      480.950      -64.322       60.680      126.771       36.466     3682.020    16070.968     1329.750       13.021        1.054      484.980       39.218        0.007      340.828       15.115      863.373
04/19/2014  21:56:00      -72.066      402.438      -54.834       72.698      122.855       49.955     5285.043    15093.408     2495.535        9.651        1.144      408.840       55.676        0.019      340.728       14.946      863.403
04/19/2014  21:57:00      -82.181      325.570      -47.481       63.223      129.355       45.901     3997.178    16732.637     2106.881        6.892        1.142      335.782       59.163        0.031      340.659       14.828      863.433
04/19/2014  21:58:00     -156.235      271.255      -32.697       90.403      105.796       69.103     8172.790    11192.733     4775.221        6.159        1.207      313.032       62.159        0.039      340.618       14.758      863.467
04/19/2014  21:59:00      -98.706      308.885      -47.270       93.050      101.107       44.777     8658.290    10222.714     2004.950        6.413        1.044      324.273       37.212        0.013      340.549       14.644      863.469
04/19/2014  22:00:00     -149.479      345.009      -43.939       70.090       96.976       47.235     4912.634     9404.300     2231.102        7.992        0.827      375.999       44.775        0.014      340.536       14.621      863.491
04/19/2014  22:01:00      -84.564      400.839      -56.404       78.747      107.156       45.183     6201.052    11482.444     2041.495        9.536        0.986      409.662       48.933        0.014      340.548       14.640      863.480
04/19/2014  22:02:00      -55.694      448.162      -51.038       97.782      256.627       78.268     9561.293    65857.598     6125.948       14.403        4.077      451.609      111.142        0.061      340.474       14.517      863.484
04/19/2014  22:03:00      -52.542      507.894      -62.056       93.004      115.858       62.183     8649.717    13423.169     3866.727       14.525        1.297      510.604       58.671        0.013      340.364       14.330      863.476
04/19/2014  22:04:00      -15.707      432.781      -56.213       96.192      138.827       62.254     9252.934    19273.004     3875.521       11.155        1.620      433.066       70.920        0.027      340.404       14.399      863.464
04/19/2014  22:05:00      -96.887      381.518      -45.928       79.597      103.953       56.377     6335.745    10806.279     3178.346        8.868        1.016      393.628       55.929        0.020      340.391       14.376      863.486
04/19/2014  22:06:00      -90.282      403.363      -59.102       81.570       97.646       42.683     6653.664     9534.696     1821.851        9.617        0.901      413.343       42.644        0.011      340.593       14.716      863.495
04/19/2014  22:07:00     -133.215      261.492      -36.022      105.548      180.494       56.239    11140.460    32577.914     3162.779        6.714        2.344      293.469       65.619        0.050      340.602       14.733      863.487
04/19/2014  22:08:00      -93.008      417.879      -58.234       69.024      115.909       43.920     4764.287    13434.918     1928.997       10.339        1.006      428.104       47.138        0.012      340.576       14.689      863.496
04/19/2014  22:09:00     -120.895      287.273      -35.409       98.002      144.502       57.530     9604.356    20880.691     3309.690        6.609        1.690      311.675       65.600        0.044      340.535       14.619      863.524
04/19/2014  22:10:00     -199.956      268.944      -49.136       99.409      111.670       58.947     9882.061    12470.248     3474.775        7.027        1.291      335.132       60.745        0.033      340.462       14.496      863.522
04/19/2014  22:11:00     -164.550      388.000      -47.875       88.924      123.233       61.498     7907.455    15186.299     3782.038       10.339        1.344      421.451       58.581        0.019      340.350       14.308      863.571
04/19/2014  22:12:00     -185.077      468.970      -62.565      115.204      125.511       70.216    13271.943    15753.094     4930.274       14.602        1.698      504.169       56.504        0.013      340.277       14.183      863.595
04/19/2014  22:13:00      -85.608      388.369      -60.576       83.175       97.847       54.080     6918.120     9574.012     2924.655        9.062        0.971      397.692       49.344        0.015      340.191       14.037      863.591
04/19/2014  22:14:00     -106.447      401.786      -60.362      110.593      184.831       69.257    12230.820    34162.588     4796.599       11.379        2.560      415.648       79.475        0.037      340.149       13.967      863.571
04/19/2014  22:15:00     -115.138      504.800      -69.149       78.482      135.496       57.273     6159.434    18359.111     3280.205       15.032        1.390      517.764       60.688        0.014      340.040       13.782      863.563
04/19/2014  22:16:00     -116.085      501.412      -64.717      104.675      148.969       69.386    10956.916    22191.784     4814.458       15.351        1.898      514.675       66.179        0.017      340.054       13.804      863.562
04/19/2014  22:17:00     -201.243      299.900      -42.726      105.661      113.445       71.411    11164.200    12869.816     5099.551        8.069        1.457      361.164       62.513        0.030      340.075       13.842      863.573
04/19/2014  22:18:00     -205.668      312.598      -42.762      102.776      150.722       75.040    10562.887    22717.034     5630.981        9.037        1.946      374.188       76.880        0.042      340.095       13.876      863.621
04/19/2014  22:19:00     -192.656      313.094      -52.569       89.615      122.433       68.188     8030.801    14989.925     4649.603        8.278        1.384      367.619       64.309        0.031      340.073       13.838      863.652
04/19/2014  22:20:00     -164.854      366.109      -47.496       92.252      157.054       68.564     8510.412    24665.921     4701.018       10.067        1.894      401.513       64.865        0.026      340.032       13.769      863.649
04/19/2014  22:21:00     -131.637      276.616      -40.197       90.411      116.404       64.198     8174.210    13549.859     4121.376        6.065        1.292      306.341       57.948        0.036      340.070       13.833      863.615
04/19/2014  22:22:00      -64.787      504.968      -70.530       73.443      194.051       54.223     5393.875    37655.846     2940.118       15.507        2.299      509.107       73.603        0.021      340.008       13.728      863.524
04/19/2014  22:23:00     -127.552      351.952      -53.954       93.451      138.336       80.400     8732.999    19136.985     6464.090        8.869        1.717      374.353       70.357        0.035      339.936       13.606      863.532
04/19/2014  22:24:00     -157.685      179.054      -29.143       81.776      114.425       65.313     6687.311    13093.090     4265.846        4.091        1.202      238.590       54.019        0.051      339.995       13.708      863.579
04/19/2014  22:25:00     -136.001      224.469      -33.725       60.167      138.425       56.430     3620.090    19161.350     3184.300        4.799        1.298      262.455       61.964        0.056      339.977       13.678      863.614
04/19/2014  22:26:00     -173.400      275.755      -43.867      116.971      163.732       66.006    13682.116    26808.113     4356.805        7.643        2.242      325.743       67.090        0.042      340.025       13.757      863.600
04/19/2014  22:27:00     -156.228      329.439      -56.240       92.567      159.567       70.165     8568.597    25461.603     4923.128        8.752        1.948      364.605       64.744        0.032      340.019       13.749      863.624
04/19/2014  22:28:00     -259.777      226.971      -59.772      106.035      146.447       60.539    11243.373    21446.708     3664.964        7.946        1.818      344.963       60.049        0.030      339.978       13.678      863.683
04/19/2014  22:29:00     -259.255      324.323      -55.468      120.071      138.713       79.198    14417.048    19241.270     6272.288       10.770        1.997      415.209       68.010        0.027      339.953       13.636      863.709
04/19/2014  22:30:00     -159.224      318.043      -33.581      100.512      120.186       71.038    10102.678    14444.639     5046.440        7.861        1.480      355.674       65.270        0.034      339.903       13.551      863.699
04/19/2014  22:31:00     -128.624      331.067      -33.789       78.273      158.760       58.213     6126.717    25204.797     3388.719        8.100        1.736      355.176       71.998        0.041      339.933       13.600      863.696
04/19/2014  22:32:00     -103.030      339.393      -38.557       98.721      134.542       58.824     9745.771    18101.636     3460.209        7.929        1.565      354.687       51.153        0.021      339.921       13.582      863.682
04/19/2014  22:33:00     -154.196      240.963      -39.987       90.938      112.055       63.486     8269.788    12556.401     4030.441        5.414        1.243      286.076       59.997        0.044      339.910       13.563      863.679
04/19/2014  22:34:00     -142.720      210.428      -22.141       64.915       86.145       55.290     4213.963     7420.912     3056.934        3.991        0.735      254.262       51.480        0.041      339.946       13.624      863.703
04/19/2014  22:35:00     -262.340      280.919      -53.068      117.384      126.950       67.144    13778.973    16116.216     4508.265        9.247        1.720      384.367       69.711        0.033      339.988       13.695      863.717
04/19/2014  22:36:00     -269.692      229.503      -41.869      118.957      106.701       77.036    14150.729    11385.150     5934.611        7.931        1.574      354.126       68.815        0.038      339.966       13.657      863.741
04/19/2014  22:37:00     -172.761      177.146      -25.644       85.086      153.300       58.524     7239.658    23500.890     3425.033        4.802        1.708      247.441       43.104        0.030      339.955       13.640      863.746
04/19/2014  22:38:00     -161.720      126.513      -33.337       89.109      147.580       72.095     7940.464    21779.857     5197.734        3.909        1.746      205.327       58.108        0.080      339.967       13.661      863.748
04/19/2014  22:39:00     -276.009      286.256      -52.085      162.540      156.120       88.325    26419.133    24373.309     7801.260       10.970        2.930      397.647       99.607        0.063      339.950       13.629      863.762
04/19/2014  22:40:00     -214.813      193.396      -32.673       87.153      124.191       60.054     7595.732    15423.339     3606.425        5.561        1.331      289.044       59.236        0.042      339.978       13.677      863.775
04/19/2014  22:41:00     -198.776      176.506      -29.848       85.977      142.398       63.061     7392.054    20277.090     3976.701        5.160        1.582      265.831       49.653        0.035      339.904       13.553      863.779
04/19/2014  22:42:00     -294.053      242.616      -59.692      132.343      149.143       85.935    17514.694    22243.667     7384.819        9.801        2.357      381.221       81.888        0.046      339.801       13.379      863.770
04/19/2014  22:43:00     -281.384      280.879      -65.429      112.725      153.364       78.096    12706.927    23520.540     6099.049       10.233        2.116      397.580       81.555        0.042      339.814       13.401      863.743
04/19/2014  22:44:00     -243.698      127.749      -33.766      132.107      158.753       60.453    17452.188    25202.655     3654.609        6.157        2.315      275.151       60.087        0.048      339.791       13.363      863.725
04/19/2014  22:45:00     -143.831       62.866       -8.731       91.359       97.928       49.034     8346.377     9589.988     2404.329        2.252        1.017      156.969       47.419        0.091      339.833       13.437      863.724
04/19/2014  22:46:00     -132.431       21.189      -25.166       88.809       63.896       58.483     7886.997     4082.656     3420.223        1.700        0.769      134.115       49.123        0.134      339.764       13.320      863.719
04/19/2014  22:47:00     -120.467      -11.836       -2.825       92.601      101.107       61.676     8574.903    10222.586     3803.954        1.863        1.130      121.047       39.489        0.106      339.755       13.305      863.713
04/19/2014  22:48:00     -272.139      272.301      -65.505      125.693      132.022       73.108    15798.757    17429.765     5344.794        9.553        1.929      384.978       73.883        0.037      339.729       13.258      863.733
04/19/2014  22:49:00     -283.901      359.031      -67.769      124.573      149.561       80.395    15518.396    22368.600     6463.341       12.921        2.218      457.715       70.394        0.024      339.644       13.116      863.718
04/19/2014  22:50:00     -244.087      322.352      -56.168      130.248      125.128       58.729    16964.550    15657.026     3449.081       10.135        1.804      404.338       66.247        0.027      339.646       13.119      863.706
04/19/2014  22:51:00     -201.107      205.599      -27.527      144.986      102.411       75.589    21020.988    10488.015     5713.739        6.034        1.861      287.602       76.562        0.071      339.573       12.995      863.727
04/19/2014  22:52:00     -240.835      298.506      -50.617      127.820      155.048       73.714    16337.912    24039.899     5433.681        9.773        2.291      383.546       80.512        0.044      339.528       12.919      863.716
04/19/2014  22:53:00     -249.017      180.917      -41.414      124.719      107.289       76.078    15554.938    11511.017     5787.901        6.465        1.643      307.800       72.203        0.055      339.536       12.934      863.715
04/19/2014  22:54:00     -155.971      178.968      -23.095      104.736      105.592       67.855    10969.696    11149.632     4604.306        4.180        1.336      237.395       58.891        0.062      339.581       13.008      863.727
04/19/2014  22:55:00     -277.512      306.710      -68.766      148.618      138.862       97.057    22087.174    19282.589     9420.075       11.329        2.539      413.623       93.346        0.051      339.526       12.916      863.755
04/19/2014  22:56:00     -240.352      289.470      -49.638      166.154      144.854       89.270    27607.244    20982.759     7969.089       10.028        2.828      376.248       93.684        0.062      339.472       12.826      863.760
04/19/2014  22:57:00     -222.462      258.426      -38.724      116.196      134.318       76.033    13501.395    18041.399     5780.948        7.754        1.866      340.989       76.056        0.050      339.450       12.788      863.750
04/19/2014  22:58:00     -283.597      230.646      -48.913      132.785      126.242       80.911    17631.793    15937.075     6546.564        8.806        2.006      365.547       65.107        0.032      339.409       12.718      863.755
04/19/2014  22:59:00     -283.524      300.652      -51.480      128.365      137.597       90.455    16477.528    18933.024     8182.156       10.850        2.180      413.252       72.225        0.031      339.361       12.637      863.747
04/19/2014  23:00:00     -274.214      248.792      -56.844      132.086      131.960       85.797    17446.591    17413.512     7361.110        9.126        2.111      370.258       73.843        0.040      339.408       12.717      863.761
04/19/2014  23:01:00     -139.948      264.220      -17.472       77.441      144.744       70.872     5997.040    20950.749     5022.864        6.083        1.599      298.994       69.905        0.055      339.369       12.652      863.739
04/19/2014  23:02:00     -256.943      299.700      -41.628      144.629      172.301       94.358    20917.616    29687.768     8903.442       10.853        2.975      394.766       86.568        0.048      339.385       12.679      863.744
04/19/2014  23:03:00     -235.458      224.046      -54.854      123.001      136.807       77.805    15129.256    18716.057     6053.609        7.426        1.995      325.018       77.936        0.057      339.472       12.826      863.736
04/19/2014  23:04:00     -118.025       98.553      -11.092      104.905      100.000       50.774    11005.089     9999.973     2577.972        2.367        1.179      153.761       45.937        0.089      339.484       12.847      863.731
04/19/2014  23:05:00     -126.211       18.405      -22.356       96.388       76.097       40.594     9290.625     5790.746     1647.873        1.675        0.836      127.546       33.701        0.070      339.596       13.037      863.759
04/19/2014  23:06:00     -230.063      -15.439      -35.696      143.331      135.308       63.888    20543.669    18308.366     4081.663        4.868        2.147      230.581       66.048        0.082      339.630       13.092      863.766
04/19/2014  23:07:00     -169.223       62.522      -10.284       98.762      187.528       71.741     9753.880    35166.714     5146.818        4.135        2.503      180.404       55.456        0.094      339.582       13.011      863.757
04/19/2014  23:08:00     -202.450       91.247      -15.558      154.126      142.085       63.497    23754.961    20188.110     4031.891        4.875        2.399      222.063       58.768        0.070      339.621       13.077      863.765
04/19/2014  23:09:00     -269.164      146.737      -53.427      180.508      143.234       72.527    32583.315    20516.027     5260.229        7.759        2.918      306.564       76.812        0.063      339.579       13.005      863.772
04/19/2014  23:10:00     -269.528      -50.100      -43.188      153.950      105.684       65.862    23700.646    11169.186     4337.765        5.811        1.960      274.144       76.077        0.077      339.543       12.946      863.752
04/19/2014  23:11:00     -210.812       75.687      -33.511       96.713      100.673       50.938     9353.406    10135.009     2594.723        3.668        1.104      223.987       41.680        0.035      339.538       12.936      863.764
04/19/2014  23:12:00     -210.890      -83.295      -10.175      111.573       91.447       59.086    12448.559     8362.564     3491.118        3.790        1.215      226.743       54.467        0.058      339.495       12.863      863.750
04/19/2014  23:13:00     -272.746      -86.294       -8.020      105.769       99.846       56.785    11186.981     9969.169     3224.587        5.314        1.219      286.071       47.862        0.028      339.418       12.733      863.739
04/19/2014  23:14:00     -261.210       50.421      -32.253      108.915      102.234       55.887    11862.373    10451.738     3123.410        4.862        1.272      266.032       58.454        0.048      339.430       12.756      863.768
04/19/2014  23:15:00     -171.942       86.018      -28.226       86.673      134.962       60.677     7512.226    18214.683     3681.743        3.358        1.470      192.258       59.525        0.096      339.417       12.734      863.765
04/19/2014  23:16:00     -194.617       89.033      -27.046      111.222      139.224       64.491    12370.389    19383.381     4159.136        4.122        1.796      214.016       59.484        0.077      339.480       12.839      863.776
04/19/2014  23:17:00     -244.051       40.164      -18.987       99.421      139.336       57.448     9884.577    19414.572     3300.261        4.706        1.630      247.334       52.492        0.045      339.456       12.798      863.764
04/19/2014  23:18:00     -113.697        1.246      -10.335       70.174      121.272       40.233     4924.390    14707.005     1618.684        1.714        1.063      113.703       32.535        0.082      339.415       12.730      863.786
04/19/2014  23:19:00      -82.087       26.301       -9.219       78.905       63.529       38.220     6225.950     4035.960     1460.783        0.962        0.586       86.198       30.643        0.126      339.464       12.815      863.799
04/19/2014  23:20:00     -127.645       35.245       -3.679      107.084       89.772       63.198    11466.936     8059.001     3994.042        2.053        1.176      132.422       59.342        0.201      339.516       12.900      863.823
04/19/2014  23:21:00     -131.636       77.284       -6.265      131.939       93.363       58.889    17407.776     8716.704     3467.916        2.646        1.480      152.646       56.428        0.137      339.489       12.855      863.833
04/19/2014  23:22:00     -101.232       62.359        5.706       78.809       81.254       53.423     6210.916     6602.292     2853.999        1.492        0.783      118.897       42.918        0.130      339.511       12.892      863.869
04/19/2014  23:23:00     -127.040       41.316       -2.729       69.331       79.220       38.950     4806.776     6275.885     1517.111        1.522        0.630      133.589       22.476        0.028      339.550       12.958      863.904
04/19/2014  23:24:00     -230.484      155.837      -50.961       99.668       78.371       41.904     9933.781     6142.045     1755.937        4.891        0.892      278.223       46.237        0.028      339.558       12.971      863.933
04/19/2014  23:25:00     -181.931       55.494       -8.812       94.304       82.444       49.894     8893.179     6797.042     2489.402        2.721        0.909      190.206       48.558        0.065      339.556       12.969      863.934
04/19/2014  23:26:00      -54.959       16.493       -5.354       40.733       67.580       37.692     1659.156     4567.073     1420.681        0.548        0.382       57.380       21.618        0.142      339.546       12.953      863.943
04/19/2014  23:27:00     -123.293       64.591      -25.611      109.852      111.099       48.665    12067.368    12343.046     2368.302        2.340        1.339      139.187       45.438        0.107      339.617       13.071      863.962
04/19/2014  23:28:00     -186.800      175.405      -28.233       88.492       71.015       53.217     7830.920     5043.177     2832.049        4.108        0.785      256.244       37.456        0.021      339.598       13.038      863.996
04/19/2014  23:29:00     -223.411      216.022      -44.606       99.025      119.165       61.926     9805.870    14200.312     3834.842        6.320        1.392      310.770       60.504        0.038      339.676       13.169      864.020
04/19/2014  23:30:00     -173.962      188.748      -20.906       77.131       91.903       51.401     5949.176     8446.204     2642.097        4.168        0.852      256.687       45.931        0.032      339.637       13.104      864.053
04/19/2014  23:31:00     -134.428      126.975      -33.079      108.597      129.550       56.212    11793.363    16783.294     3159.761        3.351        1.587      184.915       62.890        0.116      339.644       13.117      864.079
04/19/2014  23:32:00      -84.038      111.208      -15.569       76.257       81.891       49.311     5815.059     6706.062     2431.578        1.731        0.748      139.390       34.683        0.062      339.586       13.018      864.095
04/19/2014  23:33:00     -108.385      101.813       -3.145       64.449       80.757       56.026     4153.710     6521.643     3138.904        1.797        0.691      148.705       44.176        0.088      339.581       13.012      864.106
04/19/2014  23:34:00     -129.878      166.548      -24.647       97.283       98.516       62.342     9464.017     9705.420     3886.583        3.413        1.153      211.202       53.034        0.063      339.529       12.922      864.124
04/19/2014  23:35:00     -224.943      108.043      -37.945      144.085      148.764       73.443    20760.597    22130.872     5393.932        5.599        2.414      249.545       86.193        0.119      339.560       12.974      864.144
04/19/2014  23:36:00     -152.804      130.030      -35.307      100.145      116.441       58.918    10029.026    13558.515     3471.335        3.428        1.353      200.641       58.219        0.084      339.520       12.905      864.149
04/19/2014  23:37:00     -153.029      157.848      -24.865       62.316       77.572       46.015     3883.263     6017.356     2117.374        3.048        0.601      219.850       37.942        0.030      339.477       12.832      864.161
04/19/2014  23:38:00     -142.690       43.911      -13.087       79.522       43.865       35.050     6323.757     1924.159     1228.528        1.597        0.474      149.294       20.754        0.019      339.519       12.905      864.184
04/19/2014  23:39:00     -123.844      116.636       -5.618       82.797       73.430       45.902     6855.368     5392.010     2107.033        2.166        0.718      170.121       43.380        0.065      339.493       12.862      864.207
04/19/2014  23:40:00     -186.057      159.930      -23.220       88.852       91.864       58.722     7894.647     8439.004     3448.235        4.025        0.989      245.346       50.188        0.042      339.430       12.754      864.231
04/19/2014  23:41:00     -178.966      176.147      -29.435       90.182       95.445       49.917     8132.732     9109.687     2491.680        4.182        0.987      251.111       30.605        0.015      339.380       12.670      864.251
04/19/2014  23:42:00     -112.243      144.281      -18.529       78.915      118.950       47.296     6227.547    14149.073     2236.922        2.818        1.131      182.799       41.581        0.052      339.354       12.628      864.248
04/19/2014  23:43:00     -128.277      154.433      -25.377       90.395      141.605       69.584     8171.201    20051.886     4841.901        3.700        1.653      200.760       71.514        0.127      339.382       12.672      864.266
04/19/2014  23:44:00     -127.526       33.822       -0.084       85.969       67.440       49.282     7390.718     4548.143     2428.722        1.588        0.718      131.935       45.583        0.119      339.460       12.807      864.275
04/19/2014  23:45:00     -100.682      102.549       -4.898       53.080       60.465       40.608     2817.434     3656.061     1649.049        1.440        0.406      143.712       33.545        0.054      339.319       12.570      864.288
04/19/2014  23:46:00     -116.809       47.894      -25.263       68.306       88.773       47.926     4665.777     7880.588     2296.944        1.571        0.742      126.247       48.396        0.147      339.313       12.561      864.303
04/19/2014  23:47:00     -136.971       56.129      -21.645       81.784       74.887       45.619     6688.602     5608.005     2081.073        1.838        0.719      148.025       49.356        0.111      339.308       12.550      864.314
04/19/2014  23:48:00      -88.382      -32.071       -4.341       52.879       43.389       49.062     2796.158     1882.563     2407.100        0.797        0.354       94.021       32.976        0.123      339.277       12.499      864.314
04/19/2014  23:49:00      -78.630       -5.858        7.907       51.219       53.919       32.749     2623.403     2907.260     1072.528        0.644        0.330       78.848       27.695        0.123      339.231       12.424      864.322
04/19/2014  23:50:00      -46.019       75.000       -0.768       38.187       94.777       35.377     1458.271     8982.765     1251.535        0.972        0.585       87.993       43.635        0.246      339.189       12.352      864.342
04/19/2014  23:51:00     -128.681      115.619      -24.848       81.065       95.998       39.928     6571.577     9215.555     1594.214        2.396        0.869      172.993       27.815        0.026      339.249       12.451      864.353
04/19/2014  23:52:00     -119.635       57.896       -1.049       87.980       72.662       44.913     7740.425     5279.770     2017.176        1.635        0.752      132.908       45.633        0.118      339.215       12.394      864.374
04/19/2014  23:53:00     -107.416      174.002      -16.529       50.704       55.731       43.397     2570.901     3105.901     1883.287        2.482        0.378      204.487       37.920        0.034      339.119       12.231      864.397
04/19/2014  23:54:00      -79.171      196.904      -33.130       61.381       78.571       31.703     3767.650     6173.474     1005.061        2.854        0.547      212.225       25.966        0.015      339.115       12.224      864.406
04/19/2014  23:55:00     -116.861      187.594      -27.069       62.853       81.836       43.701     3950.489     6697.140     1909.783        3.107        0.628      221.016       37.842        0.029      339.096       12.193      864.414
04/19/2014  23:56:00      -86.754      154.478      -12.912       70.181       76.329       52.018     4925.350     5826.187     2705.865        2.250        0.673      177.171       45.452        0.066      339.067       12.145      864.432
04/19/2014  23:57:00      -73.260      191.132      -22.927       53.584       97.786       47.942     2871.295     9562.146     2298.424        2.857        0.737      204.691       39.113        0.037      339.029       12.081      864.453
04/19/2014  23:58:00      -88.045      117.972       -6.993       55.034       78.909       44.935     3028.781     6226.606     2019.179        1.649        0.564      147.205       28.972        0.039      339.041       12.102      864.461
04/19/2014  23:59:00     -125.254      213.768      -13.460       82.606      140.316       52.706     6823.704    19688.509     2777.893        4.542        1.465      247.760       55.026        0.049      338.991       12.017      864.485
